Darstellungsparameter: Aktuell verwendete Einstellungen:
Skalierung der Graphiken ... ?
xyx+y,   Skalierungsfaktor:      Skalierung: Modus: x, Faktor: 1
Darstellungszeitraum ... ?
Vom - - bis: - -   Zeitraum: 30.08.2019 - 28.09.2019
Min/Max/Avg-Anzeige ... ?
Zeige MMA aktuell
Zeige MMA Monat
Zeige MMA alles
Zeige --A aktuell
Zeige --A Monat
Zeige --A alles
Keine MMA-Anzeige
MMA:
Average (ber die Originaldaten)
MMA-Basis: 30.08.2019 - 28.09.2019
Quicknavigation für Darstellung... ?
Tage:      1T, 2T, 3T, 5T -1T -2T -3T -5T +1T +2T +3T +5T
Wochen: 1W, 2W, 3W -1W -2W -3W +1W +2W +3W
Monate: 1M, 3M, 6M -1M -3M -6M +1M +3M +6M
Jahre:    1J, 3J, 5J, 10J -1J -3J -5J -10J +1J +3J +5J +10J
Nutze für die Darstellung ... ?
Originaldaten oder Mittelwerte auf ...
Stundenbasis Tagesbasis Wochenbasis
Monatsbasis Jahresbasis      Datenbasis: Original-Daten
Darstellen als:
Statistik (Auto) Statistik J:M      Darstellung:
Zur Graphik,    zurück zur Übersicht aller Sensoren.
 
Tabellarische Datenbersicht: ?
 
Sensor: Nr:Datum:Temp:Feuchte:
Aussen-T/F 1 30-08-2019 00:09:17 20.6 C 27 %
2 30-08-2019 00:21:17 20.5 C 27 %
3 30-08-2019 00:33:17 20.1 C 28 %
4 30-08-2019 00:45:17 20 C 30 %
5 30-08-2019 00:57:17 19.7 C 31 %
6 30-08-2019 01:09:17 19.2 C 32 %
7 30-08-2019 01:21:18 19 C 34 %
8 30-08-2019 01:33:17 18.9 C 35 %
9 30-08-2019 01:45:17 18.9 C 35 %
10 30-08-2019 01:57:17 18.2 C 36 %
11 30-08-2019 02:09:18 17.9 C 38 %
12 30-08-2019 02:21:17 17.9 C 38 %
13 30-08-2019 02:33:17 17.9 C 38 %
14 30-08-2019 02:45:17 17.6 C 40 %
15 30-08-2019 02:57:17 17.4 C 40 %
16 30-08-2019 03:09:18 17.3 C 40 %
17 30-08-2019 03:21:17 17.3 C 40 %
18 30-08-2019 03:33:18 17 C 41 %
19 30-08-2019 03:45:17 17.1 C 42 %
20 30-08-2019 03:57:17 17.1 C 42 %
21 30-08-2019 04:09:18 16.8 C 42 %
22 30-08-2019 04:21:17 16.6 C 42 %
23 30-08-2019 04:33:17 16.3 C 43 %
24 30-08-2019 04:45:17 16 C 43 %
25 30-08-2019 04:57:17 15.9 C 45 %
Sensor: Nr:Datum:Temp:Feuchte:
Aussen-T/F 26 30-08-2019 05:09:18 15.6 C 45 %
27 30-08-2019 05:21:17 15.6 C 45 %
28 30-08-2019 05:33:17 15.6 C 46 %
29 30-08-2019 05:45:17 16.5 C 46 %
30 30-08-2019 05:57:17 16.8 C 45 %
31 30-08-2019 06:09:17 16.5 C 44 %
32 30-08-2019 06:21:18 15.9 C 44 %
33 30-08-2019 06:33:17 15.8 C 43 %
34 30-08-2019 06:45:17 15.4 C 45 %
35 30-08-2019 06:57:17 15.4 C 45 %
36 30-08-2019 07:09:17 15.3 C 46 %
37 30-08-2019 07:21:18 15.3 C 46 %
38 30-08-2019 07:33:17 15.4 C 46 %
39 30-08-2019 07:45:17 15.4 C 46 %
40 30-08-2019 07:57:17 16 C 45 %
41 30-08-2019 08:09:17 16 C 45 %
42 30-08-2019 08:21:18 16 C 45 %
43 30-08-2019 08:33:17 16.7 C 45 %
44 30-08-2019 08:45:17 17.4 C 44 %
45 30-08-2019 08:57:17 17.6 C 44 %
46 30-08-2019 09:09:17 18.3 C 34 %
47 30-08-2019 09:21:17 18.7 C 33 %
48 30-08-2019 09:33:17 19.3 C 31 %
49 30-08-2019 09:45:17 19.3 C 31 %
50 30-08-2019 09:57:17 19.5 C 28 %
Sensor: Nr:Datum:Temp:Feuchte:
Aussen-T/F 51 30-08-2019 10:09:18 19.6 C 28 %
52 30-08-2019 10:21:17 19.7 C 28 %
53 30-08-2019 10:33:18 20 C 27 %
54 30-08-2019 10:45:17 20.4 C 27 %
55 30-08-2019 10:57:17 20.4 C 27 %
56 30-08-2019 11:09:18 21.3 C 25 %
57 30-08-2019 11:21:17 21.4 C 24 %
58 30-08-2019 11:33:18 21.7 C 23 %
59 30-08-2019 11:45:17 21.7 C 23 %
60 30-08-2019 11:57:17 22 C 22 %
61 30-08-2019 12:09:18 22.2 C 21 %
62 30-08-2019 12:21:17 22.4 C 21 %
63 30-08-2019 12:33:17 22.7 C 21 %
64 30-08-2019 12:45:18 22.9 C 21 %
65 30-08-2019 12:57:18 23 C 20 %
66 30-08-2019 13:09:17 23 C 20 %
67 30-08-2019 13:21:17 23.6 C 20 %
68 30-08-2019 13:33:17 24.1 C 20 %
69 30-08-2019 13:45:17 24.5 C 20 %
70 30-08-2019 13:57:18 24.6 C 20 %
71 30-08-2019 14:09:17 25.1 C 20 %
72 30-08-2019 14:21:17 25.5 C 20 %
73 30-08-2019 14:33:17 25.7 C 20 %
74 30-08-2019 14:45:18 26 C 20 %
75 30-08-2019 14:57:18 26.5 C 20 %
Sensor: Nr:Datum:Temp:Feuchte:
Aussen-T/F 76 30-08-2019 15:09:17 26.8 C 20 %
77 30-08-2019 15:21:17 27.3 C 20 %
78 30-08-2019 15:33:17 27.8 C 20 %
79 30-08-2019 15:45:18 28.1 C 20 %
80 30-08-2019 15:57:18 28.3 C 20 %
81 30-08-2019 16:09:17 28.2 C 20 %
82 30-08-2019 16:21:17 28.5 C 20 %
83 30-08-2019 16:33:17 28.8 C 20 %
84 30-08-2019 16:45:18 29 C 20 %
85 30-08-2019 16:57:18 29.7 C 20 %
86 30-08-2019 17:09:17 29.9 C 20 %
87 30-08-2019 17:21:17 29.6 C 20 %
88 30-08-2019 17:33:17 30 C 20 %
89 30-08-2019 17:45:18 29.8 C 20 %
90 30-08-2019 17:57:18 30.4 C 20 %
91 30-08-2019 18:09:17 30.8 C 20 %
92 30-08-2019 18:21:17 29.4 C 20 %
93 30-08-2019 18:33:17 29.4 C 20 %
94 30-08-2019 18:45:17 29 C 20 %
95 30-08-2019 18:57:18 28.7 C 20 %
96 30-08-2019 19:09:17 28.3 C 20 %
97 30-08-2019 19:21:17 27.3 C 20 %
98 30-08-2019 19:33:17 25.6 C 20 %
99 30-08-2019 19:45:18 24.9 C 20 %
100 30-08-2019 19:57:18 23.7 C 20 %
Sensor: Nr:Datum:Temp:Feuchte:
Aussen-T/F 101 30-08-2019 20:09:17 22.8 C 20 %
102 30-08-2019 20:21:18 22.2 C 20 %
103 30-08-2019 20:33:17 21.8 C 20 %
104 30-08-2019 20:45:18 21.4 C 20 %
105 30-08-2019 20:57:18 21 C 20 %
106 30-08-2019 21:09:17 20.6 C 20 %
107 30-08-2019 21:21:17 20.1 C 20 %
108 30-08-2019 21:33:17 19.5 C 20 %
109 30-08-2019 21:45:18 19.1 C 20 %
110 30-08-2019 21:57:18 18.9 C 22 %
111 30-08-2019 22:09:17 18.5 C 23 %
112 30-08-2019 22:21:17 18.3 C 25 %
113 30-08-2019 22:33:17 18 C 25 %
114 30-08-2019 22:45:17 17.8 C 25 %
115 30-08-2019 22:57:18 17.7 C 26 %
116 30-08-2019 23:09:17 17.3 C 27 %
117 30-08-2019 23:21:17 17 C 27 %
118 30-08-2019 23:33:17 17.2 C 28 %
119 30-08-2019 23:45:17 16.8 C 29 %
120 30-08-2019 23:57:17 16.6 C 30 %
121 31-08-2019 00:09:17 16.7 C 30 %
122 31-08-2019 00:21:17 16.4 C 30 %
123 31-08-2019 00:33:17 16.2 C 32 %
124 31-08-2019 00:45:17 16.1 C 33 %
125 31-08-2019 00:57:17 16 C 34 %
Sensor: Nr:Datum:Temp:Feuchte:
Aussen-T/F 126 31-08-2019 01:09:17 15.7 C 35 %
127 31-08-2019 01:21:18 15.6 C 35 %
128 31-08-2019 01:33:17 15.6 C 35 %
129 31-08-2019 01:45:17 15.5 C 36 %
130 31-08-2019 01:57:17 15.3 C 36 %
131 31-08-2019 02:09:17 15.2 C 37 %
132 31-08-2019 02:21:17 15.1 C 37 %
133 31-08-2019 02:33:17 15 C 37 %
134 31-08-2019 02:45:17 14.9 C 39 %
135 31-08-2019 02:57:17 14.8 C 40 %
136 31-08-2019 03:09:17 14.7 C 40 %
137 31-08-2019 03:21:17 14.7 C 41 %
138 31-08-2019 03:33:18 14.5 C 41 %
139 31-08-2019 03:45:17 14.5 C 41 %
140 31-08-2019 03:57:17 14.4 C 41 %
141 31-08-2019 04:09:18 14.4 C 41 %
142 31-08-2019 04:21:17 14.3 C 42 %
143 31-08-2019 04:33:18 14.3 C 42 %
144 31-08-2019 04:45:17 14.2 C 42 %
145 31-08-2019 04:57:17 14.2 C 43 %
146 31-08-2019 05:09:18 14.1 C 42 %
147 31-08-2019 05:21:17 14.3 C 43 %
148 31-08-2019 05:33:17 14.5 C 44 %
149 31-08-2019 05:45:17 14.6 C 43 %
150 31-08-2019 05:57:17 14.7 C 44 %
Sensor: Nr:Datum:Temp:Feuchte:
Aussen-T/F 151 31-08-2019 06:09:18 14.6 C 43 %
152 31-08-2019 06:21:17 14.4 C 43 %
153 31-08-2019 06:33:17 14.1 C 43 %
154 31-08-2019 06:45:18 14.1 C 43 %
155 31-08-2019 06:57:18 14.1 C 45 %
156 31-08-2019 07:09:17 14.2 C 44 %
157 31-08-2019 07:21:17 14.3 C 44 %
158 31-08-2019 07:33:17 14.4 C 44 %
159 31-08-2019 07:45:17 14.7 C 44 %
160 31-08-2019 07:57:17 14.8 C 43 %
161 31-08-2019 08:09:17 14.9 C 43 %
162 31-08-2019 08:21:18 15 C 42 %
163 31-08-2019 08:33:17 15.3 C 42 %
164 31-08-2019 08:45:17 15.4 C 42 %
165 31-08-2019 08:57:17 15.6 C 42 %
166 31-08-2019 09:09:17 15.9 C 42 %
167 31-08-2019 09:21:17 16.3 C 41 %
168 31-08-2019 09:33:18 16.6 C 40 %
169 31-08-2019 09:45:17 16.9 C 39 %
170 31-08-2019 09:57:17 17.1 C 38 %
171 31-08-2019 10:09:18 17.6 C 36 %
172 31-08-2019 10:21:17 18.2 C 34 %
173 31-08-2019 10:33:18 18.7 C 31 %
174 31-08-2019 10:45:17 19.3 C 30 %
175 31-08-2019 10:57:17 20 C 29 %
Sensor: Nr:Datum:Temp:Feuchte:
Aussen-T/F 176 31-08-2019 11:09:18 20.9 C 27 %
177 31-08-2019 11:21:17 21 C 26 %
178 31-08-2019 11:33:18 21.2 C 26 %
179 31-08-2019 11:45:17 21.9 C 25 %
180 31-08-2019 11:57:17 22.6 C 25 %
181 31-08-2019 12:09:18 22.7 C 25 %
182 31-08-2019 12:21:17 22.7 C 25 %
183 31-08-2019 12:33:17 24.3 C 21 %
184 31-08-2019 12:45:17 24.8 C 21 %
185 31-08-2019 12:57:17 25.1 C 20 %
186 31-08-2019 13:09:18 26.9 C 20 %
187 31-08-2019 13:21:17 27.9 C 20 %
188 31-08-2019 13:33:17 28.5 C 20 %
189 31-08-2019 13:45:17 28.9 C 20 %
190 31-08-2019 13:57:17 29.3 C 20 %
191 31-08-2019 14:09:17 29.6 C 20 %
192 31-08-2019 14:21:17 30 C 20 %
193 31-08-2019 14:33:18 30.9 C 20 %
194 31-08-2019 14:45:17 31.1 C 20 %
195 31-08-2019 14:57:17 31 C 20 %
196 31-08-2019 15:09:18 31.4 C 20 %
197 31-08-2019 15:21:17 31.5 C 20 %
198 31-08-2019 15:33:18 32.2 C 20 %
199 31-08-2019 15:45:17 32.6 C 20 %
200 31-08-2019 15:57:17 33.1 C 20 %
Sensor: Nr:Datum:Temp:Feuchte:
Aussen-T/F 201 31-08-2019 16:09:18 32.2 C 20 %
202 31-08-2019 16:21:17 32.2 C 20 %
203 31-08-2019 16:33:17 33 C 20 %
204 31-08-2019 16:45:17 32.8 C 20 %
205 31-08-2019 16:57:17 33.3 C 20 %
206 31-08-2019 17:09:17 33.9 C 20 %
207 31-08-2019 17:21:17 34.5 C 20 %
208 31-08-2019 17:33:17 34 C 20 %
209 31-08-2019 17:45:17 34.2 C 20 %
210 31-08-2019 17:57:17 34.4 C 20 %
211 31-08-2019 18:09:17 34.4 C 20 %
212 31-08-2019 18:21:18 33.8 C 20 %
213 31-08-2019 18:33:17 33.4 C 20 %
214 31-08-2019 18:45:18 33.2 C 20 %
215 31-08-2019 18:57:18 32.7 C 20 %
216 31-08-2019 19:09:17 31.7 C 20 %
217 31-08-2019 19:21:17 30.1 C 20 %
218 31-08-2019 19:33:17 28.8 C 20 %
219 31-08-2019 19:45:17 27.9 C 20 %
220 31-08-2019 19:57:17 27.5 C 20 %
221 31-08-2019 20:09:17 26.3 C 20 %
222 31-08-2019 20:21:17 25 C 20 %
223 31-08-2019 20:33:17 24.5 C 20 %
224 31-08-2019 20:45:17 24.4 C 20 %
225 31-08-2019 20:57:17 23.9 C 20 %
Sensor: Nr:Datum:Temp:Feuchte:
Aussen-T/F 226 31-08-2019 21:09:17 24 C 20 %
227 31-08-2019 21:21:17 24.3 C 20 %
228 31-08-2019 21:33:18 24.4 C 20 %
229 31-08-2019 21:45:17 24.4 C 20 %
230 31-08-2019 21:57:17 27.1 C 20 %
231 31-08-2019 22:09:17 26 C 20 %
232 31-08-2019 22:21:17 23.5 C 23 %
233 31-08-2019 22:33:18 21.7 C 32 %
234 31-08-2019 22:45:17 20.9 C 40 %
235 31-08-2019 22:57:17 20.6 C 47 %
236 31-08-2019 23:09:18 20 C 45 %
237 31-08-2019 23:21:17 19.7 C 45 %
238 31-08-2019 23:33:18 19.7 C 45 %
239 31-08-2019 23:45:17 19.8 C 45 %
240 31-08-2019 23:57:17 19.7 C 45 %
241 01-09-2019 00:09:18 19.7 C 45 %
242 01-09-2019 00:21:17 19.7 C 45 %
243 01-09-2019 00:33:18 19.4 C 44 %
244 01-09-2019 00:45:17 19.3 C 45 %
245 01-09-2019 00:57:17 19.3 C 46 %
246 01-09-2019 01:09:17 19.6 C 44 %
247 01-09-2019 01:21:17 19.5 C 41 %
248 01-09-2019 01:33:17 19.5 C 40 %
249 01-09-2019 01:45:17 19.7 C 37 %
250 01-09-2019 01:57:17 19.5 C 36 %
Sensor: Nr:Datum:Temp:Feuchte:
Aussen-T/F 251 01-09-2019 02:09:17 19.3 C 36 %
252 01-09-2019 02:21:17 19.2 C 35 %
253 01-09-2019 02:33:18 18.7 C 36 %
254 01-09-2019 02:45:17 18.2 C 37 %
255 01-09-2019 02:57:17 18 C 38 %
256 01-09-2019 03:09:18 17.9 C 39 %
257 01-09-2019 03:21:17 17.7 C 40 %
258 01-09-2019 03:33:17 17.8 C 36 %
259 01-09-2019 03:45:17 18 C 31 %
260 01-09-2019 03:57:17 17.5 C 32 %
261 01-09-2019 04:09:18 17.4 C 32 %
262 01-09-2019 04:21:17 17.9 C 31 %
263 01-09-2019 04:33:17 17.2 C 32 %
264 01-09-2019 04:45:18 16.9 C 34 %
265 01-09-2019 04:57:18 17 C 33 %
266 01-09-2019 05:09:17 17.6 C 30 %
267 01-09-2019 05:21:18 18.1 C 27 %
268 01-09-2019 05:33:17 18.2 C 26 %
269 01-09-2019 05:45:18 18.2 C 27 %
270 01-09-2019 05:57:18 17.8 C 28 %
271 01-09-2019 06:09:17 17.8 C 27 %
272 01-09-2019 06:21:17 17.8 C 27 %
273 01-09-2019 06:33:18 16.5 C 32 %
274 01-09-2019 06:45:17 16.1 C 34 %
275 01-09-2019 06:57:17 15.9 C 36 %
Sensor: Nr:Datum:Temp:Feuchte:
Aussen-T/F 276 01-09-2019 07:09:17 15.8 C 36 %
277 01-09-2019 07:21:17 15.7 C 38 %
278 01-09-2019 07:33:17 15.9 C 39 %
279 01-09-2019 07:45:17 16.5 C 37 %
280 01-09-2019 07:57:17 17.7 C 30 %
281 01-09-2019 08:09:17 17.9 C 30 %
282 01-09-2019 08:21:17 18 C 29 %
283 01-09-2019 08:33:17 18.3 C 28 %
284 01-09-2019 08:45:17 18.2 C 27 %
285 01-09-2019 08:57:17 18.2 C 29 %
286 01-09-2019 09:09:17 18.3 C 27 %
287 01-09-2019 09:21:17 18.7 C 27 %
288 01-09-2019 09:33:17 18.9 C 27 %
289 01-09-2019 09:45:17 18.9 C 26 %
290 01-09-2019 09:57:18 19.3 C 24 %
291 01-09-2019 10:09:17 19.4 C 24 %
292 01-09-2019 10:21:17 19.5 C 24 %
293 01-09-2019 10:33:18 19.6 C 23 %
294 01-09-2019 10:45:17 20.2 C 22 %
295 01-09-2019 10:57:17 20.4 C 21 %
296 01-09-2019 11:09:17 20.4 C 21 %
297 01-09-2019 11:21:17 20.5 C 21 %
298 01-09-2019 11:33:17 20.8 C 21 %
299 01-09-2019 11:45:17 20.7 C 21 %
300 01-09-2019 11:57:17 20.6 C 22 %
Sensor: Nr:Datum:Temp:Feuchte:
Aussen-T/F 301 01-09-2019 12:09:18 19.9 C 23 %
302 01-09-2019 12:21:17 19.9 C 24 %
303 01-09-2019 12:33:17 20.4 C 22 %
304 01-09-2019 12:45:17 20.9 C 22 %
305 01-09-2019 12:57:17 21.7 C 20 %
306 01-09-2019 13:09:17 20.4 C 24 %
307 01-09-2019 13:21:17 19.5 C 28 %
308 01-09-2019 13:33:17 19.7 C 26 %
309 01-09-2019 13:45:18 19.8 C 25 %
310 01-09-2019 13:57:18 19.8 C 25 %
311 01-09-2019 14:09:17 20.6 C 22 %
312 01-09-2019 14:21:17 20.7 C 22 %
313 01-09-2019 14:33:17 21.1 C 21 %
314 01-09-2019 14:45:18 21.2 C 20 %
315 01-09-2019 14:57:18 21.2 C 20 %
316 01-09-2019 15:09:17 21.1 C 20 %
317 01-09-2019 15:21:17 21.1 C 20 %
318 01-09-2019 15:33:17 21.1 C 20 %
319 01-09-2019 15:45:17 21 C 20 %
320 01-09-2019 15:57:17 21.2 C 20 %
321 01-09-2019 16:09:17 21 C 20 %
322 01-09-2019 16:21:17 21 C 20 %
323 01-09-2019 16:33:17 20.8 C 20 %
324 01-09-2019 16:45:17 20.7 C 20 %
325 01-09-2019 16:57:17 20.5 C 20 %
Sensor: Nr:Datum:Temp:Feuchte:
Aussen-T/F 326 01-09-2019 17:09:17 20.4 C 20 %
327 01-09-2019 17:21:17 20.4 C 20 %
328 01-09-2019 17:33:17 20.4 C 20 %
329 01-09-2019 17:45:17 20.4 C 20 %
330 01-09-2019 17:57:17 20.4 C 20 %
331 01-09-2019 18:09:17 20.5 C 20 %
332 01-09-2019 18:21:18 21.3 C 20 %
333 01-09-2019 18:33:17 21.7 C 20 %
334 01-09-2019 18:45:18 22.1 C 20 %
335 01-09-2019 18:57:18 21.8 C 20 %
336 01-09-2019 19:09:17 21.2 C 20 %
337 01-09-2019 19:21:17 20.4 C 20 %
338 01-09-2019 19:33:17 20.2 C 20 %
339 01-09-2019 19:45:17 19.8 C 20 %
340 01-09-2019 19:57:17 19.5 C 20 %
341 01-09-2019 20:09:17 19.5 C 20 %
342 01-09-2019 20:21:17 18.2 C 20 %
343 01-09-2019 20:33:17 17.1 C 20 %
344 01-09-2019 20:45:18 16.6 C 22 %
345 01-09-2019 20:57:18 16.5 C 24 %
346 01-09-2019 21:09:17 16.8 C 23 %
347 01-09-2019 21:21:17 16.7 C 23 %
348 01-09-2019 21:33:17 16.7 C 22 %
349 01-09-2019 21:45:17 16.7 C 22 %
350 01-09-2019 21:57:17 16.6 C 24 %
Sensor: Nr:Datum:Temp:Feuchte:
Aussen-T/F 351 01-09-2019 22:09:17 16.4 C 22 %
352 01-09-2019 22:21:18 16.3 C 23 %
353 01-09-2019 22:33:17 16.3 C 22 %
354 01-09-2019 22:45:17 16.1 C 22 %
355 01-09-2019 22:57:17 15.8 C 25 %
356 01-09-2019 23:09:17 15.7 C 25 %
357 01-09-2019 23:21:17 15.4 C 26 %
358 01-09-2019 23:33:17 15.4 C 26 %
359 01-09-2019 23:45:17 15.4 C 26 %
360 01-09-2019 23:57:18 15 C 26 %
361 02-09-2019 00:09:17 14.4 C 27 %
362 02-09-2019 00:21:18 14.2 C 27 %
363 02-09-2019 00:33:17 14.1 C 26 %
364 02-09-2019 00:45:18 14 C 26 %
365 02-09-2019 00:57:18 13.7 C 28 %
366 02-09-2019 01:09:17 13.5 C 29 %
367 02-09-2019 01:21:18 13.2 C 27 %
368 02-09-2019 01:33:17 13 C 28 %
369 02-09-2019 01:45:18 13 C 29 %
370 02-09-2019 01:57:18 13.2 C 30 %
371 02-09-2019 02:09:17 13.5 C 28 %
372 02-09-2019 02:21:17 13.7 C 30 %
373 02-09-2019 02:33:18 13.8 C 30 %
374 02-09-2019 02:45:17 13.8 C 31 %
375 02-09-2019 02:57:17 13.6 C 31 %
Sensor: Nr:Datum:Temp:Feuchte:
Aussen-T/F 376 02-09-2019 03:09:17 13.5 C 33 %
377 02-09-2019 03:21:17 13.4 C 34 %
378 02-09-2019 03:33:17 12.8 C 35 %
379 02-09-2019 03:45:18 12.5 C 36 %
380 02-09-2019 03:57:18 12.3 C 36 %
381 02-09-2019 04:09:17 12.2 C 35 %
382 02-09-2019 04:21:17 11.9 C 37 %
383 02-09-2019 04:33:17 11.8 C 37 %
384 02-09-2019 04:45:17 11.9 C 37 %
385 02-09-2019 04:57:17 11.7 C 37 %
386 02-09-2019 05:09:17 11.5 C 39 %
387 02-09-2019 05:21:17 11.1 C 39 %
388 02-09-2019 05:33:17 10.9 C 41 %
389 02-09-2019 05:45:17 10.8 C 42 %
390 02-09-2019 05:57:17 10.5 C 43 %
391 02-09-2019 06:09:17 10.2 C 43 %
392 02-09-2019 06:21:17 10 C 45 %
393 02-09-2019 06:33:18 9.8 C 46 %
394 02-09-2019 06:45:17 9.7 C 46 %
395 02-09-2019 06:57:17 9.7 C 46 %
396 02-09-2019 07:09:17 9.7 C 47 %
397 02-09-2019 07:21:17 9.8 C 47 %
398 02-09-2019 07:33:17 9.9 C 47 %
399 02-09-2019 07:45:17 10 C 46 %
400 02-09-2019 07:57:17 10.1 C 47 %
Sensor: Nr:Datum:Temp:Feuchte:
Aussen-T/F 401 02-09-2019 08:09:18 10.1 C 46 %
402 02-09-2019 08:21:17 10.2 C 47 %
403 02-09-2019 08:33:18 10.3 C 47 %
404 02-09-2019 08:45:17 10.6 C 47 %
405 02-09-2019 08:57:17 10.6 C 46 %
406 02-09-2019 09:09:18 10.9 C 46 %
407 02-09-2019 09:21:17 10.9 C 46 %
408 02-09-2019 09:33:18 11.2 C 44 %
409 02-09-2019 09:45:17 11.3 C 44 %
410 02-09-2019 09:57:17 11.9 C 42 %
411 02-09-2019 10:09:17 12.5 C 39 %
412 02-09-2019 10:21:17 13 C 36 %
413 02-09-2019 10:33:17 14 C 32 %
414 02-09-2019 10:45:17 14.5 C 31 %
415 02-09-2019 10:57:17 15.4 C 25 %
416 02-09-2019 11:09:17 16.4 C 20 %
417 02-09-2019 11:21:17 16.9 C 20 %
418 02-09-2019 11:33:17 17.4 C 20 %
419 02-09-2019 11:45:18 17.2 C 20 %
420 02-09-2019 11:57:18 17.5 C 20 %
421 02-09-2019 12:09:17 17.5 C 20 %
422 02-09-2019 12:21:17 17.7 C 20 %
423 02-09-2019 12:33:17 17.9 C 20 %
424 02-09-2019 12:45:17 17.9 C 20 %
425 02-09-2019 12:57:17 18 C 20 %
Sensor: Nr:Datum:Temp:Feuchte:
Aussen-T/F 426 02-09-2019 13:09:17 18.1 C 20 %
427 02-09-2019 13:21:17 18.5 C 20 %
428 02-09-2019 13:33:17 18.8 C 20 %
429 02-09-2019 13:45:17 19.2 C 20 %
430 02-09-2019 13:57:17 19.5 C 20 %
431 02-09-2019 14:09:17 19.6 C 20 %
432 02-09-2019 14:21:18 20 C 20 %
433 02-09-2019 14:33:17 20.4 C 20 %
434 02-09-2019 14:45:18 20.1 C 20 %
435 02-09-2019 14:57:18 20.4 C 20 %
436 02-09-2019 15:09:17 20.9 C 20 %
437 02-09-2019 15:21:17 20.7 C 20 %
438 02-09-2019 15:33:17 19.9 C 20 %
439 02-09-2019 15:45:18 20.8 C 20 %
440 02-09-2019 15:57:18 21.8 C 20 %
441 02-09-2019 16:09:17 22.3 C 20 %
442 02-09-2019 16:21:17 22.7 C 20 %
443 02-09-2019 16:33:17 22.9 C 20 %
444 02-09-2019 16:45:17 22.5 C 20 %
445 02-09-2019 16:57:17 23 C 20 %
446 02-09-2019 17:09:18 23.2 C 20 %
447 02-09-2019 17:21:17 23.6 C 20 %
448 02-09-2019 17:33:17 23 C 20 %
449 02-09-2019 17:45:17 23.2 C 20 %
450 02-09-2019 17:57:17 23.6 C 20 %
Sensor: Nr:Datum:Temp:Feuchte:
Aussen-T/F 451 02-09-2019 18:09:18 23.1 C 20 %
452 02-09-2019 18:21:17 22.8 C 20 %
453 02-09-2019 18:33:18 23.5 C 20 %
454 02-09-2019 18:45:17 23.2 C 20 %
455 02-09-2019 18:57:17 23 C 20 %
456 02-09-2019 19:09:18 22.5 C 20 %
457 02-09-2019 19:21:17 20.1 C 20 %
458 02-09-2019 19:33:17 18.8 C 20 %
459 02-09-2019 19:45:17 17.5 C 20 %
460 02-09-2019 19:57:17 17.2 C 20 %
461 02-09-2019 20:09:17 17.2 C 20 %
462 02-09-2019 20:21:18 16.9 C 20 %
463 02-09-2019 20:33:17 16.1 C 20 %
464 02-09-2019 20:45:18 15.9 C 20 %
465 02-09-2019 20:57:18 15.4 C 20 %
466 02-09-2019 21:09:17 15.1 C 20 %
467 02-09-2019 21:21:17 14.9 C 20 %
468 02-09-2019 21:33:17 14.8 C 20 %
469 02-09-2019 21:45:17 14.3 C 20 %
470 02-09-2019 21:57:17 13.5 C 20 %
471 02-09-2019 22:09:18 13.3 C 20 %
472 02-09-2019 22:21:17 13 C 20 %
473 02-09-2019 22:33:18 13.1 C 20 %
474 02-09-2019 22:45:17 13.2 C 20 %
475 02-09-2019 22:57:17 13.3 C 21 %
Sensor: Nr:Datum:Temp:Feuchte:
Aussen-T/F 476 02-09-2019 23:09:18 13.1 C 21 %
477 02-09-2019 23:21:17 13 C 22 %
478 02-09-2019 23:33:18 12.9 C 24 %
479 02-09-2019 23:45:17 12.8 C 25 %
480 02-09-2019 23:57:17 12.8 C 25 %
481 03-09-2019 00:09:18 12.4 C 25 %
482 03-09-2019 00:21:17 12.5 C 26 %
483 03-09-2019 00:33:18 12.1 C 25 %
484 03-09-2019 00:45:17 12.2 C 26 %
485 03-09-2019 00:57:17 12.3 C 27 %
486 03-09-2019 01:09:17 12.2 C 26 %
487 03-09-2019 01:21:17 12.5 C 27 %
488 03-09-2019 01:33:18 12.3 C 27 %
489 03-09-2019 01:45:17 11.8 C 27 %
490 03-09-2019 01:57:17 11.4 C 27 %
491 03-09-2019 02:09:18 10.9 C 30 %
492 03-09-2019 02:21:17 10.8 C 30 %
493 03-09-2019 02:33:18 10.5 C 32 %
494 03-09-2019 02:45:17 10.4 C 32 %
495 03-09-2019 02:57:17 10.2 C 32 %
496 03-09-2019 03:09:17 10 C 32 %
497 03-09-2019 03:21:17 10 C 33 %
498 03-09-2019 03:33:18 10.1 C 35 %
499 03-09-2019 03:45:17 9.8 C 35 %
500 03-09-2019 03:57:17 10 C 35 %
Sensor: Nr:Datum:Temp:Feuchte:
Aussen-T/F 501 03-09-2019 04:09:17 10.2 C 36 %
502 03-09-2019 04:21:17 10.3 C 36 %
503 03-09-2019 04:33:17 10.3 C 35 %
504 03-09-2019 04:45:18 10.2 C 35 %
505 03-09-2019 04:57:18 9.8 C 35 %
506 03-09-2019 05:09:17 9.4 C 36 %
507 03-09-2019 05:21:17 9.3 C 37 %
508 03-09-2019 05:33:17 9 C 37 %
509 03-09-2019 05:45:17 9.3 C 40 %
510 03-09-2019 05:57:18 9.3 C 40 %
511 03-09-2019 06:09:17 9.1 C 40 %
512 03-09-2019 06:21:17 8.8 C 40 %
513 03-09-2019 06:33:17 8.6 C 40 %
514 03-09-2019 06:45:17 8.5 C 41 %
515 03-09-2019 06:57:17 8.4 C 42 %
516 03-09-2019 07:09:17 8.5 C 42 %
517 03-09-2019 07:21:17 8.7 C 43 %
518 03-09-2019 07:33:17 8.9 C 43 %
519 03-09-2019 07:45:17 8.8 C 43 %
520 03-09-2019 07:57:17 9 C 42 %
521 03-09-2019 08:09:17 9.2 C 43 %
522 03-09-2019 08:21:18 9.3 C 42 %
523 03-09-2019 08:33:17 9.5 C 42 %
524 03-09-2019 08:45:18 9.6 C 41 %
525 03-09-2019 08:57:18 9.8 C 41 %
Sensor: Nr:Datum:Temp:Feuchte:
Aussen-T/F 526 03-09-2019 09:09:17 10.1 C 41 %
527 03-09-2019 09:21:17 10.4 C 40 %
528 03-09-2019 09:33:17 10.9 C 39 %
529 03-09-2019 09:45:18 11.2 C 37 %
530 03-09-2019 09:57:18 11.7 C 36 %
531 03-09-2019 10:09:17 12.4 C 34 %
532 03-09-2019 10:21:18 13.3 C 31 %
533 03-09-2019 10:33:17 14 C 27 %
534 03-09-2019 10:45:17 15.1 C 21 %
535 03-09-2019 10:57:17 16.2 C 20 %
536 03-09-2019 11:09:17 16.6 C 20 %
537 03-09-2019 11:21:18 16.6 C 20 %
538 03-09-2019 11:33:17 18.9 C 20 %
539 03-09-2019 11:45:17 18.7 C 20 %
540 03-09-2019 11:57:17 19.6 C 20 %
541 03-09-2019 12:09:17 19.4 C 20 %
542 03-09-2019 12:21:18 19.7 C 20 %
543 03-09-2019 12:33:17 20 C 20 %
544 03-09-2019 12:45:17 20.1 C 20 %
545 03-09-2019 12:57:17 20.5 C 20 %
546 03-09-2019 13:09:17 20.6 C 20 %
547 03-09-2019 13:21:17 21 C 20 %
548 03-09-2019 13:33:17 21.3 C 20 %
549 03-09-2019 13:45:17 21.7 C 20 %
550 03-09-2019 13:57:17 21.9 C 20 %
Sensor: Nr:Datum:Temp:Feuchte:
Aussen-T/F 551 03-09-2019 14:09:17 22.2 C 20 %
552 03-09-2019 14:21:18 22.5 C 20 %
553 03-09-2019 14:33:17 22.9 C 20 %
554 03-09-2019 14:45:17 23.3 C 20 %
555 03-09-2019 14:57:18 23.8 C 20 %
556 03-09-2019 15:09:17 24.2 C 20 %
557 03-09-2019 15:21:17 24.9 C 20 %
558 03-09-2019 15:33:17 25.6 C 20 %
559 03-09-2019 15:45:17 24.1 C 20 %
560 03-09-2019 15:57:17 23.9 C 20 %
561 03-09-2019 16:09:17 23.8 C 20 %
562 03-09-2019 16:21:17 23.5 C 20 %
563 03-09-2019 16:33:17 24.9 C 20 %
564 03-09-2019 16:45:18 23.9 C 20 %
565 03-09-2019 16:57:18 23.8 C 20 %
566 03-09-2019 17:09:17 23.1 C 20 %
567 03-09-2019 17:21:18 24.8 C 20 %
568 03-09-2019 17:33:17 24.2 C 20 %
569 03-09-2019 17:45:17 24.3 C 20 %
570 03-09-2019 17:57:17 24.1 C 20 %
571 03-09-2019 18:09:17 24.5 C 20 %
572 03-09-2019 18:21:17 23.9 C 20 %
573 03-09-2019 18:33:17 23 C 20 %
574 03-09-2019 18:45:18 23.1 C 20 %
575 03-09-2019 18:57:18 21.9 C 20 %
Sensor: Nr:Datum:Temp:Feuchte:
Aussen-T/F 576 03-09-2019 19:09:17 21.5 C 20 %
577 03-09-2019 19:21:17 21.3 C 20 %
578 03-09-2019 19:33:17 20.9 C 20 %
579 03-09-2019 19:45:17 20.5 C 20 %
580 03-09-2019 19:57:17 20.2 C 20 %
581 03-09-2019 20:09:18 19.8 C 20 %
582 03-09-2019 20:21:17 19.4 C 20 %
583 03-09-2019 20:33:18 17.8 C 20 %
584 03-09-2019 20:45:17 17.2 C 20 %
585 03-09-2019 20:57:17 16.3 C 23 %
586 03-09-2019 21:09:18 16.1 C 25 %
587 03-09-2019 21:21:17 15.7 C 26 %
588 03-09-2019 21:33:17 15.6 C 27 %
589 03-09-2019 21:45:17 15.5 C 27 %
590 03-09-2019 21:57:17 15.4 C 28 %
591 03-09-2019 22:09:18 15.3 C 28 %
592 03-09-2019 22:21:17 15 C 28 %
593 03-09-2019 22:33:17 15 C 30 %
594 03-09-2019 22:45:17 14.8 C 31 %
595 03-09-2019 22:57:17 14.3 C 31 %
596 03-09-2019 23:09:17 14 C 33 %
597 03-09-2019 23:21:17 13.7 C 35 %
598 03-09-2019 23:33:17 13.5 C 36 %
599 03-09-2019 23:45:17 13.3 C 37 %
600 03-09-2019 23:57:17 13.1 C 38 %
Sensor: Nr:Datum:Temp:Feuchte:
Aussen-T/F 601 04-09-2019 00:09:17 13 C 38 %
602 04-09-2019 00:21:17 12.8 C 40 %
603 04-09-2019 00:33:17 12.7 C 40 %
604 04-09-2019 00:45:18 12.5 C 41 %
605 04-09-2019 00:57:18 12.3 C 41 %
606 04-09-2019 01:09:17 12.2 C 42 %
607 04-09-2019 01:21:17 12.2 C 42 %
608 04-09-2019 01:33:17 12.1 C 43 %
609 04-09-2019 01:45:17 12 C 43 %
610 04-09-2019 01:57:17 11.9 C 44 %
611 04-09-2019 02:09:17 11.7 C 45 %
612 04-09-2019 02:21:17 11.8 C 45 %
613 04-09-2019 02:33:17 11.7 C 45 %
614 04-09-2019 02:45:17 11.4 C 45 %
615 04-09-2019 02:57:17 11.4 C 46 %
616 04-09-2019 03:09:17 11.4 C 46 %
617 04-09-2019 03:21:17 11.3 C 46 %
618 04-09-2019 03:33:17 11.2 C 46 %
619 04-09-2019 03:45:18 11 C 46 %
620 04-09-2019 03:57:18 10.8 C 47 %
621 04-09-2019 04:09:17 10.9 C 47 %
622 04-09-2019 04:21:17 10.7 C 48 %
623 04-09-2019 04:33:17 10.5 C 48 %
624 04-09-2019 04:45:17 10.6 C 48 %
625 04-09-2019 04:57:17 10.6 C 49 %
Sensor: Nr:Datum:Temp:Feuchte:
Aussen-T/F 626 04-09-2019 05:09:18 10.4 C 48 %
627 04-09-2019 05:21:17 10.3 C 48 %
628 04-09-2019 05:33:18 10.3 C 48 %
629 04-09-2019 05:45:17 10.3 C 49 %
630 04-09-2019 05:57:17 10.1 C 48 %
631 04-09-2019 06:09:17 10 C 48 %
632 04-09-2019 06:21:17 9.9 C 49 %
633 04-09-2019 06:33:17 10.2 C 50 %
634 04-09-2019 06:45:18 10.4 C 50 %
635 04-09-2019 06:57:18 10.2 C 49 %
636 04-09-2019 07:09:17 10.1 C 48 %
637 04-09-2019 07:21:17 10.1 C 49 %
638 04-09-2019 07:33:17 10.1 C 49 %
639 04-09-2019 07:45:17 10.2 C 49 %
640 04-09-2019 07:57:17 10.3 C 49 %
641 04-09-2019 08:09:17 10.4 C 49 %
642 04-09-2019 08:21:17 10.8 C 50 %
643 04-09-2019 08:33:17 11.1 C 48 %
644 04-09-2019 08:45:17 11.7 C 49 %
645 04-09-2019 08:57:17 12.4 C 47 %
646 04-09-2019 09:09:17 13.5 C 40 %
647 04-09-2019 09:21:17 14.1 C 35 %
648 04-09-2019 09:33:17 14.3 C 33 %
649 04-09-2019 09:45:17 14.4 C 33 %
650 04-09-2019 09:57:17 14.5 C 33 %
Sensor: Nr:Datum:Temp:Feuchte:
Aussen-T/F 651 04-09-2019 10:09:18 14.5 C 33 %
652 04-09-2019 10:21:17 14.5 C 34 %
653 04-09-2019 10:33:18 15.3 C 32 %
654 04-09-2019 10:45:17 16.2 C 29 %
655 04-09-2019 10:57:17 17.1 C 27 %
656 04-09-2019 11:09:18 17.7 C 25 %
657 04-09-2019 11:21:17 18.3 C 23 %
658 04-09-2019 11:33:17 18.9 C 21 %
659 04-09-2019 11:45:17 19.1 C 20 %
660 04-09-2019 11:57:17 19.5 C 20 %
661 04-09-2019 12:09:17 19.5 C 20 %
662 04-09-2019 12:21:17 19.5 C 20 %
663 04-09-2019 12:33:17 19.7 C 20 %
664 04-09-2019 12:45:18 20.1 C 20 %
665 04-09-2019 12:57:18 20.2 C 20 %
666 04-09-2019 13:09:17 20.5 C 20 %
667 04-09-2019 13:21:17 21 C 20 %
668 04-09-2019 13:33:17 21.1 C 20 %
669 04-09-2019 13:45:18 21.4 C 20 %
670 04-09-2019 13:57:18 21.9 C 20 %
671 04-09-2019 14:09:17 22.3 C 20 %
672 04-09-2019 14:21:18 22.6 C 20 %
673 04-09-2019 14:33:17 22.9 C 20 %
674 04-09-2019 14:45:17 23.4 C 20 %
675 04-09-2019 14:57:17 23.8 C 20 %
Sensor: Nr:Datum:Temp:Feuchte:
Aussen-T/F 676 04-09-2019 15:09:17 24.1 C 20 %
677 04-09-2019 15:21:18 24.5 C 20 %
678 04-09-2019 15:33:17 25.1 C 20 %
679 04-09-2019 15:45:17 25.4 C 20 %
680 04-09-2019 15:57:17 26.1 C 20 %
681 04-09-2019 16:09:17 25.9 C 20 %
682 04-09-2019 16:21:17 26.1 C 20 %
683 04-09-2019 16:33:17 26.5 C 20 %
684 04-09-2019 16:45:18 26.3 C 20 %
685 04-09-2019 16:57:18 27.1 C 20 %
686 04-09-2019 17:09:17 27.4 C 20 %
687 04-09-2019 17:21:17 27.7 C 20 %
688 04-09-2019 17:33:17 27.3 C 20 %
689 04-09-2019 17:45:17 27.6 C 20 %
690 04-09-2019 17:57:17 27.2 C 20 %
691 04-09-2019 18:09:17 26.1 C 20 %
692 04-09-2019 18:21:17 25.6 C 20 %
693 04-09-2019 18:33:17 24.9 C 20 %
694 04-09-2019 18:45:17 24.6 C 20 %
695 04-09-2019 18:57:17 24.6 C 20 %
696 04-09-2019 19:09:17 24.3 C 20 %
697 04-09-2019 19:21:17 23.8 C 20 %
698 04-09-2019 19:33:17 23.7 C 20 %
699 04-09-2019 19:45:18 23.2 C 20 %
700 04-09-2019 19:57:18 21.1 C 20 %
Sensor: Nr:Datum:Temp:Feuchte:
Aussen-T/F 701 04-09-2019 20:09:17 20.4 C 20 %
702 04-09-2019 20:21:17 19.9 C 20 %
703 04-09-2019 20:33:17 19.7 C 20 %
704 04-09-2019 20:45:17 18.9 C 22 %
705 04-09-2019 20:57:17 17.9 C 31 %
706 04-09-2019 21:09:17 17.1 C 35 %
707 04-09-2019 21:21:17 16.8 C 39 %
708 04-09-2019 21:33:17 16.4 C 41 %
709 04-09-2019 21:45:17 16.2 C 43 %
710 04-09-2019 21:57:17 16 C 45 %
711 04-09-2019 22:09:17 16 C 44 %
712 04-09-2019 22:21:17 15.8 C 46 %
713 04-09-2019 22:33:18 15.9 C 46 %
714 04-09-2019 22:45:17 15.6 C 45 %
715 04-09-2019 22:57:17 15.4 C 46 %
716 04-09-2019 23:09:18 15.5 C 45 %
717 04-09-2019 23:21:17 15.7 C 43 %
718 04-09-2019 23:33:18 15.7 C 41 %
719 04-09-2019 23:45:17 15.7 C 41 %
720 04-09-2019 23:57:17 15.7 C 40 %
721 05-09-2019 00:09:18 15.7 C 41 %
722 05-09-2019 00:21:17 15.6 C 41 %
723 05-09-2019 00:33:18 15.6 C 42 %
724 05-09-2019 00:45:17 15.5 C 42 %
725 05-09-2019 00:57:17 15.3 C 43 %
Sensor: Nr:Datum:Temp:Feuchte:
Aussen-T/F 726 05-09-2019 01:09:17 15.5 C 45 %
727 05-09-2019 01:21:17 15.5 C 43 %
728 05-09-2019 01:33:18 15.5 C 35 %
729 05-09-2019 01:45:17 15.2 C 34 %
730 05-09-2019 01:57:17 14.5 C 37 %
731 05-09-2019 02:09:18 14.1 C 38 %
732 05-09-2019 02:21:17 14.1 C 37 %
733 05-09-2019 02:33:18 14.1 C 36 %
734 05-09-2019 02:45:17 13.8 C 37 %
735 05-09-2019 02:57:17 14.3 C 35 %
736 05-09-2019 03:09:17 14.4 C 33 %
737 05-09-2019 03:21:17 14.2 C 34 %
738 05-09-2019 03:33:18 14.1 C 34 %
739 05-09-2019 03:45:17 14.2 C 34 %
740 05-09-2019 03:57:17 14.4 C 32 %
741 05-09-2019 04:09:18 14.5 C 31 %
742 05-09-2019 04:21:17 14.4 C 31 %
743 05-09-2019 04:33:17 14.4 C 31 %
744 05-09-2019 04:45:17 14.2 C 31 %
745 05-09-2019 04:57:17 14.1 C 31 %
746 05-09-2019 05:09:18 14.1 C 31 %
747 05-09-2019 05:21:17 13.7 C 32 %
748 05-09-2019 05:33:18 13.4 C 32 %
749 05-09-2019 05:45:17 13.1 C 33 %
750 05-09-2019 05:57:17 13 C 34 %
Sensor: Nr:Datum:Temp:Feuchte:
Aussen-T/F 751 05-09-2019 06:09:17 13 C 34 %
752 05-09-2019 06:21:17 12.8 C 35 %
753 05-09-2019 06:33:18 12.8 C 35 %
754 05-09-2019 06:45:17 12.7 C 35 %
755 05-09-2019 06:57:17 12.5 C 35 %
756 05-09-2019 07:09:17 12.4 C 35 %
757 05-09-2019 07:21:17 12.4 C 35 %
758 05-09-2019 07:33:17 12.4 C 35 %
759 05-09-2019 07:45:17 12.4 C 35 %
760 05-09-2019 07:57:17 12.3 C 36 %
761 05-09-2019 08:09:17 12.5 C 34 %
762 05-09-2019 08:21:18 12.6 C 34 %
763 05-09-2019 08:33:17 12.8 C 33 %
764 05-09-2019 08:45:17 13.1 C 31 %
765 05-09-2019 08:57:17 13.1 C 31 %
766 05-09-2019 09:09:17 13.2 C 31 %
767 05-09-2019 09:21:17 13.6 C 30 %
768 05-09-2019 09:33:17 14 C 28 %
769 05-09-2019 09:45:17 14.2 C 28 %
770 05-09-2019 09:57:17 15 C 26 %
771 05-09-2019 10:09:17 15.1 C 25 %
772 05-09-2019 10:21:17 15.7 C 25 %
773 05-09-2019 10:33:18 15.8 C 24 %
774 05-09-2019 10:45:17 16.5 C 22 %
775 05-09-2019 10:57:17 17 C 20 %
Sensor: Nr:Datum:Temp:Feuchte:
Aussen-T/F 776 05-09-2019 11:09:18 17.2 C 20 %
777 05-09-2019 11:21:17 17.6 C 20 %
778 05-09-2019 11:33:18 17 C 20 %
779 05-09-2019 11:45:17 15.9 C 22 %
780 05-09-2019 11:57:17 16.5 C 20 %
781 05-09-2019 12:09:18 17 C 20 %
782 05-09-2019 12:21:17 17.7 C 20 %
783 05-09-2019 12:33:18 18.1 C 20 %
784 05-09-2019 12:45:17 18 C 20 %
785 05-09-2019 12:57:17 18.2 C 20 %
786 05-09-2019 13:09:17 18.7 C 20 %
787 05-09-2019 13:21:17 18.1 C 20 %
788 05-09-2019 13:33:18 18.1 C 20 %
789 05-09-2019 13:45:17 18.5 C 20 %
790 05-09-2019 13:57:17 18.8 C 20 %
791 05-09-2019 14:09:18 18.6 C 20 %
792 05-09-2019 14:21:17 18.1 C 20 %
793 05-09-2019 14:33:18 18.3 C 20 %
794 05-09-2019 14:45:18 18.3 C 20 %
795 05-09-2019 14:57:18 18.8 C 20 %
796 05-09-2019 15:09:17 19.1 C 20 %
797 05-09-2019 15:21:18 19.2 C 20 %
798 05-09-2019 15:33:17 19.1 C 20 %
799 05-09-2019 15:45:17 18.9 C 20 %
800 05-09-2019 15:57:17 19 C 20 %
Sensor: Nr:Datum:Temp:Feuchte:
Aussen-T/F 801 05-09-2019 16:09:17 19 C 20 %
802 05-09-2019 16:21:17 19.5 C 20 %
803 05-09-2019 16:33:17 20.5 C 20 %
804 05-09-2019 16:45:17 18.9 C 20 %
805 05-09-2019 16:57:17 18.1 C 20 %
806 05-09-2019 17:09:18 18.2 C 20 %
807 05-09-2019 17:21:17 17.4 C 20 %
808 05-09-2019 17:33:18 17.2 C 20 %
809 05-09-2019 17:45:17 16.9 C 20 %
810 05-09-2019 17:57:17 16.8 C 20 %
811 05-09-2019 18:09:18 16.6 C 20 %
812 05-09-2019 18:21:17 16.6 C 20 %
813 05-09-2019 18:33:18 16.8 C 20 %
814 05-09-2019 18:45:17 16.7 C 20 %
815 05-09-2019 18:57:17 17.7 C 20 %
816 05-09-2019 19:09:17 17.2 C 20 %
817 05-09-2019 19:21:17 16.6 C 20 %
818 05-09-2019 19:33:17 16.3 C 20 %
819 05-09-2019 19:45:17 16.1 C 20 %
820 05-09-2019 19:57:18 15.9 C 20 %
821 05-09-2019 20:09:17 15.8 C 20 %
822 05-09-2019 20:21:17 16.1 C 20 %
823 05-09-2019 20:33:17 16 C 20 %
824 05-09-2019 20:45:17 15.7 C 20 %
825 05-09-2019 20:57:17 15.4 C 20 %
Sensor: Nr:Datum:Temp:Feuchte:
Aussen-T/F 826 05-09-2019 21:09:17 14.9 C 20 %
827 05-09-2019 21:21:17 14.9 C 20 %
828 05-09-2019 21:33:18 14.9 C 20 %
829 05-09-2019 21:45:17 14.6 C 20 %
830 05-09-2019 21:57:17 14.7 C 20 %
831 05-09-2019 22:09:18 14.7 C 20 %
832 05-09-2019 22:21:18 14.6 C 20 %
833 05-09-2019 22:33:17 14.5 C 21 %
834 05-09-2019 22:45:17 14.5 C 20 %
835 05-09-2019 22:57:17 14.5 C 20 %
836 05-09-2019 23:09:18 14.4 C 20 %
837 05-09-2019 23:21:17 14.1 C 20 %
838 05-09-2019 23:33:17 14.1 C 20 %
839 05-09-2019 23:45:17 13.4 C 24 %
840 05-09-2019 23:57:17 12.8 C 26 %
841 06-09-2019 00:09:17 11.9 C 31 %
842 06-09-2019 00:21:17 11.5 C 32 %
843 06-09-2019 00:33:18 11.4 C 34 %
844 06-09-2019 00:45:17 11.1 C 34 %
845 06-09-2019 00:57:17 11.2 C 35 %
846 06-09-2019 01:09:18 11.8 C 32 %
847 06-09-2019 01:21:17 11.2 C 34 %
848 06-09-2019 01:33:18 10.8 C 35 %
849 06-09-2019 01:45:17 10.5 C 38 %
850 06-09-2019 01:57:17 10.3 C 39 %
Sensor: Nr:Datum:Temp:Feuchte:
Aussen-T/F 851 06-09-2019 02:09:18 10.3 C 39 %
852 06-09-2019 02:21:17 10.2 C 40 %
853 06-09-2019 02:33:18 10.5 C 39 %
854 06-09-2019 02:45:17 10.2 C 39 %
855 06-09-2019 02:57:17 9.9 C 40 %
856 06-09-2019 03:09:18 9.7 C 41 %
857 06-09-2019 03:21:17 9.7 C 42 %
858 06-09-2019 03:33:17 9.4 C 42 %
859 06-09-2019 03:45:17 9.6 C 44 %
860 06-09-2019 03:57:17 9.5 C 43 %
861 06-09-2019 04:09:18 8.9 C 43 %
862 06-09-2019 04:21:17 9 C 45 %
863 06-09-2019 04:33:18 8.9 C 45 %
864 06-09-2019 04:45:17 8.6 C 45 %
865 06-09-2019 04:57:17 8.4 C 46 %
866 06-09-2019 05:09:17 8.2 C 46 %
867 06-09-2019 05:21:17 8 C 46 %
868 06-09-2019 05:33:17 7.8 C 47 %
869 06-09-2019 05:45:18 7.8 C 48 %
870 06-09-2019 05:57:18 7.5 C 48 %
871 06-09-2019 06:09:17 7.6 C 49 %
872 06-09-2019 06:21:18 7.4 C 49 %
873 06-09-2019 06:33:17 7.3 C 49 %
874 06-09-2019 06:45:18 7.4 C 50 %
875 06-09-2019 06:57:18 7.3 C 50 %
Sensor: Nr:Datum:Temp:Feuchte:
Aussen-T/F 876 06-09-2019 07:09:17 7.3 C 50 %
877 06-09-2019 07:21:18 7.4 C 50 %
878 06-09-2019 07:33:17 7.4 C 50 %
879 06-09-2019 07:45:18 7.5 C 50 %
880 06-09-2019 07:57:18 7.7 C 50 %
881 06-09-2019 08:09:17 8.1 C 50 %
882 06-09-2019 08:21:17 8.2 C 49 %
883 06-09-2019 08:33:18 8.2 C 49 %
884 06-09-2019 08:45:17 8.3 C 49 %
885 06-09-2019 08:57:17 8.5 C 49 %
886 06-09-2019 09:09:18 8.7 C 49 %
887 06-09-2019 09:21:17 8.9 C 50 %
888 06-09-2019 09:33:17 9.2 C 49 %
889 06-09-2019 09:45:17 9.3 C 49 %
890 06-09-2019 09:57:17 9.5 C 49 %
891 06-09-2019 10:09:17 9.6 C 49 %
892 06-09-2019 10:21:17 10.4 C 46 %
893 06-09-2019 10:33:17 11.1 C 42 %
894 06-09-2019 10:45:17 11.5 C 39 %
895 06-09-2019 10:57:17 12.7 C 35 %
896 06-09-2019 11:09:18 12.8 C 33 %
897 06-09-2019 11:21:17 13.3 C 28 %
898 06-09-2019 11:33:17 14 C 23 %
899 06-09-2019 11:45:17 14 C 23 %
900 06-09-2019 11:57:17 14.4 C 22 %
Sensor: Nr:Datum:Temp:Feuchte:
Aussen-T/F 901 06-09-2019 12:09:17 14.7 C 20 %
902 06-09-2019 12:21:17 15 C 20 %
903 06-09-2019 12:33:17 15.3 C 20 %
904 06-09-2019 12:45:18 15.5 C 20 %
905 06-09-2019 12:57:18 15.8 C 20 %
906 06-09-2019 13:09:17 15.7 C 20 %
907 06-09-2019 13:21:18 16.2 C 20 %
908 06-09-2019 13:33:17 16.5 C 20 %
909 06-09-2019 13:45:17 16.9 C 20 %
910 06-09-2019 13:57:17 17.4 C 20 %
911 06-09-2019 14:09:17 18 C 20 %
912 06-09-2019 14:21:17 18.3 C 20 %
913 06-09-2019 14:33:17 18.6 C 20 %
914 06-09-2019 14:45:17 19.2 C 20 %
915 06-09-2019 14:57:17 19.5 C 20 %
916 06-09-2019 15:09:18 20.1 C 20 %
917 06-09-2019 15:21:17 20.2 C 20 %
918 06-09-2019 15:33:18 20.4 C 20 %
919 06-09-2019 15:45:17 20.7 C 20 %
920 06-09-2019 15:57:17 21.1 C 20 %
921 06-09-2019 16:09:18 21.2 C 20 %
922 06-09-2019 16:21:17 21.9 C 20 %
923 06-09-2019 16:33:18 22.1 C 20 %
924 06-09-2019 16:45:17 22.6 C 20 %
925 06-09-2019 16:57:17 22.9 C 20 %
Sensor: Nr:Datum:Temp:Feuchte:
Aussen-T/F 926 06-09-2019 17:09:18 23 C 20 %
927 06-09-2019 17:21:17 23 C 20 %
928 06-09-2019 17:33:18 23.5 C 20 %
929 06-09-2019 17:45:17 23.2 C 20 %
930 06-09-2019 17:57:17 22.9 C 20 %
931 06-09-2019 18:09:18 23 C 20 %
932 06-09-2019 18:21:17 23 C 20 %
933 06-09-2019 18:33:18 23.7 C 20 %
934 06-09-2019 18:45:17 22.7 C 20 %
935 06-09-2019 18:57:17 21.6 C 20 %
936 06-09-2019 19:09:17 19.3 C 20 %
937 06-09-2019 19:21:17 18.1 C 20 %
938 06-09-2019 19:33:17 16.8 C 20 %
939 06-09-2019 19:45:17 16.1 C 20 %
940 06-09-2019 19:57:18 15.8 C 20 %
941 06-09-2019 20:09:17 16 C 20 %
942 06-09-2019 20:21:17 15.9 C 20 %
943 06-09-2019 20:33:17 15.6 C 20 %
944 06-09-2019 20:45:18 14.9 C 20 %
945 06-09-2019 20:57:18 14.5 C 20 %
946 06-09-2019 21:09:17 14.2 C 20 %
947 06-09-2019 21:21:18 14.1 C 20 %
948 06-09-2019 21:33:17 13.7 C 20 %
949 06-09-2019 21:45:18 13.5 C 20 %
950 06-09-2019 21:57:18 13.2 C 20 %
Sensor: Nr:Datum:Temp:Feuchte:
Aussen-T/F 951 06-09-2019 22:09:17 12.4 C 20 %
952 06-09-2019 22:21:17 12 C 20 %
953 06-09-2019 22:33:17 12 C 20 %
954 06-09-2019 22:45:17 12 C 20 %
955 06-09-2019 22:57:18 12.6 C 20 %
956 06-09-2019 23:09:17 12.9 C 20 %
957 06-09-2019 23:21:17 13.2 C 20 %
958 06-09-2019 23:33:18 12.9 C 20 %
959 06-09-2019 23:45:17 12.6 C 20 %
960 06-09-2019 23:57:17 12.2 C 22 %
961 07-09-2019 00:09:18 12.1 C 25 %
962 07-09-2019 00:21:17 12.1 C 25 %
963 07-09-2019 00:33:17 12.2 C 24 %
964 07-09-2019 00:45:17 12.4 C 23 %
965 07-09-2019 00:57:17 12.6 C 20 %
966 07-09-2019 01:09:17 12.8 C 20 %
967 07-09-2019 01:21:17 12.6 C 21 %
968 07-09-2019 01:33:17 12.2 C 22 %
969 07-09-2019 01:45:17 12.2 C 22 %
970 07-09-2019 01:57:17 11.8 C 25 %
971 07-09-2019 02:09:18 12.4 C 22 %
972 07-09-2019 02:21:17 12.3 C 23 %
973 07-09-2019 02:33:17 12.3 C 24 %
974 07-09-2019 02:45:17 12.4 C 23 %
975 07-09-2019 02:57:17 12.5 C 21 %
Sensor: Nr:Datum:Temp:Feuchte:
Aussen-T/F 976 07-09-2019 03:09:18 12.4 C 22 %
977 07-09-2019 03:21:17 12.5 C 21 %
978 07-09-2019 03:33:18 12.7 C 21 %
979 07-09-2019 03:45:17 12.6 C 22 %
980 07-09-2019 03:57:17 13 C 20 %
981 07-09-2019 04:09:17 12.8 C 22 %
982 07-09-2019 04:21:17 12.6 C 24 %
983 07-09-2019 04:33:18 12.7 C 21 %
984 07-09-2019 04:45:17 12.9 C 22 %
985 07-09-2019 04:57:17 12.7 C 21 %
986 07-09-2019 05:09:17 12.9 C 20 %
987 07-09-2019 05:21:17 12.6 C 25 %
988 07-09-2019 05:33:17 12.3 C 25 %
989 07-09-2019 05:45:18 12.3 C 25 %
990 07-09-2019 05:57:18 12.3 C 26 %
991 07-09-2019 06:09:17 12.2 C 26 %
992 07-09-2019 06:21:17 12.2 C 26 %
993 07-09-2019 06:33:17 12.2 C 27 %
994 07-09-2019 06:45:17 12.1 C 28 %
995 07-09-2019 06:57:17 12 C 28 %
996 07-09-2019 07:09:17 11.8 C 29 %
997 07-09-2019 07:21:17 11 C 36 %
998 07-09-2019 07:33:17 11 C 41 %
999 07-09-2019 07:45:18 11 C 42 %
1000 07-09-2019 07:57:18 11.1 C 47 %
Sensor: Nr:Datum:Temp:Feuchte:
Aussen-T/F 1001 07-09-2019 08:09:17 11.1 C 48 %
1002 07-09-2019 08:21:17 11.3 C 50 %
1003 07-09-2019 08:33:17 11.4 C 50 %
1004 07-09-2019 08:45:18 11.3 C 50 %
1005 07-09-2019 08:57:18 11.2 C 50 %
1006 07-09-2019 09:09:17 11.3 C 50 %
1007 07-09-2019 09:21:17 11.5 C 50 %
1008 07-09-2019 09:33:17 11.5 C 50 %
1009 07-09-2019 09:45:17 11.7 C 50 %
1010 07-09-2019 09:57:17 11.7 C 50 %
1011 07-09-2019 10:09:17 11.7 C 50 %
1012 07-09-2019 10:21:17 11.9 C 49 %
1013 07-09-2019 10:33:18 12 C 50 %
1014 07-09-2019 10:45:17 11.9 C 50 %
1015 07-09-2019 10:57:17 12.2 C 50 %
1016 07-09-2019 11:09:17 12.4 C 49 %
1017 07-09-2019 11:21:17 12.6 C 49 %
1018 07-09-2019 11:33:18 12.7 C 48 %
1019 07-09-2019 11:45:17 12.8 C 48 %
1020 07-09-2019 11:57:17 12.9 C 48 %
1021 07-09-2019 12:09:18 13 C 47 %
1022 07-09-2019 12:21:17 13 C 47 %
1023 07-09-2019 12:33:17 13.2 C 46 %
1024 07-09-2019 12:45:17 13.5 C 46 %
1025 07-09-2019 12:57:17 13.6 C 46 %
Sensor: Nr:Datum:Temp:Feuchte:
Aussen-T/F 1026 07-09-2019 13:09:18 13.9 C 46 %
1027 07-09-2019 13:21:17 14 C 45 %
1028 07-09-2019 13:33:17 13.9 C 45 %
1029 07-09-2019 13:45:17 13.9 C 45 %
1030 07-09-2019 13:57:17 13.8 C 45 %
1031 07-09-2019 14:09:17 13.9 C 45 %
1032 07-09-2019 14:21:17 14.1 C 44 %
1033 07-09-2019 14:33:17 14.4 C 44 %
1034 07-09-2019 14:45:17 14.4 C 42 %
1035 07-09-2019 14:57:17 14.2 C 42 %
1036 07-09-2019 15:09:18 14.3 C 41 %
1037 07-09-2019 15:21:18 14.6 C 41 %
1038 07-09-2019 15:33:17 15 C 39 %
1039 07-09-2019 15:45:18 15 C 37 %
1040 07-09-2019 15:57:18 15.2 C 36 %
1041 07-09-2019 16:09:17 15.4 C 35 %
1042 07-09-2019 16:21:17 15 C 36 %
1043 07-09-2019 16:33:17 15.2 C 38 %
1044 07-09-2019 16:45:17 15.3 C 38 %
1045 07-09-2019 16:57:17 15.4 C 38 %
1046 07-09-2019 17:09:17 15.6 C 39 %
1047 07-09-2019 17:21:17 15.5 C 38 %
1048 07-09-2019 17:33:17 14.8 C 37 %
1049 07-09-2019 17:45:18 14.5 C 40 %
1050 07-09-2019 17:57:18 14.2 C 42 %
Sensor: Nr:Datum:Temp:Feuchte:
Aussen-T/F 1051 07-09-2019 18:09:17 14 C 42 %
1052 07-09-2019 18:21:18 14 C 43 %
1053 07-09-2019 18:33:17 14 C 43 %
1054 07-09-2019 18:45:18 13.8 C 45 %
1055 07-09-2019 18:57:18 13.5 C 46 %
1056 07-09-2019 19:09:17 13.4 C 43 %
1057 07-09-2019 19:21:17 12.9 C 46 %
1058 07-09-2019 19:33:18 12.6 C 48 %
1059 07-09-2019 19:45:17 12.5 C 50 %
1060 07-09-2019 19:57:17 12.3 C 50 %
1061 07-09-2019 20:09:17 12.1 C 50 %
1062 07-09-2019 20:21:17 12.1 C 50 %
1063 07-09-2019 20:33:17 12 C 50 %
1064 07-09-2019 20:45:18 11.8 C 52 %
1065 07-09-2019 20:57:18 11.7 C 52 %
1066 07-09-2019 21:09:17 11.5 C 52 %
1067 07-09-2019 21:21:17 11.4 C 52 %
1068 07-09-2019 21:33:17 11.4 C 52 %
1069 07-09-2019 21:45:17 11.5 C 52 %
1070 07-09-2019 21:57:17 11.5 C 52 %
1071 07-09-2019 22:09:17 11.4 C 52 %
1072 07-09-2019 22:21:18 11.4 C 52 %
1073 07-09-2019 22:33:17 11.4 C 52 %
1074 07-09-2019 22:45:17 11.4 C 52 %
1075 07-09-2019 22:57:17 11.4 C 52 %
Sensor: Nr:Datum:Temp:Feuchte:
Aussen-T/F 1076 07-09-2019 23:09:17 11.4 C 52 %
1077 07-09-2019 23:21:18 11.4 C 53 %
1078 07-09-2019 23:33:17 11.4 C 53 %
1079 07-09-2019 23:45:17 11.4 C 53 %
1080 07-09-2019 23:57:18 11.4 C 53 %
1081 08-09-2019 00:09:17 11.4 C 53 %
1082 08-09-2019 00:21:18 11.4 C 54 %
1083 08-09-2019 00:33:17 11.4 C 54 %
1084 08-09-2019 00:45:17 11.4 C 55 %
1085 08-09-2019 00:57:17 11.4 C 56 %
1086 08-09-2019 01:09:17 11.6 C 58 %
1087 08-09-2019 01:21:17 11.6 C 57 %
1088 08-09-2019 01:33:17 11.4 C 55 %
1089 08-09-2019 01:45:17 11.2 C 53 %
1090 08-09-2019 01:57:17 11 C 53 %
1091 08-09-2019 02:09:18 10.9 C 58 %
1092 08-09-2019 02:21:17 10.9 C 60 %
1093 08-09-2019 02:33:18 10.6 C 58 %
1094 08-09-2019 02:45:17 10.5 C 59 %
1095 08-09-2019 02:57:17 10.7 C 62 %
1096 08-09-2019 03:09:18 10.7 C 64 %
1097 08-09-2019 03:21:17 11.1 C 64 %
1098 08-09-2019 03:33:18 11.1 C 64 %
1099 08-09-2019 03:45:17 11.1 C 63 %
1100 08-09-2019 03:57:17 11.2 C 64 %
Sensor: Nr:Datum:Temp:Feuchte:
Aussen-T/F 1101 08-09-2019 04:09:18 11.2 C 64 %
1102 08-09-2019 04:21:17 11.4 C 64 %
1103 08-09-2019 04:33:18 11.6 C 64 %
1104 08-09-2019 04:45:17 11.6 C 63 %
1105 08-09-2019 04:57:17 11.6 C 61 %
1106 08-09-2019 05:09:18 11.7 C 57 %
1107 08-09-2019 05:21:17 11.7 C 55 %
1108 08-09-2019 05:33:17 11.7 C 54 %
1109 08-09-2019 05:45:17 11.7 C 53 %
1110 08-09-2019 05:57:17 11.8 C 52 %
1111 08-09-2019 06:09:17 11.8 C 51 %
1112 08-09-2019 06:21:17 11.8 C 51 %
1113 08-09-2019 06:33:17 11.9 C 50 %
1114 08-09-2019 06:45:18 12 C 49 %
1115 08-09-2019 06:57:18 12 C 49 %
1116 08-09-2019 07:09:17 12.1 C 48 %
1117 08-09-2019 07:21:18 12.1 C 48 %
1118 08-09-2019 07:33:17 12 C 48 %
1119 08-09-2019 07:45:17 12.1 C 47 %
1120 08-09-2019 07:57:17 12.2 C 47 %
1121 08-09-2019 08:09:18 12.3 C 47 %
1122 08-09-2019 08:21:17 12.3 C 46 %
1123 08-09-2019 08:33:17 12.3 C 45 %
1124 08-09-2019 08:45:17 12 C 46 %
1125 08-09-2019 08:57:17 12.1 C 48 %
Sensor: Nr:Datum:Temp:Feuchte:
Aussen-T/F 1126 08-09-2019 09:09:17 12 C 47 %
1127 08-09-2019 09:21:17 11.9 C 49 %
1128 08-09-2019 09:33:17 11.8 C 49 %
1129 08-09-2019 09:45:17 11.9 C 49 %
1130 08-09-2019 09:57:17 12 C 48 %
1131 08-09-2019 10:09:17 12.1 C 49 %
1132 08-09-2019 10:21:17 12.1 C 50 %
1133 08-09-2019 10:33:18 12.1 C 51 %
1134 08-09-2019 10:45:17 12.1 C 51 %
1135 08-09-2019 10:57:17 12.1 C 51 %
1136 08-09-2019 11:09:18 12.2 C 52 %
1137 08-09-2019 11:21:17 12.2 C 51 %
1138 08-09-2019 11:33:18 12.2 C 51 %
1139 08-09-2019 11:45:17 12.3 C 51 %
1140 08-09-2019 11:57:17 12.5 C 50 %
1141 08-09-2019 12:09:18 12.7 C 49 %
1142 08-09-2019 12:21:17 12.8 C 47 %
1143 08-09-2019 12:33:18 13.2 C 43 %
1144 08-09-2019 12:45:17 13.6 C 40 %
1145 08-09-2019 12:57:17 14.1 C 37 %
1146 08-09-2019 13:09:18 16 C 32 %
1147 08-09-2019 13:21:17 16.4 C 31 %
1148 08-09-2019 13:34:03 16.9 C 29 %
1149 08-09-2019 13:57:18 18.7 C 25 %
1150 08-09-2019 14:08:17 16.5 C 28 %
Sensor: Nr:Datum:Temp:Feuchte:
Aussen-T/F 1151 08-09-2019 14:20:17 17.2 C 27 %
1152 08-09-2019 14:30:17 17.8 C 26 %
1153 08-09-2019 14:41:17 16.8 C 26 %
1154 08-09-2019 14:52:18 16.8 C 27 %
1155 08-09-2019 15:03:17 19.8 C 22 %
1156 08-09-2019 15:14:17 20.3 C 20 %
1157 08-09-2019 15:25:17 18.6 C 20 %
1158 08-09-2019 15:36:18 18.1 C 23 %
1159 08-09-2019 15:47:17 17.7 C 23 %
1160 08-09-2019 15:58:17 18.2 C 22 %
1161 08-09-2019 16:09:17 17.7 C 23 %
1162 08-09-2019 16:20:18 16.6 C 28 %
1163 08-09-2019 16:31:17 14.3 C 39 %
1164 08-09-2019 16:42:17 13.9 C 46 %
1165 08-09-2019 16:53:18 13.3 C 46 %
1166 08-09-2019 17:04:17 13 C 50 %
1167 08-09-2019 17:15:17 12.6 C 52 %
1168 08-09-2019 17:26:17 12.8 C 52 %
1169 08-09-2019 17:37:18 12.8 C 52 %
1170 08-09-2019 17:48:18 12.9 C 50 %
1171 08-09-2019 17:59:18 12.7 C 46 %
1172 08-09-2019 18:11:17 12.5 C 46 %
1173 08-09-2019 18:21:17 12.4 C 50 %
1174 08-09-2019 18:32:17 12.2 C 50 %
1175 08-09-2019 18:43:17 12.3 C 52 %
Sensor: Nr:Datum:Temp:Feuchte:
Aussen-T/F 1176 08-09-2019 18:54:17 12.4 C 52 %
1177 08-09-2019 19:06:17 12.5 C 53 %
1178 08-09-2019 19:16:18 12.6 C 53 %
1179 08-09-2019 19:27:18 12.7 C 53 %
1180 08-09-2019 19:38:17 12.7 C 53 %
1181 08-09-2019 19:49:18 12.6 C 53 %
1182 08-09-2019 20:00:17 12.5 C 54 %
1183 08-09-2019 20:11:17 12.3 C 55 %
1184 08-09-2019 20:23:17 12.1 C 48 %
1185 08-09-2019 20:33:17 12.1 C 47 %
1186 08-09-2019 20:44:18 12.1 C 46 %
1187 08-09-2019 20:56:17 11.8 C 48 %
1188 08-09-2019 21:06:18 11.7 C 50 %
1189 08-09-2019 21:17:18 11.7 C 51 %
1190 08-09-2019 21:28:18 11.6 C 52 %
1191 08-09-2019 21:39:17 11.5 C 52 %
1192 08-09-2019 21:50:18 11.6 C 53 %
1193 08-09-2019 22:01:17 11.5 C 52 %
1194 08-09-2019 22:12:17 11.5 C 53 %
1195 08-09-2019 22:24:17 11.5 C 53 %
1196 08-09-2019 22:34:17 11.4 C 54 %
1197 08-09-2019 22:45:18 11.5 C 55 %
1198 08-09-2019 22:56:18 11.4 C 56 %
1199 08-09-2019 23:07:17 11.4 C 56 %
1200 08-09-2019 23:19:17 11.4 C 56 %
Sensor: Nr:Datum:Temp:Feuchte:
Aussen-T/F 1201 08-09-2019 23:29:17 11.4 C 57 %
1202 08-09-2019 23:40:17 11.4 C 56 %
1203 08-09-2019 23:52:17 11.3 C 57 %
1204 09-09-2019 00:03:17 11.2 C 59 %
1205 09-09-2019 00:14:17 11.1 C 60 %
1206 09-09-2019 00:25:17 11.1 C 62 %
1207 09-09-2019 00:35:18 11.1 C 63 %
1208 09-09-2019 00:47:17 11 C 63 %
1209 09-09-2019 00:58:17 11 C 63 %
1210 09-09-2019 01:09:17 11 C 64 %
1211 09-09-2019 01:20:17 11 C 64 %
1212 09-09-2019 01:31:17 10.9 C 63 %
1213 09-09-2019 01:42:17 10.8 C 63 %
1214 09-09-2019 01:53:17 11 C 64 %
1215 09-09-2019 02:04:18 11 C 64 %
1216 09-09-2019 02:15:17 11 C 63 %
1217 09-09-2019 02:26:17 11 C 63 %
1218 09-09-2019 02:37:17 10.9 C 63 %
1219 09-09-2019 02:48:17 10.9 C 62 %
1220 09-09-2019 02:59:17 10.9 C 62 %
1221 09-09-2019 03:10:17 11 C 62 %
1222 09-09-2019 03:21:18 11 C 62 %
1223 09-09-2019 03:32:17 11 C 61 %
1224 09-09-2019 03:43:17 11 C 60 %
1225 09-09-2019 03:54:18 11 C 60 %
Sensor: Nr:Datum:Temp:Feuchte:
Aussen-T/F 1226 09-09-2019 04:05:17 10.9 C 60 %
1227 09-09-2019 04:16:17 10.9 C 59 %
1228 09-09-2019 04:27:17 10.9 C 59 %
1229 09-09-2019 04:38:17 11 C 58 %
1230 09-09-2019 04:49:18 11 C 57 %
1231 09-09-2019 05:00:17 10.9 C 56 %
1232 09-09-2019 05:11:17 10.9 C 57 %
1233 09-09-2019 05:22:17 10.9 C 57 %
1234 09-09-2019 05:33:17 10.9 C 57 %
1235 09-09-2019 05:44:17 10.9 C 57 %
1236 09-09-2019 05:55:17 10.9 C 56 %
1237 09-09-2019 06:06:17 10.9 C 56 %
1238 09-09-2019 06:17:17 10.9 C 55 %
1239 09-09-2019 06:28:17 10.9 C 55 %
1240 09-09-2019 06:39:18 10.9 C 54 %
1241 09-09-2019 06:50:17 10.9 C 55 %
1242 09-09-2019 07:01:17 10.9 C 57 %
1243 09-09-2019 07:12:18 10.9 C 58 %
1244 09-09-2019 07:23:17 10.9 C 57 %
1245 09-09-2019 07:34:18 10.9 C 57 %
1246 09-09-2019 07:45:17 11 C 55 %
1247 09-09-2019 07:56:17 10.9 C 55 %
1248 09-09-2019 08:07:18 10.9 C 54 %
1249 09-09-2019 08:18:17 10.9 C 54 %
1250 09-09-2019 08:29:17 10.9 C 54 %
Sensor: Nr:Datum:Temp:Feuchte:
Aussen-T/F 1251 09-09-2019 08:40:17 11 C 53 %
1252 09-09-2019 08:51:17 11.1 C 53 %
1253 09-09-2019 09:02:18 11.4 C 50 %
1254 09-09-2019 09:13:18 11.6 C 49 %
1255 09-09-2019 09:24:17 11.7 C 46 %
1256 09-09-2019 09:35:17 12.1 C 43 %
1257 09-09-2019 09:46:17 12.2 C 41 %
1258 09-09-2019 09:57:17 12.1 C 40 %
1259 09-09-2019 10:08:17 11.8 C 42 %
1260 09-09-2019 10:19:18 11.5 C 45 %
1261 09-09-2019 10:30:17 11.9 C 47 %
1262 09-09-2019 10:41:17 12.1 C 46 %
1263 09-09-2019 10:52:18 12.4 C 46 %
1264 09-09-2019 11:03:17 13 C 44 %
1265 09-09-2019 11:14:17 13.1 C 40 %
1266 09-09-2019 11:25:17 13.4 C 36 %
1267 09-09-2019 11:36:17 13.5 C 33 %
1268 09-09-2019 11:47:18 14 C 32 %
1269 09-09-2019 11:58:18 14.3 C 32 %
1270 09-09-2019 12:09:17 14.2 C 32 %
1271 09-09-2019 12:20:17 13.8 C 32 %
1272 09-09-2019 12:31:17 13.8 C 32 %
1273 09-09-2019 12:42:17 14.3 C 32 %
1274 09-09-2019 12:53:18 15.4 C 30 %
1275 09-09-2019 13:04:17 15.5 C 29 %
Sensor: Nr:Datum:Temp:Feuchte:
Aussen-T/F 1276 09-09-2019 13:15:18 15.8 C 28 %
1277 09-09-2019 13:26:18 16.2 C 27 %
1278 09-09-2019 13:37:17 15 C 28 %
1279 09-09-2019 13:48:18 15.8 C 26 %
1280 09-09-2019 13:59:18 16 C 25 %
1281 09-09-2019 14:10:17 16.2 C 25 %
1282 09-09-2019 14:21:18 15.4 C 23 %
1283 09-09-2019 14:32:17 16 C 25 %
1284 09-09-2019 14:43:17 15.5 C 24 %
1285 09-09-2019 14:54:18 15.5 C 25 %
1286 09-09-2019 15:05:17 15.4 C 25 %
1287 09-09-2019 15:16:17 15.4 C 27 %
1288 09-09-2019 15:27:17 16 C 25 %
1289 09-09-2019 15:38:17 16.4 C 25 %
1290 09-09-2019 15:49:17 17.1 C 22 %
1291 09-09-2019 16:00:17 16.5 C 23 %
1292 09-09-2019 16:11:17 16.3 C 23 %
1293 09-09-2019 16:22:17 16 C 25 %
1294 09-09-2019 16:46:17 30.3 C 33 %
1295 09-09-2019 16:49:17 30.3 C 33 %
1296 09-09-2019 16:52:17 30.3 C 33 %
1297 09-09-2019 16:55:17 30.3 C 33 %
1298 09-09-2019 16:58:18 30.3 C 33 %
1299 09-09-2019 17:01:17 30.3 C 33 %
1300 09-09-2019 17:04:17 30.3 C 33 %
Sensor: Nr:Datum:Temp:Feuchte:
Aussen-T/F 1301 09-09-2019 17:07:17 30.3 C 33 %
1302 09-09-2019 17:10:17 30.3 C 33 %
1303 09-09-2019 17:13:17 30.3 C 33 %
1304 09-09-2019 17:16:17 30.3 C 33 %
1305 09-09-2019 17:19:17 30.3 C 33 %
1306 09-09-2019 17:22:17 30.3 C 33 %
1307 09-09-2019 17:25:17 30.3 C 33 %
1308 09-09-2019 17:28:17 30.3 C 33 %
1309 09-09-2019 17:31:18 30.3 C 33 %
1310 09-09-2019 17:34:18 30.3 C 33 %
1311 09-09-2019 17:37:18 30.3 C 33 %
1312 09-09-2019 17:40:18 30.3 C 33 %
1313 09-09-2019 17:43:18 30.3 C 33 %
1314 09-09-2019 17:46:17 30.3 C 33 %
1315 09-09-2019 17:49:17 30.3 C 33 %
1316 09-09-2019 17:52:17 30.3 C 33 %
1317 09-09-2019 17:55:17 30.3 C 33 %
1318 09-09-2019 17:58:17 30.3 C 33 %
1319 09-09-2019 18:14:17 30.3 C 33 %
1320 09-09-2019 18:24:17 16.8 C 20 %
1321 09-09-2019 18:34:17 16.4 C 20 %
1322 09-09-2019 18:44:18 16 C 20 %
1323 09-09-2019 18:54:17 15 C 20 %
1324 09-09-2019 19:04:18 14.2 C 20 %
1325 09-09-2019 19:14:18 13.6 C 20 %
Sensor: Nr:Datum:Temp:Feuchte:
Aussen-T/F 1326 09-09-2019 19:24:17 13.1 C 20 %
1327 09-09-2019 19:34:18 12.7 C 20 %
1328 09-09-2019 19:44:18 12 C 20 %
1329 09-09-2019 19:54:17 11.9 C 20 %
1330 09-09-2019 20:04:18 11.8 C 20 %
1331 09-09-2019 20:14:18 11.5 C 20 %
1332 09-09-2019 20:24:17 11.5 C 20 %
1333 09-09-2019 20:34:17 11.1 C 20 %
1334 09-09-2019 20:44:17 10.8 C 20 %
1335 09-09-2019 20:54:17 10.6 C 20 %
1336 09-09-2019 21:04:17 10.3 C 20 %
1337 09-09-2019 21:14:17 10 C 20 %
1338 09-09-2019 21:24:17 10.4 C 20 %
1339 09-09-2019 21:34:17 10 C 20 %
1340 09-09-2019 21:44:17 9.9 C 20 %
1341 09-09-2019 21:54:17 9.6 C 20 %
1342 09-09-2019 22:04:17 9.3 C 20 %
1343 09-09-2019 22:14:17 9.5 C 20 %
1344 09-09-2019 22:24:18 9.5 C 20 %
1345 09-09-2019 22:34:17 9.1 C 20 %
1346 09-09-2019 22:44:17 9 C 20 %
1347 09-09-2019 22:54:18 8.8 C 21 %
1348 09-09-2019 23:04:17 8.8 C 23 %
1349 09-09-2019 23:14:17 8.7 C 23 %
1350 09-09-2019 23:24:17 8.7 C 25 %
Sensor: Nr:Datum:Temp:Feuchte:
Aussen-T/F 1351 09-09-2019 23:34:17 8.5 C 25 %
1352 09-09-2019 23:44:17 8.2 C 25 %
1353 09-09-2019 23:54:17 8.1 C 25 %
1354 10-09-2019 00:04:17 7.9 C 25 %
1355 10-09-2019 00:14:17 8 C 25 %
1356 10-09-2019 00:24:17 7.9 C 25 %
1357 10-09-2019 00:34:17 8.1 C 26 %
1358 10-09-2019 00:44:17 8 C 26 %
1359 10-09-2019 00:54:17 8 C 26 %
1360 10-09-2019 01:04:17 7.8 C 26 %
1361 10-09-2019 01:14:17 7.7 C 26 %
1362 10-09-2019 01:24:17 7.8 C 26 %
1363 10-09-2019 01:34:17 7.8 C 27 %
1364 10-09-2019 01:44:17 7.7 C 26 %
1365 10-09-2019 01:54:17 7.6 C 26 %
1366 10-09-2019 02:04:18 7.5 C 26 %
1367 10-09-2019 02:14:18 7.4 C 26 %
1368 10-09-2019 02:24:17 7.8 C 27 %
1369 10-09-2019 02:34:17 8 C 27 %
1370 10-09-2019 02:44:17 7.9 C 27 %
1371 10-09-2019 02:54:17 8.1 C 28 %
1372 10-09-2019 03:04:17 8.1 C 27 %
1373 10-09-2019 03:14:17 8.1 C 27 %
1374 10-09-2019 03:24:17 7.9 C 27 %
1375 10-09-2019 03:34:17 8.1 C 28 %
Sensor: Nr:Datum:Temp:Feuchte:
Aussen-T/F 1376 10-09-2019 03:44:17 8.2 C 28 %
1377 10-09-2019 03:54:17 8.2 C 28 %
1378 10-09-2019 04:04:18 8.2 C 28 %
1379 10-09-2019 04:14:18 8.2 C 28 %
1380 10-09-2019 04:24:17 8.2 C 28 %
1381 10-09-2019 04:34:17 8.2 C 28 %
1382 10-09-2019 04:44:17 8.2 C 28 %
1383 10-09-2019 04:54:17 8.2 C 28 %
1384 10-09-2019 05:04:17 8.1 C 28 %
1385 10-09-2019 05:14:17 8.1 C 28 %
1386 10-09-2019 05:24:17 8 C 28 %
1387 10-09-2019 05:34:17 8 C 28 %
1388 10-09-2019 05:44:17 7.9 C 28 %
1389 10-09-2019 05:54:17 7.9 C 28 %
1390 10-09-2019 06:04:18 7.8 C 27 %
1391 10-09-2019 06:14:18 7.7 C 27 %
1392 10-09-2019 06:24:17 7.8 C 28 %
1393 10-09-2019 06:34:17 7.8 C 28 %
1394 10-09-2019 06:44:17 7.8 C 28 %
1395 10-09-2019 06:54:18 7.9 C 28 %
1396 10-09-2019 07:04:17 7.8 C 28 %
1397 10-09-2019 07:14:17 7.7 C 28 %
1398 10-09-2019 07:24:17 7.8 C 28 %
1399 10-09-2019 07:34:17 7.7 C 27 %
1400 10-09-2019 07:44:17 7.8 C 28 %
Sensor: Nr:Datum:Temp:Feuchte:
Aussen-T/F 1401 10-09-2019 07:54:17 8 C 27 %
1402 10-09-2019 08:04:17 8 C 27 %
1403 10-09-2019 08:14:18 7.8 C 26 %
1404 10-09-2019 08:24:17 7.8 C 26 %
1405 10-09-2019 08:34:18 8 C 26 %
1406 10-09-2019 08:44:18 8.1 C 26 %
1407 10-09-2019 08:54:17 8.2 C 26 %
1408 10-09-2019 09:04:18 8.3 C 26 %
1409 10-09-2019 09:14:18 8.5 C 26 %
1410 10-09-2019 09:24:17 8.7 C 25 %
1411 10-09-2019 09:34:17 8.7 C 25 %
1412 10-09-2019 09:44:17 9.1 C 23 %
1413 10-09-2019 09:54:17 9.1 C 20 %
1414 10-09-2019 10:04:17 9.7 C 21 %
1415 10-09-2019 10:14:17 10.4 C 20 %
1416 10-09-2019 10:24:17 10 C 20 %
1417 10-09-2019 10:34:17 10 C 20 %
1418 10-09-2019 10:44:17 10.3 C 20 %
1419 10-09-2019 10:54:17 10.4 C 20 %
1420 10-09-2019 11:04:17 10.1 C 20 %
1421 10-09-2019 11:14:17 9.9 C 20 %
1422 10-09-2019 11:24:17 10.2 C 20 %
1423 10-09-2019 11:34:17 10.7 C 20 %
1424 10-09-2019 11:44:17 10.9 C 20 %
1425 10-09-2019 11:54:17 11.1 C 20 %
Sensor: Nr:Datum:Temp:Feuchte:
Aussen-T/F 1426 10-09-2019 12:04:17 11.7 C 20 %
1427 10-09-2019 12:14:17 11.7 C 20 %
1428 10-09-2019 12:24:17 12.2 C 20 %
1429 10-09-2019 12:34:17 12.6 C 20 %
1430 10-09-2019 12:44:17 13 C 20 %
1431 10-09-2019 12:54:17 13.5 C 20 %
1432 10-09-2019 13:04:17 14.2 C 20 %
1433 10-09-2019 13:14:18 14.5 C 20 %
1434 10-09-2019 13:24:17 14.8 C 20 %
1435 10-09-2019 13:34:17 15.2 C 20 %
1436 10-09-2019 13:44:17 15.9 C 20 %
1437 10-09-2019 13:54:18 16.1 C 20 %
1438 10-09-2019 14:04:17 16.8 C 20 %
1439 10-09-2019 14:14:17 18.8 C 20 %
1440 10-09-2019 14:24:17 19.8 C 20 %
1441 10-09-2019 14:34:17 22.9 C 20 %
1442 10-09-2019 14:44:17 23.9 C 20 %
1443 10-09-2019 14:54:17 22.9 C 20 %
1444 10-09-2019 15:04:17 24.8 C 20 %
1445 10-09-2019 15:14:17 25.9 C 20 %
1446 10-09-2019 15:24:17 26.9 C 20 %
1447 10-09-2019 15:34:18 26.9 C 20 %
1448 10-09-2019 15:44:18 26.4 C 20 %
1449 10-09-2019 15:54:17 26.3 C 20 %
1450 10-09-2019 16:04:17 23.7 C 20 %
Sensor: Nr:Datum:Temp:Feuchte:
Aussen-T/F 1451 10-09-2019 16:14:17 23.5 C 20 %
1452 10-09-2019 16:24:18 24.1 C 20 %
1453 10-09-2019 16:34:17 24.9 C 20 %
1454 10-09-2019 16:44:17 26.8 C 20 %
1455 10-09-2019 16:54:17 21.5 C 20 %
1456 10-09-2019 17:04:18 20 C 20 %
1457 10-09-2019 17:14:18 20.7 C 20 %
1458 10-09-2019 17:24:17 17.8 C 20 %
1459 10-09-2019 17:34:17 17 C 20 %
1460 10-09-2019 17:44:17 17.7 C 20 %
1461 10-09-2019 17:54:18 17.8 C 20 %
1462 10-09-2019 18:04:17 18.3 C 20 %
1463 10-09-2019 18:14:17 18.3 C 20 %
1464 10-09-2019 18:24:17 17.7 C 20 %
1465 10-09-2019 18:34:17 17.3 C 20 %
1466 10-09-2019 18:44:17 16.9 C 20 %
1467 10-09-2019 18:54:18 16.7 C 20 %
1468 10-09-2019 19:04:17 16 C 20 %
1469 10-09-2019 19:14:17 15.4 C 20 %
1470 10-09-2019 19:24:17 15.2 C 20 %
1471 10-09-2019 19:34:17 14.8 C 20 %
1472 10-09-2019 19:44:17 14.3 C 20 %
1473 10-09-2019 19:54:18 14 C 20 %
1474 10-09-2019 20:04:17 13.8 C 20 %
1475 10-09-2019 20:14:17 13.4 C 20 %
Sensor: Nr:Datum:Temp:Feuchte:
Aussen-T/F 1476 10-09-2019 20:24:17 12.9 C 20 %
1477 10-09-2019 20:34:17 12.5 C 20 %
1478 10-09-2019 20:44:17 12.2 C 20 %
1479 10-09-2019 20:54:17 11.9 C 20 %
1480 10-09-2019 21:04:17 11.4 C 20 %
1481 10-09-2019 21:14:17 11.1 C 20 %
1482 10-09-2019 21:24:17 11.1 C 20 %
1483 10-09-2019 21:34:17 10.9 C 20 %
1484 10-09-2019 21:44:17 10.6 C 20 %
1485 10-09-2019 21:54:17 10.3 C 20 %
1486 10-09-2019 22:04:17 10 C 20 %
1487 10-09-2019 22:14:17 9.9 C 20 %
1488 10-09-2019 22:24:17 9.8 C 20 %
1489 10-09-2019 22:34:17 9.7 C 20 %
1490 10-09-2019 22:44:17 9.7 C 20 %
1491 10-09-2019 22:54:18 9.5 C 20 %
1492 10-09-2019 23:04:17 9.3 C 20 %
1493 10-09-2019 23:14:17 9.1 C 20 %
1494 10-09-2019 23:24:18 9 C 20 %
1495 10-09-2019 23:34:17 9.1 C 20 %
1496 10-09-2019 23:44:17 8.9 C 20 %
1497 10-09-2019 23:54:17 8.9 C 20 %
1498 11-09-2019 00:04:17 8.9 C 20 %
1499 11-09-2019 00:14:17 8.8 C 20 %
1500 11-09-2019 00:24:17 8.8 C 20 %
Sensor: Nr:Datum:Temp:Feuchte:
Aussen-T/F 1501 11-09-2019 00:34:17 8.7 C 20 %
1502 11-09-2019 00:44:17 8.5 C 20 %
1503 11-09-2019 00:54:18 8.5 C 20 %
1504 11-09-2019 01:04:17 8.4 C 20 %
1505 11-09-2019 01:14:17 7.9 C 20 %
1506 11-09-2019 01:24:18 7.8 C 20 %
1507 11-09-2019 01:34:17 7.8 C 20 %
1508 11-09-2019 01:44:17 7.5 C 20 %
1509 11-09-2019 01:54:17 7.7 C 20 %
1510 11-09-2019 02:04:17 7.6 C 20 %
1511 11-09-2019 02:14:17 7.3 C 20 %
1512 11-09-2019 02:24:17 7.3 C 20 %
1513 11-09-2019 02:34:17 7.4 C 20 %
1514 11-09-2019 02:44:17 7.2 C 20 %
1515 11-09-2019 02:54:17 7.3 C 20 %
1516 11-09-2019 03:04:17 7 C 20 %
1517 11-09-2019 03:14:17 7 C 20 %
1518 11-09-2019 03:24:17 7 C 20 %
1519 11-09-2019 03:34:17 6.9 C 21 %
1520 11-09-2019 03:44:17 7.1 C 21 %
1521 11-09-2019 03:54:17 6.9 C 23 %
1522 11-09-2019 04:04:17 6.7 C 21 %
1523 11-09-2019 04:14:17 6.6 C 23 %
1524 11-09-2019 04:24:17 6.4 C 23 %
1525 11-09-2019 04:34:17 6.4 C 23 %
Sensor: Nr:Datum:Temp:Feuchte:
Aussen-T/F 1526 11-09-2019 04:44:17 6.5 C 25 %
1527 11-09-2019 04:54:18 6.4 C 25 %
1528 11-09-2019 05:04:17 6.4 C 25 %
1529 11-09-2019 05:14:17 6.3 C 25 %
1530 11-09-2019 05:24:17 6.3 C 25 %
1531 11-09-2019 05:34:17 6.4 C 25 %
1532 11-09-2019 05:44:17 6.4 C 25 %
1533 11-09-2019 05:54:18 6.3 C 25 %
1534 11-09-2019 06:04:17 6.1 C 25 %
1535 11-09-2019 06:14:17 6.1 C 25 %
1536 11-09-2019 06:24:18 6 C 25 %
1537 11-09-2019 06:34:17 6.1 C 25 %
1538 11-09-2019 06:44:17 6.1 C 25 %
1539 11-09-2019 06:54:18 5.8 C 25 %
1540 11-09-2019 07:04:17 5.8 C 25 %
1541 11-09-2019 07:14:17 5.9 C 25 %
1542 11-09-2019 07:24:18 6 C 25 %
1543 11-09-2019 07:34:17 6.3 C 26 %
1544 11-09-2019 07:44:17 6.3 C 25 %
1545 11-09-2019 07:54:17 6.3 C 25 %
1546 11-09-2019 08:04:17 7.3 C 25 %
1547 11-09-2019 08:14:17 7.9 C 21 %
1548 11-09-2019 08:24:18 8.2 C 20 %
1549 11-09-2019 08:34:17 8.8 C 20 %
1550 11-09-2019 08:44:17 9 C 20 %
Sensor: Nr:Datum:Temp:Feuchte:
Aussen-T/F 1551 11-09-2019 08:54:18 9.6 C 20 %
1552 11-09-2019 09:04:17 9.8 C 20 %
1553 11-09-2019 09:14:17 10.2 C 20 %
1554 11-09-2019 09:24:17 10.1 C 20 %
1555 11-09-2019 09:34:17 9.9 C 20 %
1556 11-09-2019 09:44:17 9.6 C 20 %
1557 11-09-2019 09:54:18 9.6 C 20 %
1558 11-09-2019 10:04:17 9.7 C 20 %
1559 11-09-2019 10:14:17 10.5 C 20 %
1560 11-09-2019 10:24:17 11.1 C 20 %
1561 11-09-2019 10:34:17 11.5 C 20 %
1562 11-09-2019 10:44:17 11.6 C 20 %
1563 11-09-2019 10:54:18 12.1 C 20 %
1564 11-09-2019 11:04:17 12.5 C 20 %
1565 11-09-2019 11:14:17 12.8 C 20 %
1566 11-09-2019 11:24:17 13.5 C 20 %
1567 11-09-2019 11:34:17 14.1 C 20 %
1568 11-09-2019 11:44:17 15.1 C 20 %
1569 11-09-2019 11:54:18 15.8 C 20 %
1570 11-09-2019 12:04:17 16.4 C 20 %
1571 11-09-2019 12:14:17 17.3 C 20 %
1572 11-09-2019 12:24:18 18.1 C 20 %
1573 11-09-2019 12:34:17 18.4 C 20 %
1574 11-09-2019 12:44:17 19 C 20 %
1575 11-09-2019 12:54:18 18.9 C 20 %
Sensor: Nr:Datum:Temp:Feuchte:
Aussen-T/F 1576 11-09-2019 13:04:17 19.6 C 20 %
1577 11-09-2019 13:14:17 20.1 C 20 %
1578 11-09-2019 13:24:18 20.7 C 20 %
1579 11-09-2019 13:34:17 20.9 C 20 %
1580 11-09-2019 13:44:17 20.9 C 20 %
1581 11-09-2019 13:54:17 20.6 C 20 %
1582 11-09-2019 14:04:18 21.2 C 20 %
1583 11-09-2019 14:14:18 21.4 C 20 %
1584 11-09-2019 14:24:17 22.2 C 20 %
1585 11-09-2019 14:34:18 22.8 C 20 %
1586 11-09-2019 14:44:18 23.9 C 20 %
1587 11-09-2019 14:54:17 22.9 C 20 %
1588 11-09-2019 15:04:18 22.8 C 20 %
1589 11-09-2019 15:14:18 21.3 C 20 %
1590 11-09-2019 15:24:17 21.2 C 20 %
1591 11-09-2019 15:34:17 21.1 C 20 %
1592 11-09-2019 15:44:17 21 C 20 %
1593 11-09-2019 15:54:17 21.2 C 20 %
1594 11-09-2019 16:04:17 20.8 C 20 %
1595 11-09-2019 16:14:17 20.6 C 20 %
1596 11-09-2019 16:24:18 20.6 C 20 %
1597 11-09-2019 16:34:17 19.1 C 20 %
1598 11-09-2019 16:44:17 19 C 20 %
1599 11-09-2019 16:54:17 19.4 C 20 %
1600 11-09-2019 17:04:17 19.6 C 20 %
Sensor: Nr:Datum:Temp:Feuchte:
Aussen-T/F 1601 11-09-2019 17:14:17 19.7 C 20 %
1602 11-09-2019 17:24:17 19.6 C 20 %
1603 11-09-2019 17:34:17 18.9 C 20 %
1604 11-09-2019 17:44:18 18.8 C 20 %
1605 11-09-2019 17:54:17 19 C 20 %
1606 11-09-2019 18:04:17 19 C 20 %
1607 11-09-2019 18:14:17 18.9 C 20 %
1608 11-09-2019 18:24:17 18.2 C 20 %
1609 11-09-2019 18:34:18 18.1 C 20 %
1610 11-09-2019 18:44:18 17.5 C 20 %
1611 11-09-2019 18:54:17 17.5 C 20 %
1612 11-09-2019 19:04:18 17.6 C 20 %
1613 11-09-2019 19:14:18 17.7 C 20 %
1614 11-09-2019 19:24:17 17.7 C 20 %
1615 11-09-2019 19:34:18 17.2 C 20 %
1616 11-09-2019 19:44:18 17 C 20 %
1617 11-09-2019 19:54:17 16.7 C 20 %
1618 11-09-2019 20:04:17 16.5 C 20 %
1619 11-09-2019 20:14:17 16 C 20 %
1620 11-09-2019 20:24:17 16.5 C 20 %
1621 11-09-2019 20:34:17 16.3 C 20 %
1622 11-09-2019 20:44:17 16.6 C 20 %
1623 11-09-2019 20:54:17 16.4 C 20 %
1624 11-09-2019 21:04:17 16.3 C 20 %
1625 11-09-2019 21:14:17 16.2 C 20 %
Sensor: Nr:Datum:Temp:Feuchte:
Aussen-T/F 1626 11-09-2019 21:24:17 16.3 C 20 %
1627 11-09-2019 21:34:17 16.3 C 20 %
1628 11-09-2019 21:44:17 16.3 C 20 %
1629 11-09-2019 21:54:17 16.7 C 20 %
1630 11-09-2019 22:04:18 16.6 C 20 %
1631 11-09-2019 22:14:18 17 C 20 %
1632 11-09-2019 22:24:17 17.1 C 20 %
1633 11-09-2019 22:34:18 15.6 C 20 %
1634 11-09-2019 22:44:18 15.4 C 20 %
1635 11-09-2019 22:54:17 15.5 C 20 %
1636 11-09-2019 23:04:17 15.6 C 20 %
1637 11-09-2019 23:14:17 15.6 C 20 %
1638 11-09-2019 23:24:17 15.5 C 20 %
1639 11-09-2019 23:34:17 15.2 C 20 %
1640 11-09-2019 23:44:17 15 C 20 %
1641 11-09-2019 23:54:17 15.1 C 20 %
1642 12-09-2019 00:04:17 15.1 C 20 %
1643 12-09-2019 00:14:17 15.4 C 20 %
1644 12-09-2019 00:24:18 15.8 C 20 %
1645 12-09-2019 00:34:17 16.1 C 20 %
1646 12-09-2019 00:44:17 16.5 C 20 %
1647 12-09-2019 00:54:17 16.9 C 20 %
1648 12-09-2019 01:04:17 16.6 C 20 %
1649 12-09-2019 01:14:17 16 C 20 %
1650 12-09-2019 01:24:17 15.9 C 20 %
Sensor: Nr:Datum:Temp:Feuchte:
Aussen-T/F 1651 12-09-2019 01:34:17 16.2 C 20 %
1652 12-09-2019 01:44:17 16.5 C 20 %
1653 12-09-2019 01:54:18 17.2 C 20 %
1654 12-09-2019 02:04:17 17.6 C 20 %
1655 12-09-2019 02:14:17 17.8 C 20 %
1656 12-09-2019 02:24:18 17.9 C 20 %
1657 12-09-2019 02:34:17 18 C 20 %
1658 12-09-2019 02:44:17 17.7 C 20 %
1659 12-09-2019 02:54:18 17.7 C 20 %
1660 12-09-2019 03:04:17 17.5 C 20 %
1661 12-09-2019 03:14:17 17.4 C 20 %
1662 12-09-2019 03:24:18 17.5 C 20 %
1663 12-09-2019 03:34:17 17.5 C 20 %
1664 12-09-2019 03:44:17 17.6 C 20 %
1665 12-09-2019 03:54:18 17.5 C 20 %
1666 12-09-2019 04:04:17 17.4 C 20 %
1667 12-09-2019 04:14:17 17.3 C 20 %
1668 12-09-2019 04:24:18 17.2 C 20 %
1669 12-09-2019 04:34:17 17.3 C 20 %
1670 12-09-2019 04:44:17 17.1 C 20 %
1671 12-09-2019 04:54:18 16.9 C 20 %
1672 12-09-2019 05:04:17 17 C 20 %
1673 12-09-2019 05:14:17 17.1 C 20 %
1674 12-09-2019 05:24:17 17.4 C 20 %
1675 12-09-2019 05:34:17 17.2 C 20 %
Sensor: Nr:Datum:Temp:Feuchte:
Aussen-T/F 1676 12-09-2019 05:44:17 17.2 C 20 %
1677 12-09-2019 05:54:18 17.2 C 20 %
1678 12-09-2019 06:04:17 17.1 C 20 %
1679 12-09-2019 06:14:17 17 C 20 %
1680 12-09-2019 06:24:17 16.9 C 20 %
1681 12-09-2019 06:34:17 16.7 C 20 %
1682 12-09-2019 06:44:17 16.6 C 20 %
1683 12-09-2019 06:54:17 15.8 C 20 %
1684 12-09-2019 07:04:17 15.6 C 20 %
1685 12-09-2019 07:14:17 16 C 20 %
1686 12-09-2019 07:24:17 16.2 C 20 %
1687 12-09-2019 07:34:18 16.2 C 20 %
1688 12-09-2019 07:44:18 16.4 C 20 %
1689 12-09-2019 07:54:17 16.6 C 20 %
1690 12-09-2019 08:04:18 16.8 C 20 %
1691 12-09-2019 08:14:18 16.7 C 20 %
1692 12-09-2019 08:24:17 17.1 C 20 %
1693 12-09-2019 08:34:18 17.2 C 20 %
1694 12-09-2019 08:44:18 17.3 C 20 %
1695 12-09-2019 08:54:17 17.4 C 20 %
1696 12-09-2019 09:04:17 17.5 C 20 %
1697 12-09-2019 09:14:17 17.4 C 20 %
1698 12-09-2019 09:24:17 17.3 C 20 %
1699 12-09-2019 09:34:17 17.5 C 20 %
1700 12-09-2019 09:44:17 17.9 C 20 %
Sensor: Nr:Datum:Temp:Feuchte:
Aussen-T/F 1701 12-09-2019 09:54:17 17.8 C 20 %
1702 12-09-2019 10:04:18 18 C 20 %
1703 12-09-2019 10:14:18 18.1 C 20 %
1704 12-09-2019 10:24:17 18.6 C 20 %
1705 12-09-2019 10:34:17 18.7 C 20 %
1706 12-09-2019 10:44:17 18.5 C 20 %
1707 12-09-2019 10:54:17 18.8 C 20 %
1708 12-09-2019 11:04:18 19.2 C 20 %
1709 12-09-2019 11:14:18 19.3 C 20 %
1710 12-09-2019 11:24:17 19.3 C 20 %
1711 12-09-2019 11:34:17 20.3 C 20 %
1712 12-09-2019 11:44:17 21.2 C 20 %
1713 12-09-2019 11:54:17 20.9 C 20 %
1714 12-09-2019 12:04:18 21 C 20 %
1715 12-09-2019 12:14:18 21.3 C 20 %
1716 12-09-2019 12:24:17 20.8 C 20 %
1717 12-09-2019 12:34:17 20.9 C 20 %
1718 12-09-2019 12:44:17 20.5 C 20 %
1719 12-09-2019 12:54:17 20.3 C 20 %
1720 12-09-2019 13:04:17 21 C 20 %
1721 12-09-2019 13:14:17 21.1 C 20 %
1722 12-09-2019 13:24:17 21.6 C 20 %
1723 12-09-2019 13:34:17 21.6 C 20 %
1724 12-09-2019 13:44:18 22.1 C 20 %
1725 12-09-2019 13:54:17 22.1 C 20 %
Sensor: Nr:Datum:Temp:Feuchte:
Aussen-T/F 1726 12-09-2019 14:04:17 21.6 C 20 %
1727 12-09-2019 14:14:17 21.6 C 20 %
1728 12-09-2019 14:24:17 21.4 C 20 %
1729 12-09-2019 14:34:17 21.1 C 20 %
1730 12-09-2019 14:44:17 21.1 C 20 %
1731 12-09-2019 14:54:18 20.9 C 20 %
1732 12-09-2019 15:04:17 25.7 C 20 %
1733 12-09-2019 15:14:17 28.7 C 20 %
1734 12-09-2019 15:24:17 24.5 C 20 %
1735 12-09-2019 15:34:17 23.4 C 20 %
1736 12-09-2019 15:44:17 22.6 C 20 %
1737 12-09-2019 15:54:17 22.4 C 20 %
1738 12-09-2019 16:04:17 22.6 C 20 %
1739 12-09-2019 16:14:17 24.8 C 20 %
1740 12-09-2019 16:24:18 29.1 C 20 %
1741 12-09-2019 16:34:17 24.3 C 20 %
1742 12-09-2019 16:44:17 26.3 C 20 %
1743 12-09-2019 16:54:17 25 C 20 %
1744 12-09-2019 17:04:17 26.9 C 20 %
1745 12-09-2019 17:14:17 26.7 C 20 %
1746 12-09-2019 17:24:17 25.7 C 20 %
1747 12-09-2019 17:34:17 26.9 C 20 %
1748 12-09-2019 17:44:17 27.1 C 20 %
1749 12-09-2019 17:54:17 24.1 C 20 %
1750 12-09-2019 18:04:18 24.3 C 20 %
Sensor: Nr:Datum:Temp:Feuchte:
Aussen-T/F 1751 12-09-2019 18:14:18 23.8 C 20 %
1752 12-09-2019 18:24:18 23.7 C 20 %
1753 12-09-2019 18:34:17 23.4 C 20 %
1754 12-09-2019 18:44:17 23.1 C 20 %
1755 12-09-2019 18:54:17 22.9 C 20 %
1756 12-09-2019 19:04:17 22.1 C 20 %
1757 12-09-2019 19:14:17 21.6 C 20 %
1758 12-09-2019 19:24:17 21.3 C 20 %
1759 12-09-2019 19:34:17 20.5 C 20 %
1760 12-09-2019 19:44:17 19.9 C 20 %
1761 12-09-2019 19:54:17 19.4 C 20 %
1762 12-09-2019 20:04:17 18.9 C 20 %
1763 12-09-2019 20:14:17 18.8 C 20 %
1764 12-09-2019 20:24:17 18.5 C 20 %
1765 12-09-2019 20:34:18 18.4 C 20 %
1766 12-09-2019 20:44:18 18.3 C 20 %
1767 12-09-2019 20:54:17 18.3 C 20 %
1768 12-09-2019 21:04:18 18.2 C 20 %
1769 12-09-2019 21:14:18 18.5 C 20 %
1770 12-09-2019 21:24:17 18.5 C 20 %
1771 12-09-2019 21:34:18 18.7 C 20 %
1772 12-09-2019 21:44:18 19 C 20 %
1773 12-09-2019 21:54:17 18.9 C 20 %
1774 12-09-2019 22:04:18 18.9 C 20 %
1775 12-09-2019 22:14:18 18.6 C 20 %
Sensor: Nr:Datum:Temp:Feuchte:
Aussen-T/F 1776 12-09-2019 22:24:17 18.6 C 20 %
1777 12-09-2019 22:34:18 18.3 C 20 %
1778 12-09-2019 22:44:18 17.9 C 20 %
1779 12-09-2019 22:54:17 17.2 C 20 %
1780 12-09-2019 23:04:17 16.8 C 20 %
1781 12-09-2019 23:14:17 16.5 C 20 %
1782 12-09-2019 23:24:18 16.3 C 20 %
1783 12-09-2019 23:34:17 16.1 C 20 %
1784 12-09-2019 23:44:17 16 C 20 %
1785 12-09-2019 23:54:18 15.7 C 20 %
1786 13-09-2019 00:04:17 15.6 C 20 %
1787 13-09-2019 00:14:17 15.4 C 20 %
1788 13-09-2019 00:24:18 15.3 C 20 %
1789 13-09-2019 00:34:17 15.1 C 20 %
1790 13-09-2019 00:44:17 15.4 C 20 %
1791 13-09-2019 00:54:17 15.4 C 20 %
1792 13-09-2019 01:04:17 15.3 C 20 %
1793 13-09-2019 01:14:17 15.5 C 20 %
1794 13-09-2019 01:24:17 15.6 C 20 %
1795 13-09-2019 01:34:17 15.4 C 20 %
1796 13-09-2019 01:44:17 15.5 C 20 %
1797 13-09-2019 01:54:18 15.1 C 20 %
1798 13-09-2019 02:04:17 15 C 20 %
1799 13-09-2019 02:14:17 15.5 C 20 %
1800 13-09-2019 02:24:17 15.1 C 20 %
Sensor: Nr:Datum:Temp:Feuchte:
Aussen-T/F 1801 13-09-2019 02:34:17 15 C 20 %
1802 13-09-2019 02:44:18 14.9 C 20 %
1803 13-09-2019 02:54:17 14.7 C 20 %
1804 13-09-2019 03:04:17 14.7 C 20 %
1805 13-09-2019 03:14:17 14.6 C 20 %
1806 13-09-2019 03:24:17 15 C 20 %
1807 13-09-2019 03:34:17 15.2 C 20 %
1808 13-09-2019 03:44:17 15.4 C 20 %
1809 13-09-2019 03:54:17 15.5 C 20 %
1810 13-09-2019 04:04:17 15.6 C 20 %
1811 13-09-2019 04:14:17 15.8 C 20 %
1812 13-09-2019 04:24:17 15.6 C 20 %
1813 13-09-2019 04:34:17 15.9 C 20 %
1814 13-09-2019 04:44:17 15.9 C 20 %
1815 13-09-2019 04:54:18 15.9 C 20 %
1816 13-09-2019 05:04:17 16.3 C 20 %
1817 13-09-2019 05:14:17 16.4 C 20 %
1818 13-09-2019 05:24:17 16.4 C 20 %
1819 13-09-2019 05:34:17 16.3 C 20 %
1820 13-09-2019 05:44:17 16.1 C 20 %
1821 13-09-2019 05:54:17 16.1 C 20 %
1822 13-09-2019 06:04:17 16.1 C 20 %
1823 13-09-2019 06:14:17 16.1 C 20 %
1824 13-09-2019 06:24:17 16.1 C 20 %
1825 13-09-2019 06:34:17 16.3 C 20 %
Sensor: Nr:Datum:Temp:Feuchte:
Aussen-T/F 1826 13-09-2019 06:44:17 16.5 C 20 %
1827 13-09-2019 06:54:18 16.6 C 20 %
1828 13-09-2019 07:04:17 16.4 C 20 %
1829 13-09-2019 07:14:17 16.4 C 20 %
1830 13-09-2019 07:24:17 16.4 C 20 %
1831 13-09-2019 07:34:17 16.6 C 20 %
1832 13-09-2019 07:44:18 16.6 C 20 %
1833 13-09-2019 07:54:17 16.7 C 20 %
1834 13-09-2019 08:04:17 16.8 C 20 %
1835 13-09-2019 08:14:17 16.9 C 20 %
1836 13-09-2019 08:24:17 17.1 C 20 %
1837 13-09-2019 08:34:17 17 C 20 %
1838 13-09-2019 08:44:17 16.7 C 20 %
1839 13-09-2019 08:54:18 17.2 C 20 %
1840 13-09-2019 09:04:17 17.2 C 20 %
1841 13-09-2019 09:14:17 17.5 C 20 %
1842 13-09-2019 09:24:17 17.6 C 20 %
1843 13-09-2019 09:34:17 18.5 C 20 %
1844 13-09-2019 09:44:17 18.5 C 20 %
1845 13-09-2019 09:54:17 18.9 C 20 %
1846 13-09-2019 10:04:18 18.7 C 20 %
1847 13-09-2019 10:14:18 19.2 C 20 %
1848 13-09-2019 10:24:17 19.5 C 20 %
1849 13-09-2019 10:34:18 19.6 C 20 %
1850 13-09-2019 10:44:18 20.1 C 20 %
Sensor: Nr:Datum:Temp:Feuchte:
Aussen-T/F 1851 13-09-2019 10:54:17 20.2 C 20 %
1852 13-09-2019 11:04:17 20.5 C 20 %
1853 13-09-2019 11:14:17 20.5 C 20 %
1854 13-09-2019 11:24:17 20.4 C 20 %
1855 13-09-2019 11:34:17 19.8 C 20 %
1856 13-09-2019 11:44:17 20.1 C 20 %
1857 13-09-2019 11:54:17 20.3 C 20 %
1858 13-09-2019 12:04:17 22.1 C 20 %
1859 13-09-2019 12:14:17 22.5 C 20 %
1860 13-09-2019 12:24:17 22.5 C 20 %
1861 13-09-2019 12:34:17 22.2 C 20 %
1862 13-09-2019 12:44:17 22.3 C 20 %
1863 13-09-2019 12:54:17 21.9 C 20 %
1864 13-09-2019 13:04:17 21.2 C 20 %
1865 13-09-2019 13:14:17 21.7 C 20 %
1866 13-09-2019 13:24:17 21.5 C 20 %
1867 13-09-2019 13:34:17 21.6 C 20 %
1868 13-09-2019 13:44:17 21.4 C 20 %
1869 13-09-2019 13:54:18 21.9 C 20 %
1870 13-09-2019 14:04:17 22.6 C 20 %
1871 13-09-2019 14:14:17 21.9 C 20 %
1872 13-09-2019 14:24:17 21.8 C 20 %
1873 13-09-2019 14:34:17 21.8 C 20 %
1874 13-09-2019 14:44:17 22.5 C 20 %
1875 13-09-2019 14:54:17 21.5 C 20 %
Sensor: Nr:Datum:Temp:Feuchte:
Aussen-T/F 1876 13-09-2019 15:04:17 21.2 C 20 %
1877 13-09-2019 15:14:17 22.3 C 20 %
1878 13-09-2019 15:24:17 22.4 C 20 %
1879 13-09-2019 15:34:17 21.7 C 20 %
1880 13-09-2019 15:44:17 21.5 C 20 %
1881 13-09-2019 15:54:17 20.6 C 20 %
1882 13-09-2019 16:04:17 20.2 C 20 %
1883 13-09-2019 16:14:17 18.9 C 20 %
1884 13-09-2019 16:24:18 18.5 C 20 %
1885 13-09-2019 16:34:17 19.1 C 20 %
1886 13-09-2019 16:44:17 19.1 C 20 %
1887 13-09-2019 16:54:18 19.1 C 20 %
1888 13-09-2019 17:04:17 19.1 C 20 %
1889 13-09-2019 17:14:17 19.2 C 20 %
1890 13-09-2019 17:24:17 19.6 C 20 %
1891 13-09-2019 17:34:17 19.6 C 20 %
1892 13-09-2019 17:44:17 20.1 C 20 %
1893 13-09-2019 17:54:17 19.9 C 20 %
1894 13-09-2019 18:04:17 19.9 C 20 %
1895 13-09-2019 18:14:17 19.9 C 20 %
1896 13-09-2019 18:24:17 20 C 20 %
1897 13-09-2019 18:34:17 20 C 20 %
1898 13-09-2019 18:44:17 19.8 C 20 %
1899 13-09-2019 18:54:17 20 C 20 %
1900 13-09-2019 19:04:17 19.2 C 20 %
Sensor: Nr:Datum:Temp:Feuchte:
Aussen-T/F 1901 13-09-2019 19:14:17 18.5 C 20 %
1902 13-09-2019 19:24:17 17.9 C 20 %
1903 13-09-2019 19:34:17 17.7 C 20 %
1904 13-09-2019 19:44:17 17.5 C 20 %
1905 13-09-2019 19:54:18 17.2 C 20 %
1906 13-09-2019 20:04:17 17.2 C 20 %
1907 13-09-2019 20:14:17 17.3 C 20 %
1908 13-09-2019 20:24:17 17.5 C 20 %
1909 13-09-2019 20:34:17 17.3 C 20 %
1910 13-09-2019 20:44:17 16.9 C 20 %
1911 13-09-2019 20:54:18 16.7 C 20 %
1912 13-09-2019 21:04:17 16.6 C 20 %
1913 13-09-2019 21:14:17 16.8 C 20 %
1914 13-09-2019 21:24:17 16.7 C 20 %
1915 13-09-2019 21:34:17 16.4 C 20 %
1916 13-09-2019 21:44:17 16.3 C 20 %
1917 13-09-2019 21:54:18 16.1 C 20 %
1918 13-09-2019 22:04:17 16.2 C 20 %
1919 13-09-2019 22:14:17 16 C 20 %
1920 13-09-2019 22:24:18 15.8 C 20 %
1921 13-09-2019 22:34:17 15.5 C 20 %
1922 13-09-2019 22:44:17 15.3 C 21 %
1923 13-09-2019 22:54:17 15.2 C 21 %
1924 13-09-2019 23:04:17 14.8 C 21 %
1925 13-09-2019 23:14:17 14.8 C 22 %
Sensor: Nr:Datum:Temp:Feuchte:
Aussen-T/F 1926 13-09-2019 23:24:18 14.6 C 22 %
1927 13-09-2019 23:34:17 14.8 C 23 %
1928 13-09-2019 23:44:17 15.3 C 23 %
1929 13-09-2019 23:54:17 15.2 C 23 %
1930 14-09-2019 00:04:17 15.2 C 22 %
1931 14-09-2019 00:14:17 15 C 22 %
1932 14-09-2019 00:24:17 15 C 22 %
1933 14-09-2019 00:34:17 14.7 C 23 %
1934 14-09-2019 00:44:17 14.6 C 23 %
1935 14-09-2019 00:54:17 14.5 C 23 %
1936 14-09-2019 01:04:17 14.4 C 24 %
1937 14-09-2019 01:14:17 14.1 C 23 %
1938 14-09-2019 01:24:17 14 C 23 %
1939 14-09-2019 01:34:17 13.7 C 24 %
1940 14-09-2019 01:44:17 13.5 C 23 %
1941 14-09-2019 01:54:18 13.4 C 25 %
1942 14-09-2019 02:04:17 13 C 23 %
1943 14-09-2019 02:14:17 12.9 C 25 %
1944 14-09-2019 02:24:17 12.9 C 25 %
1945 14-09-2019 02:34:18 12.6 C 25 %
1946 14-09-2019 02:44:18 12.4 C 25 %
1947 14-09-2019 02:54:17 12.2 C 25 %
1948 14-09-2019 03:04:17 12.2 C 25 %
1949 14-09-2019 03:14:17 12.2 C 26 %
1950 14-09-2019 03:24:18 12 C 25 %
Sensor: Nr:Datum:Temp:Feuchte:
Aussen-T/F 1951 14-09-2019 03:34:17 11.8 C 26 %
1952 14-09-2019 03:44:17 11.7 C 26 %
1953 14-09-2019 03:54:17 11.7 C 26 %
1954 14-09-2019 04:04:17 11.3 C 26 %
1955 14-09-2019 04:14:17 11.5 C 27 %
1956 14-09-2019 04:24:17 11.3 C 26 %
1957 14-09-2019 04:34:17 11.2 C 27 %
1958 14-09-2019 04:44:17 11.1 C 26 %
1959 14-09-2019 04:54:17 11 C 26 %
1960 14-09-2019 05:04:17 10.7 C 26 %
1961 14-09-2019 05:14:17 10.8 C 27 %
1962 14-09-2019 05:24:17 10.6 C 27 %
1963 14-09-2019 05:34:17 10.6 C 27 %
1964 14-09-2019 05:44:17 10.4 C 26 %
1965 14-09-2019 05:54:18 10.4 C 27 %
1966 14-09-2019 06:04:17 10.4 C 27 %
1967 14-09-2019 06:14:18 10.5 C 27 %
1968 14-09-2019 06:24:17 10.3 C 26 %
1969 14-09-2019 06:34:17 10.1 C 26 %
1970 14-09-2019 06:44:17 9.8 C 26 %
1971 14-09-2019 06:54:17 9.8 C 27 %
1972 14-09-2019 07:04:18 9.7 C 27 %
1973 14-09-2019 07:14:18 9.7 C 28 %
1974 14-09-2019 07:24:17 9.6 C 27 %
1975 14-09-2019 07:34:18 9.7 C 28 %
Sensor: Nr:Datum:Temp:Feuchte:
Aussen-T/F 1976 14-09-2019 07:44:18 10.1 C 28 %
1977 14-09-2019 07:54:17 9.9 C 28 %
1978 14-09-2019 08:04:18 9.8 C 27 %
1979 14-09-2019 08:14:18 9.8 C 27 %
1980 14-09-2019 08:24:17 10.1 C 27 %
1981 14-09-2019 08:34:18 10.1 C 26 %
1982 14-09-2019 08:44:18 10.1 C 26 %
1983 14-09-2019 08:54:17 10.3 C 27 %
1984 14-09-2019 09:04:18 10.3 C 26 %
1985 14-09-2019 09:14:18 10.6 C 26 %
1986 14-09-2019 09:24:17 10.7 C 26 %
1987 14-09-2019 09:34:18 10.9 C 26 %
1988 14-09-2019 09:44:18 11.2 C 25 %
1989 14-09-2019 09:54:17 11.6 C 25 %
1990 14-09-2019 10:04:18 11.7 C 25 %
1991 14-09-2019 10:14:18 12 C 25 %
1992 14-09-2019 10:24:17 12.2 C 24 %
1993 14-09-2019 10:34:18 12.6 C 21 %
1994 14-09-2019 10:44:18 13 C 20 %
1995 14-09-2019 10:54:17 13.3 C 20 %
1996 14-09-2019 11:04:18 13.5 C 20 %
1997 14-09-2019 11:14:18 13.8 C 20 %
1998 14-09-2019 11:24:17 14 C 20 %
1999 14-09-2019 11:34:17 14.2 C 20 %
2000 14-09-2019 11:44:17 14.6 C 20 %
Sensor: Nr:Datum:Temp:Feuchte:
Aussen-T/F 2001 14-09-2019 11:54:17 14.7 C 20 %
2002 14-09-2019 12:04:17 15 C 20 %
2003 14-09-2019 12:14:17 15.5 C 20 %
2004 14-09-2019 12:24:17 16.2 C 20 %
2005 14-09-2019 12:34:17 16.7 C 20 %
2006 14-09-2019 12:44:17 16.6 C 20 %
2007 14-09-2019 12:54:18 16.7 C 20 %
2008 14-09-2019 13:04:17 17.1 C 20 %
2009 14-09-2019 13:14:17 17.5 C 20 %
2010 14-09-2019 13:24:17 17.9 C 20 %
2011 14-09-2019 13:34:17 18.4 C 20 %
2012 14-09-2019 13:44:17 18.7 C 20 %
2013 14-09-2019 13:54:18 19.4 C 20 %
2014 14-09-2019 14:04:17 19.7 C 20 %
2015 14-09-2019 14:14:17 21.2 C 20 %
2016 14-09-2019 14:24:17 22.3 C 20 %
2017 14-09-2019 14:34:17 25 C 20 %
2018 14-09-2019 14:44:17 25.7 C 20 %
2019 14-09-2019 14:54:18 25 C 20 %
2020 14-09-2019 15:04:17 26.5 C 20 %
2021 14-09-2019 15:14:17 26.8 C 20 %
2022 14-09-2019 15:24:17 28.6 C 20 %
2023 14-09-2019 15:34:17 30.8 C 20 %
2024 14-09-2019 15:44:17 28.8 C 20 %
2025 14-09-2019 15:54:17 29.8 C 20 %
Sensor: Nr:Datum:Temp:Feuchte:
Aussen-T/F 2026 14-09-2019 16:04:17 30 C 20 %
2027 14-09-2019 16:14:17 29.2 C 20 %
2028 14-09-2019 16:24:17 28.9 C 20 %
2029 14-09-2019 16:34:17 28.4 C 20 %
2030 14-09-2019 16:44:17 30.5 C 20 %
2031 14-09-2019 16:54:17 30.5 C 20 %
2032 14-09-2019 17:04:17 30.8 C 20 %
2033 14-09-2019 17:14:17 29.5 C 20 %
2034 14-09-2019 17:24:17 27.8 C 20 %
2035 14-09-2019 17:34:17 27.6 C 20 %
2036 14-09-2019 17:44:18 25.4 C 20 %
2037 14-09-2019 17:54:17 24.2 C 20 %
2038 14-09-2019 18:04:18 24 C 20 %
2039 14-09-2019 18:14:18 23.1 C 20 %
2040 14-09-2019 18:24:17 22.5 C 20 %
2041 14-09-2019 18:34:17 21.8 C 20 %
2042 14-09-2019 18:44:17 21.1 C 20 %
2043 14-09-2019 18:54:17 20.5 C 20 %
2044 14-09-2019 19:04:18 19.8 C 20 %
2045 14-09-2019 19:14:18 19.3 C 20 %
2046 14-09-2019 19:24:17 18.6 C 20 %
2047 14-09-2019 19:34:17 17.8 C 20 %
2048 14-09-2019 19:44:17 17.6 C 20 %
2049 14-09-2019 19:54:17 17.2 C 20 %
2050 14-09-2019 20:04:18 16.6 C 20 %
Sensor: Nr:Datum:Temp:Feuchte:
Aussen-T/F 2051 14-09-2019 20:14:18 16.6 C 20 %
2052 14-09-2019 20:24:17 16.5 C 20 %
2053 14-09-2019 20:34:18 16.2 C 20 %
2054 14-09-2019 20:44:18 16 C 20 %
2055 14-09-2019 20:54:17 16 C 20 %
2056 14-09-2019 21:04:18 15.9 C 20 %
2057 14-09-2019 21:14:18 15.5 C 20 %
2058 14-09-2019 21:24:17 15.3 C 20 %
2059 14-09-2019 21:34:18 14.8 C 20 %
2060 14-09-2019 21:44:18 14.4 C 20 %
2061 14-09-2019 21:54:17 14 C 20 %
2062 14-09-2019 22:04:17 13.5 C 20 %
2063 14-09-2019 22:14:17 13.1 C 20 %
2064 14-09-2019 22:24:18 13.1 C 20 %
2065 14-09-2019 22:34:17 12.9 C 20 %
2066 14-09-2019 22:44:17 12.9 C 20 %
2067 14-09-2019 22:54:17 12.4 C 20 %
2068 14-09-2019 23:04:17 12.1 C 20 %
2069 14-09-2019 23:14:17 12.2 C 20 %
2070 14-09-2019 23:24:17 12 C 20 %
2071 14-09-2019 23:34:18 12 C 20 %
2072 14-09-2019 23:44:18 11.7 C 20 %
2073 14-09-2019 23:54:17 11.4 C 20 %
2074 15-09-2019 00:04:17 11.2 C 20 %
2075 15-09-2019 00:14:17 11.1 C 20 %
Sensor: Nr:Datum:Temp:Feuchte:
Aussen-T/F 2076 15-09-2019 00:24:18 10.9 C 20 %
2077 15-09-2019 00:34:17 11 C 20 %
2078 15-09-2019 00:44:17 10.8 C 20 %
2079 15-09-2019 00:54:17 10.6 C 20 %
2080 15-09-2019 01:04:17 10.4 C 20 %
2081 15-09-2019 01:14:17 10.2 C 20 %
2082 15-09-2019 01:24:17 10.3 C 20 %
2083 15-09-2019 01:34:17 10.3 C 20 %
2084 15-09-2019 01:44:18 10 C 20 %
2085 15-09-2019 01:54:17 9.8 C 20 %
2086 15-09-2019 02:04:17 9.9 C 20 %
2087 15-09-2019 02:14:17 10.1 C 20 %
2088 15-09-2019 02:24:17 10.1 C 20 %
2089 15-09-2019 02:34:17 10 C 20 %
2090 15-09-2019 02:44:17 9.7 C 20 %
2091 15-09-2019 02:54:18 9.6 C 20 %
2092 15-09-2019 03:04:17 9.6 C 20 %
2093 15-09-2019 03:14:17 9.9 C 20 %
2094 15-09-2019 03:24:17 9.7 C 20 %
2095 15-09-2019 03:34:17 9.4 C 20 %
2096 15-09-2019 03:44:17 9.7 C 25 %
2097 15-09-2019 03:54:17 9.4 C 20 %
2098 15-09-2019 04:04:17 9.5 C 21 %
2099 15-09-2019 04:14:17 9.4 C 21 %
2100 15-09-2019 04:24:17 9.4 C 21 %
Sensor: Nr:Datum:Temp:Feuchte:
Aussen-T/F 2101 15-09-2019 04:34:17 9.5 C 21 %
2102 15-09-2019 04:44:17 9 C 21 %
2103 15-09-2019 04:54:17 9 C 21 %
2104 15-09-2019 05:04:17 8.9 C 23 %
2105 15-09-2019 05:14:17 8.9 C 25 %
2106 15-09-2019 05:24:17 8.7 C 25 %
2107 15-09-2019 05:34:17 8.9 C 25 %
2108 15-09-2019 05:44:18 8.7 C 25 %
2109 15-09-2019 05:54:17 8.5 C 25 %
2110 15-09-2019 06:04:17 8.8 C 25 %
2111 15-09-2019 06:14:17 8.4 C 25 %
2112 15-09-2019 06:24:17 8.1 C 25 %
2113 15-09-2019 06:34:18 8 C 25 %
2114 15-09-2019 06:44:18 8 C 26 %
2115 15-09-2019 06:54:17 8.1 C 26 %
2116 15-09-2019 07:04:17 8.1 C 26 %
2117 15-09-2019 07:14:17 8.4 C 26 %
2118 15-09-2019 07:24:18 8.4 C 26 %
2119 15-09-2019 07:34:17 8.5 C 26 %
2120 15-09-2019 07:44:17 8.5 C 26 %
2121 15-09-2019 07:54:17 8.5 C 26 %
2122 15-09-2019 08:04:17 8.6 C 26 %
2123 15-09-2019 08:14:17 8.9 C 26 %
2124 15-09-2019 08:24:18 8.9 C 26 %
2125 15-09-2019 08:34:17 9.1 C 25 %
Sensor: Nr:Datum:Temp:Feuchte:
Aussen-T/F 2126 15-09-2019 08:44:17 9.3 C 25 %
2127 15-09-2019 08:54:17 9.3 C 25 %
2128 15-09-2019 09:04:17 9.3 C 25 %
2129 15-09-2019 09:14:17 9.8 C 25 %
2130 15-09-2019 09:24:17 9.8 C 25 %
2131 15-09-2019 09:34:17 10.1 C 23 %
2132 15-09-2019 09:44:17 10.2 C 23 %
2133 15-09-2019 09:54:17 10.3 C 25 %
2134 15-09-2019 10:04:18 10.5 C 25 %
2135 15-09-2019 10:14:18 10.7 C 25 %
2136 15-09-2019 10:24:17 11.3 C 24 %
2137 15-09-2019 10:34:18 11.8 C 23 %
2138 15-09-2019 10:44:18 12 C 21 %
2139 15-09-2019 10:54:17 12.9 C 20 %
2140 15-09-2019 11:04:18 13.3 C 20 %
2141 15-09-2019 11:14:18 13.9 C 20 %
2142 15-09-2019 11:24:17 14.2 C 20 %
2143 15-09-2019 11:34:18 14.5 C 20 %
2144 15-09-2019 11:44:18 15 C 20 %
2145 15-09-2019 11:54:17 15.4 C 20 %
2146 15-09-2019 12:04:18 15.8 C 20 %
2147 15-09-2019 12:14:18 16.3 C 20 %
2148 15-09-2019 12:24:17 16.8 C 20 %
2149 15-09-2019 12:34:17 17.2 C 20 %
2150 15-09-2019 12:44:17 18.3 C 20 %
Sensor: Nr:Datum:Temp:Feuchte:
Aussen-T/F 2151 15-09-2019 12:54:17 18.9 C 20 %
2152 15-09-2019 13:04:17 19.7 C 20 %
2153 15-09-2019 13:14:17 19.9 C 20 %
2154 15-09-2019 13:24:18 20.4 C 20 %
2155 15-09-2019 13:34:17 20.8 C 20 %
2156 15-09-2019 13:44:17 21.3 C 20 %
2157 15-09-2019 13:54:17 21.9 C 20 %
2158 15-09-2019 14:04:17 22.4 C 20 %
2159 15-09-2019 14:14:17 25 C 20 %
2160 15-09-2019 14:24:17 24.6 C 20 %
2161 15-09-2019 14:34:17 27 C 20 %
2162 15-09-2019 14:44:17 27.8 C 20 %
2163 15-09-2019 14:54:17 27.5 C 20 %
2164 15-09-2019 15:04:17 29.2 C 20 %
2165 15-09-2019 15:14:17 28.3 C 20 %
2166 15-09-2019 15:24:17 31.4 C 20 %
2167 15-09-2019 15:34:17 30.1 C 20 %
2168 15-09-2019 15:44:17 31.6 C 20 %
2169 15-09-2019 15:54:17 29.5 C 20 %
2170 15-09-2019 16:04:18 31.8 C 20 %
2171 15-09-2019 16:14:18 28.8 C 20 %
2172 15-09-2019 16:24:17 28.1 C 20 %
2173 15-09-2019 16:34:17 28.7 C 20 %
2174 15-09-2019 16:44:17 29.3 C 20 %
2175 15-09-2019 16:54:17 29.4 C 20 %
Sensor: Nr:Datum:Temp:Feuchte:
Aussen-T/F 2176 15-09-2019 17:04:18 30.1 C 20 %
2177 15-09-2019 17:14:18 30.1 C 20 %
2178 15-09-2019 17:24:17 28.8 C 20 %
2179 15-09-2019 17:34:18 29.3 C 20 %
2180 15-09-2019 17:44:18 27 C 20 %
2181 15-09-2019 17:54:17 26.2 C 20 %
2182 15-09-2019 18:04:17 26.1 C 20 %
2183 15-09-2019 18:14:17 25.5 C 20 %
2184 15-09-2019 18:24:17 24.9 C 20 %
2185 15-09-2019 18:34:17 24.8 C 20 %
2186 15-09-2019 18:44:17 23.8 C 20 %
2187 15-09-2019 18:54:18 23.3 C 20 %
2188 15-09-2019 19:04:17 22.6 C 20 %
2189 15-09-2019 19:14:17 21.3 C 20 %
2190 15-09-2019 19:24:17 19.9 C 20 %
2191 15-09-2019 19:34:17 19.1 C 20 %
2192 15-09-2019 19:44:17 18.8 C 20 %
2193 15-09-2019 19:54:18 18.6 C 20 %
2194 15-09-2019 20:04:17 18.2 C 20 %
2195 15-09-2019 20:14:17 17.7 C 20 %
2196 15-09-2019 20:24:17 17.6 C 20 %
2197 15-09-2019 20:34:18 17.4 C 20 %
2198 15-09-2019 20:44:18 17.2 C 20 %
2199 15-09-2019 20:54:17 17.1 C 20 %
2200 15-09-2019 21:04:17 16.8 C 20 %
Sensor: Nr:Datum:Temp:Feuchte:
Aussen-T/F 2201 15-09-2019 21:14:18 16.3 C 20 %
2202 15-09-2019 21:24:17 16.2 C 20 %
2203 15-09-2019 21:34:17 15.6 C 20 %
2204 15-09-2019 21:44:17 15.4 C 20 %
2205 15-09-2019 21:54:17 14.7 C 20 %
2206 15-09-2019 22:04:18 14.4 C 20 %
2207 15-09-2019 22:14:18 13.9 C 20 %
2208 15-09-2019 22:24:17 13.7 C 20 %
2209 15-09-2019 22:34:18 13.6 C 20 %
2210 15-09-2019 22:44:18 13.4 C 20 %
2211 15-09-2019 22:54:17 12.8 C 20 %
2212 15-09-2019 23:04:18 12.5 C 20 %
2213 15-09-2019 23:14:18 12.3 C 20 %
2214 15-09-2019 23:24:17 12.4 C 20 %
2215 15-09-2019 23:34:18 12.1 C 20 %
2216 15-09-2019 23:44:18 12 C 20 %
2217 15-09-2019 23:54:17 12.3 C 20 %
2218 16-09-2019 00:04:18 12.4 C 20 %
2219 16-09-2019 00:14:18 12.3 C 20 %
2220 16-09-2019 00:24:17 12.2 C 20 %
2221 16-09-2019 00:34:18 12.1 C 20 %
2222 16-09-2019 00:44:18 11.9 C 20 %
2223 16-09-2019 00:54:17 12 C 20 %
2224 16-09-2019 01:04:18 12.1 C 20 %
2225 16-09-2019 01:14:18 12.2 C 20 %
Sensor: Nr:Datum:Temp:Feuchte:
Aussen-T/F 2226 16-09-2019 01:24:17 12 C 20 %
2227 16-09-2019 01:34:18 11.8 C 20 %
2228 16-09-2019 01:44:18 11.6 C 20 %
2229 16-09-2019 01:54:17 11.3 C 20 %
2230 16-09-2019 02:04:18 11.1 C 20 %
2231 16-09-2019 02:14:18 11.2 C 20 %
2232 16-09-2019 02:24:17 11.2 C 20 %
2233 16-09-2019 02:34:17 10.9 C 20 %
2234 16-09-2019 02:44:17 11 C 20 %
2235 16-09-2019 02:54:17 11 C 20 %
2236 16-09-2019 03:04:17 10.7 C 20 %
2237 16-09-2019 03:14:17 10.4 C 20 %
2238 16-09-2019 03:24:17 10.9 C 20 %
2239 16-09-2019 03:34:17 10.8 C 20 %
2240 16-09-2019 03:44:17 10.8 C 20 %
2241 16-09-2019 03:54:17 11.3 C 20 %
2242 16-09-2019 04:04:17 11.3 C 20 %
2243 16-09-2019 04:14:17 11.4 C 20 %
2244 16-09-2019 04:24:18 11.5 C 20 %
2245 16-09-2019 04:34:17 11.6 C 20 %
2246 16-09-2019 04:44:17 11.5 C 20 %
2247 16-09-2019 04:54:17 11.6 C 20 %
2248 16-09-2019 05:04:18 11.5 C 20 %
2249 16-09-2019 05:14:18 11.2 C 20 %
2250 16-09-2019 05:24:17 11.1 C 20 %
Sensor: Nr:Datum:Temp:Feuchte:
Aussen-T/F 2251 16-09-2019 05:34:17 11.1 C 20 %
2252 16-09-2019 05:44:17 10.9 C 20 %
2253 16-09-2019 05:54:17 11.2 C 20 %
2254 16-09-2019 06:04:17 11 C 20 %
2255 16-09-2019 06:14:18 11.1 C 20 %
2256 16-09-2019 06:24:18 11.1 C 20 %
2257 16-09-2019 06:34:17 10.9 C 20 %
2258 16-09-2019 06:44:17 10.9 C 20 %
2259 16-09-2019 06:54:17 11.2 C 20 %
2260 16-09-2019 07:04:17 11.1 C 20 %
2261 16-09-2019 07:14:17 11.1 C 20 %
2262 16-09-2019 07:24:17 11.3 C 20 %
2263 16-09-2019 07:34:17 11.4 C 20 %
2264 16-09-2019 07:44:17 11.5 C 20 %
2265 16-09-2019 07:54:18 11.6 C 20 %
2266 16-09-2019 08:04:17 11.8 C 20 %
2267 16-09-2019 08:14:17 12.2 C 20 %
2268 16-09-2019 08:24:17 12.4 C 20 %
2269 16-09-2019 08:34:17 12.7 C 20 %
2270 16-09-2019 08:44:17 13 C 20 %
2271 16-09-2019 08:54:17 12.9 C 20 %
2272 16-09-2019 09:04:17 13.2 C 20 %
2273 16-09-2019 09:14:17 13.2 C 20 %
2274 16-09-2019 09:24:18 13.6 C 20 %
2275 16-09-2019 09:34:17 14.5 C 20 %
Sensor: Nr:Datum:Temp:Feuchte:
Aussen-T/F 2276 16-09-2019 09:44:17 14.5 C 20 %
2277 16-09-2019 09:54:18 15.2 C 20 %
2278 16-09-2019 10:04:17 15 C 20 %
2279 16-09-2019 10:14:17 15.4 C 20 %
2280 16-09-2019 10:24:17 16 C 20 %
2281 16-09-2019 10:34:17 16.6 C 20 %
2282 16-09-2019 10:44:17 16.8 C 20 %
2283 16-09-2019 10:54:18 16.9 C 20 %
2284 16-09-2019 11:04:17 17.5 C 20 %
2285 16-09-2019 11:14:17 18.3 C 20 %
2286 16-09-2019 11:24:18 18.8 C 20 %
2287 16-09-2019 11:34:17 19.1 C 20 %
2288 16-09-2019 11:44:17 20.1 C 20 %
2289 16-09-2019 11:54:17 20.2 C 20 %
2290 16-09-2019 12:04:17 20.3 C 20 %
2291 16-09-2019 12:14:17 20.8 C 20 %
2292 16-09-2019 12:24:17 20.8 C 20 %
2293 16-09-2019 12:34:17 20.7 C 20 %
2294 16-09-2019 12:44:17 20.8 C 20 %
2295 16-09-2019 12:54:17 21.6 C 20 %
2296 16-09-2019 13:04:17 21.6 C 20 %
2297 16-09-2019 13:14:17 21.8 C 20 %
2298 16-09-2019 13:24:17 22 C 20 %
2299 16-09-2019 13:34:17 23.3 C 20 %
2300 16-09-2019 13:44:17 22.5 C 20 %
Sensor: Nr:Datum:Temp:Feuchte:
Aussen-T/F 2301 16-09-2019 13:54:17 22.5 C 20 %
2302 16-09-2019 14:04:17 23.1 C 20 %
2303 16-09-2019 14:14:17 23.1 C 20 %
2304 16-09-2019 14:24:17 22.9 C 20 %
2305 16-09-2019 14:34:18 23.1 C 20 %
2306 16-09-2019 14:44:18 22.5 C 20 %
2307 16-09-2019 14:54:17 22.5 C 20 %
2308 16-09-2019 15:04:17 22.9 C 20 %
2309 16-09-2019 15:14:18 22.4 C 20 %
2310 16-09-2019 15:24:17 22.5 C 20 %
2311 16-09-2019 15:34:18 22.2 C 20 %
2312 16-09-2019 15:44:18 22.3 C 20 %
2313 16-09-2019 15:54:17 22.4 C 20 %
2314 16-09-2019 16:04:18 22.5 C 20 %
2315 16-09-2019 16:14:18 22.6 C 20 %
2316 16-09-2019 16:24:17 22.5 C 20 %
2317 16-09-2019 16:34:18 22.8 C 20 %
2318 16-09-2019 16:44:18 22.8 C 20 %
2319 16-09-2019 16:54:17 22.8 C 20 %
2320 16-09-2019 17:04:17 22.6 C 20 %
2321 16-09-2019 17:14:18 22.3 C 20 %
2322 16-09-2019 17:24:17 22.2 C 20 %
2323 16-09-2019 17:34:17 21.8 C 20 %
2324 16-09-2019 17:44:17 21.6 C 20 %
2325 16-09-2019 17:54:17 21.1 C 20 %
Sensor: Nr:Datum:Temp:Feuchte:
Aussen-T/F 2326 16-09-2019 18:04:18 20.9 C 20 %
2327 16-09-2019 18:14:18 20.8 C 20 %
2328 16-09-2019 18:24:17 20.7 C 20 %
2329 16-09-2019 18:34:18 20.4 C 20 %
2330 16-09-2019 18:44:18 20.2 C 20 %
2331 16-09-2019 18:54:17 20 C 20 %
2332 16-09-2019 19:04:17 19.9 C 20 %
2333 16-09-2019 19:14:17 20 C 20 %
2334 16-09-2019 19:24:17 19.5 C 20 %
2335 16-09-2019 19:34:18 19.1 C 20 %
2336 16-09-2019 19:44:18 18.1 C 20 %
2337 16-09-2019 19:54:17 17.6 C 20 %
2338 16-09-2019 20:04:18 17.1 C 20 %
2339 16-09-2019 20:14:18 16.5 C 20 %
2340 16-09-2019 20:24:17 16.5 C 20 %
2341 16-09-2019 20:34:17 16.5 C 20 %
2342 16-09-2019 20:44:17 16.3 C 20 %
2343 16-09-2019 20:54:17 16.3 C 20 %
2344 16-09-2019 21:04:17 16.5 C 20 %
2345 16-09-2019 21:14:17 16.4 C 20 %
2346 16-09-2019 21:24:18 16.5 C 20 %
2347 16-09-2019 21:34:17 16.5 C 20 %
2348 16-09-2019 21:44:17 16.5 C 20 %
2349 16-09-2019 21:54:18 16.4 C 20 %
2350 16-09-2019 22:04:17 16.4 C 20 %
Sensor: Nr:Datum:Temp:Feuchte:
Aussen-T/F 2351 16-09-2019 22:14:17 16.4 C 20 %
2352 16-09-2019 22:24:18 16.3 C 20 %
2353 16-09-2019 22:34:17 16.3 C 20 %
2354 16-09-2019 22:44:17 16 C 20 %
2355 16-09-2019 22:54:17 15.4 C 20 %
2356 16-09-2019 23:04:18 15.1 C 20 %
2357 16-09-2019 23:14:18 14.8 C 20 %
2358 16-09-2019 23:24:17 14.9 C 20 %
2359 16-09-2019 23:34:17 14.8 C 20 %
2360 16-09-2019 23:44:17 14.9 C 20 %
2361 16-09-2019 23:54:17 14.9 C 20 %
2362 17-09-2019 00:04:18 14.7 C 20 %
2363 17-09-2019 00:14:18 14.8 C 20 %
2364 17-09-2019 00:24:17 14.9 C 20 %
2365 17-09-2019 00:34:17 14.8 C 20 %
2366 17-09-2019 00:44:17 14.8 C 20 %
2367 17-09-2019 00:54:17 14.7 C 20 %
2368 17-09-2019 01:04:18 14.5 C 20 %
2369 17-09-2019 01:14:18 14.6 C 20 %
2370 17-09-2019 01:24:17 14.6 C 20 %
2371 17-09-2019 01:34:18 14.6 C 20 %
2372 17-09-2019 01:44:18 14.6 C 20 %
2373 17-09-2019 01:54:17 14.6 C 20 %
2374 17-09-2019 02:04:17 14.5 C 20 %
2375 17-09-2019 02:14:17 14.5 C 20 %
Sensor: Nr:Datum:Temp:Feuchte:
Aussen-T/F 2376 17-09-2019 02:24:17 14.5 C 20 %
2377 17-09-2019 02:34:18 14.4 C 20 %
2378 17-09-2019 02:44:18 14.4 C 20 %
2379 17-09-2019 02:54:17 14.4 C 20 %
2380 17-09-2019 03:04:18 14.4 C 20 %
2381 17-09-2019 03:14:18 14.4 C 20 %
2382 17-09-2019 03:24:17 14.3 C 20 %
2383 17-09-2019 03:34:17 14.3 C 20 %
2384 17-09-2019 03:44:17 14.3 C 20 %
2385 17-09-2019 03:54:17 14.3 C 20 %
2386 17-09-2019 04:04:17 14.1 C 20 %
2387 17-09-2019 04:14:17 14.1 C 20 %
2388 17-09-2019 04:24:17 14.1 C 20 %
2389 17-09-2019 04:34:17 14.1 C 20 %
2390 17-09-2019 04:44:17 14.1 C 20 %
2391 17-09-2019 04:54:17 14.1 C 20 %
2392 17-09-2019 05:04:18 14 C 20 %
2393 17-09-2019 05:14:18 14 C 20 %
2394 17-09-2019 05:24:17 14 C 20 %
2395 17-09-2019 05:34:18 14 C 20 %
2396 17-09-2019 05:44:18 14 C 20 %
2397 17-09-2019 05:54:17 14 C 20 %
2398 17-09-2019 06:04:17 14 C 20 %
2399 17-09-2019 06:14:17 14 C 20 %
2400 17-09-2019 06:24:17 14 C 20 %
Sensor: Nr:Datum:Temp:Feuchte:
Aussen-T/F 2401 17-09-2019 06:34:17 14 C 20 %
2402 17-09-2019 06:44:17 13.9 C 20 %
2403 17-09-2019 06:54:17 13.9 C 20 %
2404 17-09-2019 07:04:17 13.8 C 20 %
2405 17-09-2019 07:14:17 13.8 C 20 %
2406 17-09-2019 07:24:18 13.8 C 20 %
2407 17-09-2019 07:34:17 13.8 C 20 %
2408 17-09-2019 07:44:17 13.9 C 20 %
2409 17-09-2019 07:54:18 14 C 20 %
2410 17-09-2019 08:04:17 14.1 C 20 %
2411 17-09-2019 08:14:17 14 C 20 %
2412 17-09-2019 08:24:17 13.7 C 20 %
2413 17-09-2019 08:34:17 13.5 C 20 %
2414 17-09-2019 08:44:17 13.5 C 20 %
2415 17-09-2019 08:54:18 13.7 C 20 %
2416 17-09-2019 09:04:17 13.9 C 20 %
2417 17-09-2019 09:14:17 13.6 C 20 %
2418 17-09-2019 09:24:18 13.3 C 20 %
2419 17-09-2019 09:34:17 13.7 C 20 %
2420 17-09-2019 09:44:17 14 C 20 %
2421 17-09-2019 09:54:18 14.2 C 20 %
2422 17-09-2019 10:04:17 14.2 C 20 %
2423 17-09-2019 10:14:17 15.3 C 20 %
2424 17-09-2019 10:24:18 15.1 C 20 %
2425 17-09-2019 10:34:17 15.2 C 20 %
Sensor: Nr:Datum:Temp:Feuchte:
Aussen-T/F 2426 17-09-2019 10:44:17 16 C 20 %
2427 17-09-2019 10:54:18 15.9 C 20 %
2428 17-09-2019 11:04:17 15.9 C 20 %
2429 17-09-2019 11:14:17 16.3 C 20 %
2430 17-09-2019 11:24:17 16.4 C 20 %
2431 17-09-2019 11:34:18 15.7 C 20 %
2432 17-09-2019 11:44:18 16.7 C 20 %
2433 17-09-2019 11:54:17 16.5 C 20 %
2434 17-09-2019 12:04:18 16.7 C 20 %
2435 17-09-2019 12:14:18 16.3 C 20 %
2436 17-09-2019 12:24:17 16.4 C 20 %
2437 17-09-2019 12:34:18 16.4 C 20 %
2438 17-09-2019 12:44:18 16.7 C 20 %
2439 17-09-2019 12:54:17 16.9 C 20 %
2440 17-09-2019 13:04:17 16.8 C 20 %
2441 17-09-2019 13:14:17 17.2 C 20 %
2442 17-09-2019 13:24:17 17 C 20 %
2443 17-09-2019 13:34:18 17.1 C 20 %
2444 17-09-2019 13:44:18 17 C 20 %
2445 17-09-2019 13:54:17 17.5 C 20 %
2446 17-09-2019 14:04:17 19.1 C 20 %
2447 17-09-2019 14:14:17 20.7 C 20 %
2448 17-09-2019 14:24:17 18.7 C 20 %
2449 17-09-2019 14:34:17 19.6 C 20 %
2450 17-09-2019 14:44:17 18.5 C 20 %
Sensor: Nr:Datum:Temp:Feuchte:
Aussen-T/F 2451 17-09-2019 14:54:18 18.8 C 20 %
2452 17-09-2019 15:04:17 19 C 20 %
2453 17-09-2019 15:14:17 19.8 C 20 %
2454 17-09-2019 15:24:17 21.1 C 20 %
2455 17-09-2019 15:34:17 20 C 20 %
2456 17-09-2019 15:44:17 22 C 20 %
2457 17-09-2019 15:54:17 19 C 20 %
2458 17-09-2019 16:04:18 21.6 C 20 %
2459 17-09-2019 16:14:18 20.4 C 20 %
2460 17-09-2019 16:24:17 22.8 C 20 %
2461 17-09-2019 16:34:17 20.3 C 20 %
2462 17-09-2019 16:44:17 20.2 C 20 %
2463 17-09-2019 16:54:17 20.7 C 20 %
2464 17-09-2019 17:04:18 20.3 C 20 %
2465 17-09-2019 17:14:18 18.9 C 20 %
2466 17-09-2019 17:24:17 20.1 C 20 %
2467 17-09-2019 17:34:17 18.5 C 20 %
2468 17-09-2019 17:44:18 18.8 C 20 %
2469 17-09-2019 17:54:17 18.6 C 20 %
2470 17-09-2019 18:04:17 18.6 C 20 %
2471 17-09-2019 18:14:17 18.7 C 20 %
2472 17-09-2019 18:24:17 18.3 C 20 %
2473 17-09-2019 18:34:17 18 C 20 %
2474 17-09-2019 18:44:17 18 C 20 %
2475 17-09-2019 18:54:18 17.6 C 20 %
Sensor: Nr:Datum:Temp:Feuchte:
Aussen-T/F 2476 17-09-2019 19:04:17 17.4 C 20 %
2477 17-09-2019 19:14:17 17.2 C 20 %
2478 17-09-2019 19:24:18 17 C 20 %
2479 17-09-2019 19:34:17 16.9 C 20 %
2480 17-09-2019 19:44:17 16.8 C 20 %
2481 17-09-2019 19:54:17 16.9 C 20 %
2482 17-09-2019 20:04:17 16.9 C 20 %
2483 17-09-2019 20:14:17 16.9 C 20 %
2484 17-09-2019 20:24:17 16.7 C 20 %
2485 17-09-2019 20:34:17 16.2 C 20 %
2486 17-09-2019 20:44:17 16.3 C 20 %
2487 17-09-2019 20:54:17 16.4 C 20 %
2488 17-09-2019 21:04:18 16.3 C 20 %
2489 17-09-2019 21:14:18 16.1 C 20 %
2490 17-09-2019 21:24:17 15.9 C 20 %
2491 17-09-2019 21:34:18 15.7 C 20 %
2492 17-09-2019 21:44:18 15.4 C 20 %
2493 17-09-2019 21:54:17 15 C 20 %
2494 17-09-2019 22:04:18 14.8 C 20 %
2495 17-09-2019 22:14:18 14.5 C 20 %
2496 17-09-2019 22:24:17 14.4 C 20 %
2497 17-09-2019 22:34:18 14.2 C 20 %
2498 17-09-2019 22:44:18 14.1 C 20 %
2499 17-09-2019 22:54:17 13.9 C 20 %
2500 17-09-2019 23:04:18 13.8 C 20 %
Sensor: Nr:Datum:Temp:Feuchte:
Aussen-T/F 2501 17-09-2019 23:14:18 13.3 C 20 %
2502 17-09-2019 23:24:17 13 C 20 %
2503 17-09-2019 23:34:18 12.6 C 20 %
2504 17-09-2019 23:44:18 12.2 C 20 %
2505 17-09-2019 23:54:17 12 C 20 %
2506 18-09-2019 00:04:18 11.5 C 20 %
2507 18-09-2019 00:14:18 11.5 C 20 %
2508 18-09-2019 00:24:17 11 C 20 %
2509 18-09-2019 00:34:18 10.3 C 20 %
2510 18-09-2019 00:44:18 10.5 C 20 %
2511 18-09-2019 00:54:17 10.8 C 20 %
2512 18-09-2019 01:04:17 10.4 C 20 %
2513 18-09-2019 01:14:17 10.4 C 20 %
2514 18-09-2019 01:24:17 10.6 C 20 %
2515 18-09-2019 01:34:17 10.2 C 20 %
2516 18-09-2019 01:44:17 9.6 C 20 %
2517 18-09-2019 01:54:17 9.2 C 20 %
2518 18-09-2019 02:04:18 8.8 C 20 %
2519 18-09-2019 02:14:18 8.9 C 20 %
2520 18-09-2019 02:24:17 8.8 C 20 %
2521 18-09-2019 02:34:18 8.3 C 20 %
2522 18-09-2019 02:44:18 8.2 C 20 %
2523 18-09-2019 02:54:17 8.2 C 20 %
2524 18-09-2019 03:04:18 8.1 C 20 %
2525 18-09-2019 03:14:18 7.7 C 20 %
Sensor: Nr:Datum:Temp:Feuchte:
Aussen-T/F 2526 18-09-2019 03:24:17 7.5 C 20 %
2527 18-09-2019 03:34:18 7.2 C 20 %
2528 18-09-2019 03:44:18 7.1 C 20 %
2529 18-09-2019 03:54:17 6.9 C 20 %
2530 18-09-2019 04:04:18 6.8 C 20 %
2531 18-09-2019 04:14:18 6.8 C 20 %
2532 18-09-2019 04:24:17 7.1 C 20 %
2533 18-09-2019 04:34:17 6.9 C 20 %
2534 18-09-2019 04:44:17 6.3 C 20 %
2535 18-09-2019 04:54:17 6.3 C 20 %
2536 18-09-2019 05:04:18 6.3 C 20 %
2537 18-09-2019 05:14:18 6.1 C 20 %
2538 18-09-2019 05:24:17 6 C 20 %
2539 18-09-2019 05:34:17 6 C 20 %
2540 18-09-2019 05:44:17 5.9 C 20 %
2541 18-09-2019 05:54:17 5.6 C 20 %
2542 18-09-2019 06:04:18 5.5 C 21 %
2543 18-09-2019 06:14:18 5.5 C 21 %
2544 18-09-2019 06:24:17 5.2 C 21 %
2545 18-09-2019 06:34:18 5.4 C 25 %
2546 18-09-2019 06:44:18 5.3 C 21 %
2547 18-09-2019 06:54:17 5.3 C 23 %
2548 18-09-2019 07:04:18 5.3 C 23 %
2549 18-09-2019 07:14:18 5.2 C 23 %
2550 18-09-2019 07:24:17 5.2 C 23 %
Sensor: Nr:Datum:Temp:Feuchte:
Aussen-T/F 2551 18-09-2019 07:34:18 5.1 C 25 %
2552 18-09-2019 07:44:18 5.2 C 25 %
2553 18-09-2019 07:54:17 5.7 C 25 %
2554 18-09-2019 08:04:18 5.6 C 25 %
2555 18-09-2019 08:14:18 5.7 C 25 %
2556 18-09-2019 08:24:17 5.7 C 25 %
2557 18-09-2019 08:34:17 5.9 C 25 %
2558 18-09-2019 08:44:17 6.1 C 25 %
2559 18-09-2019 08:54:17 6.3 C 25 %
2560 18-09-2019 09:04:17 6.3 C 25 %
2561 18-09-2019 09:14:17 6.4 C 25 %
2562 18-09-2019 09:24:17 6.8 C 25 %
2563 18-09-2019 09:34:17 7.1 C 25 %
2564 18-09-2019 09:44:17 7.1 C 25 %
2565 18-09-2019 09:54:17 7.5 C 25 %
2566 18-09-2019 10:04:17 7.7 C 25 %
2567 18-09-2019 10:14:17 7.9 C 25 %
2568 18-09-2019 10:24:17 8.2 C 25 %
2569 18-09-2019 10:34:17 8.8 C 23 %
2570 18-09-2019 10:44:17 9.3 C 20 %
2571 18-09-2019 10:54:17 9.6 C 20 %
2572 18-09-2019 11:04:18 10.1 C 20 %
2573 18-09-2019 11:14:18 10.6 C 20 %
2574 18-09-2019 11:24:17 10.9 C 20 %
2575 18-09-2019 11:34:17 11.6 C 20 %
Sensor: Nr:Datum:Temp:Feuchte:
Aussen-T/F 2576 18-09-2019 11:44:17 11.9 C 20 %
2577 18-09-2019 11:54:17 12.8 C 20 %
2578 18-09-2019 12:04:17 12.9 C 20 %
2579 18-09-2019 12:14:17 13.5 C 20 %
2580 18-09-2019 12:24:18 13.8 C 20 %
2581 18-09-2019 12:34:17 14.2 C 20 %
2582 18-09-2019 12:44:17 14.6 C 20 %
2583 18-09-2019 12:54:18 15.4 C 20 %
2584 18-09-2019 13:04:17 15.4 C 20 %
2585 18-09-2019 13:14:17 15.7 C 20 %
2586 18-09-2019 13:24:17 15.1 C 20 %
2587 18-09-2019 13:34:17 14.9 C 20 %
2588 18-09-2019 13:44:17 15.4 C 20 %
2589 18-09-2019 13:54:17 15.8 C 20 %
2590 18-09-2019 14:04:17 17.4 C 20 %
2591 18-09-2019 14:14:17 19.8 C 20 %
2592 18-09-2019 14:24:17 18.5 C 20 %
2593 18-09-2019 14:34:17 19.7 C 20 %
2594 18-09-2019 14:44:18 19.1 C 20 %
2595 18-09-2019 14:54:17 19.3 C 20 %
2596 18-09-2019 15:04:18 17.8 C 20 %
2597 18-09-2019 15:14:18 19.6 C 20 %
2598 18-09-2019 15:24:17 22.9 C 20 %
2599 18-09-2019 15:34:17 23.6 C 20 %
2600 18-09-2019 15:44:18 22.8 C 20 %
Sensor: Nr:Datum:Temp:Feuchte:
Aussen-T/F 2601 18-09-2019 15:54:17 19 C 20 %
2602 18-09-2019 16:04:18 20.3 C 20 %
2603 18-09-2019 16:14:18 22.7 C 20 %
2604 18-09-2019 16:24:17 22.2 C 20 %
2605 18-09-2019 16:34:18 19 C 20 %
2606 18-09-2019 16:44:18 17.8 C 20 %
2607 18-09-2019 16:54:17 19.4 C 20 %
2608 18-09-2019 17:04:18 21.9 C 20 %
2609 18-09-2019 17:14:18 21.9 C 20 %
2610 18-09-2019 17:24:17 22.6 C 20 %
2611 18-09-2019 17:34:17 20.9 C 20 %
2612 18-09-2019 17:44:17 18.9 C 20 %
2613 18-09-2019 17:54:17 18.3 C 20 %
2614 18-09-2019 18:04:17 17.6 C 20 %
2615 18-09-2019 18:14:17 17.3 C 20 %
2616 18-09-2019 18:24:17 17.3 C 20 %
2617 18-09-2019 18:34:17 17.3 C 20 %
2618 18-09-2019 18:44:17 16.8 C 20 %
2619 18-09-2019 18:54:17 16.4 C 20 %
2620 18-09-2019 19:04:17 16 C 20 %
2621 18-09-2019 19:14:17 15.4 C 20 %
2622 18-09-2019 19:24:17 14.4 C 20 %
2623 18-09-2019 19:34:17 13.9 C 20 %
2624 18-09-2019 19:44:17 13.1 C 20 %
2625 18-09-2019 19:54:17 12.4 C 20 %
Sensor: Nr:Datum:Temp:Feuchte:
Aussen-T/F 2626 18-09-2019 20:04:17 12 C 20 %
2627 18-09-2019 20:14:17 11.8 C 20 %
2628 18-09-2019 20:24:17 11.8 C 20 %
2629 18-09-2019 20:34:17 11.5 C 20 %
2630 18-09-2019 20:44:17 11.5 C 20 %
2631 18-09-2019 20:54:17 11.1 C 20 %
2632 18-09-2019 21:04:17 11 C 20 %
2633 18-09-2019 21:14:17 10.8 C 20 %
2634 18-09-2019 21:24:17 10.9 C 20 %
2635 18-09-2019 21:34:17 10.8 C 20 %
2636 18-09-2019 21:44:17 10.4 C 20 %
2637 18-09-2019 21:54:18 10.1 C 20 %
2638 18-09-2019 22:04:17 9.8 C 20 %
2639 18-09-2019 22:14:17 9.8 C 20 %
2640 18-09-2019 22:24:17 9.8 C 20 %
2641 18-09-2019 22:34:17 9.6 C 20 %
2642 18-09-2019 22:44:17 9.3 C 20 %
2643 18-09-2019 22:54:17 9.3 C 20 %
2644 18-09-2019 23:04:17 9.1 C 20 %
2645 18-09-2019 23:14:17 9.1 C 20 %
2646 18-09-2019 23:24:17 9.1 C 20 %
2647 18-09-2019 23:34:17 8.8 C 20 %
2648 18-09-2019 23:44:18 8.7 C 20 %
2649 18-09-2019 23:54:17 8.5 C 20 %
2650 19-09-2019 00:04:18 8.4 C 20 %
Sensor: Nr:Datum:Temp:Feuchte:
Aussen-T/F 2651 19-09-2019 00:14:18 8.3 C 20 %
2652 19-09-2019 00:24:17 8.6 C 20 %
2653 19-09-2019 00:34:18 8.3 C 20 %
2654 19-09-2019 00:44:18 8.6 C 20 %
2655 19-09-2019 00:54:17 8.4 C 20 %
2656 19-09-2019 01:04:18 8.1 C 20 %
2657 19-09-2019 01:14:18 7.5 C 20 %
2658 19-09-2019 01:24:17 7.2 C 20 %
2659 19-09-2019 01:34:18 7.1 C 20 %
2660 19-09-2019 01:44:18 7.1 C 20 %
2661 19-09-2019 01:54:17 6.7 C 20 %
2662 19-09-2019 02:04:18 6.4 C 20 %
2663 19-09-2019 02:14:18 6.5 C 20 %
2664 19-09-2019 02:24:17 6.4 C 20 %
2665 19-09-2019 02:34:17 6.3 C 20 %
2666 19-09-2019 02:44:17 6.3 C 20 %
2667 19-09-2019 02:54:17 6.1 C 20 %
2668 19-09-2019 03:04:18 6 C 20 %
2669 19-09-2019 03:14:18 5.9 C 21 %
2670 19-09-2019 03:24:18 5.8 C 21 %
2671 19-09-2019 03:34:17 5.8 C 21 %
2672 19-09-2019 03:44:17 5.6 C 21 %
2673 19-09-2019 03:54:17 5.4 C 21 %
2674 19-09-2019 04:04:17 5.4 C 23 %
2675 19-09-2019 04:14:17 5.4 C 23 %
Sensor: Nr:Datum:Temp:Feuchte:
Aussen-T/F 2676 19-09-2019 04:24:17 5.2 C 23 %
2677 19-09-2019 04:34:17 5.2 C 23 %
2678 19-09-2019 04:44:17 5.2 C 23 %
2679 19-09-2019 04:54:17 5.1 C 25 %
2680 19-09-2019 05:04:17 4.8 C 25 %
2681 19-09-2019 05:14:17 4.8 C 26 %
2682 19-09-2019 05:24:17 4.8 C 26 %
2683 19-09-2019 05:34:17 4.7 C 26 %
2684 19-09-2019 05:44:18 4.8 C 26 %
2685 19-09-2019 05:54:17 4.7 C 26 %
2686 19-09-2019 06:04:18 4.5 C 26 %
2687 19-09-2019 06:14:18 4.5 C 26 %
2688 19-09-2019 06:24:18 4.5 C 27 %
2689 19-09-2019 06:34:17 4.4 C 27 %
2690 19-09-2019 06:44:17 4.4 C 27 %
2691 19-09-2019 06:54:17 4.5 C 28 %
2692 19-09-2019 07:04:18 4.5 C 28 %
2693 19-09-2019 07:14:18 4.6 C 28 %
2694 19-09-2019 07:24:17 4.4 C 27 %
2695 19-09-2019 07:34:18 4.3 C 28 %
2696 19-09-2019 07:44:18 4.5 C 28 %
2697 19-09-2019 07:54:17 4.5 C 28 %
2698 19-09-2019 08:04:18 4.6 C 27 %
2699 19-09-2019 08:14:18 4.8 C 28 %
2700 19-09-2019 08:24:17 4.9 C 28 %
Sensor: Nr:Datum:Temp:Feuchte:
Aussen-T/F 2701 19-09-2019 08:34:18 5 C 27 %
2702 19-09-2019 08:44:18 5.2 C 27 %
2703 19-09-2019 08:54:17 5.2 C 26 %
2704 19-09-2019 09:04:18 5.5 C 28 %
2705 19-09-2019 09:14:18 5.4 C 27 %
2706 19-09-2019 09:24:17 5.6 C 27 %
2707 19-09-2019 09:34:17 6.3 C 30 %
2708 19-09-2019 09:44:17 6.7 C 29 %
2709 19-09-2019 09:54:17 6.9 C 27 %
2710 19-09-2019 10:04:17 7 C 26 %
2711 19-09-2019 10:14:17 7.4 C 25 %
2712 19-09-2019 10:24:17 7.6 C 25 %
2713 19-09-2019 10:34:17 7.9 C 23 %
2714 19-09-2019 10:44:17 8.4 C 23 %
2715 19-09-2019 10:54:17 8.7 C 21 %
2716 19-09-2019 11:04:18 9.2 C 20 %
2717 19-09-2019 11:14:18 9.5 C 20 %
2718 19-09-2019 11:24:17 10.1 C 20 %
2719 19-09-2019 11:34:18 11 C 20 %
2720 19-09-2019 11:44:18 11.2 C 20 %
2721 19-09-2019 11:54:17 11.7 C 20 %
2722 19-09-2019 12:04:18 12.9 C 20 %
2723 19-09-2019 12:14:18 13.5 C 20 %
2724 19-09-2019 12:24:17 14 C 20 %
2725 19-09-2019 12:34:18 14.2 C 20 %
Sensor: Nr:Datum:Temp:Feuchte:
Aussen-T/F 2726 19-09-2019 12:44:18 14.3 C 20 %
2727 19-09-2019 12:54:17 14.5 C 20 %
2728 19-09-2019 13:04:17 14.1 C 20 %
2729 19-09-2019 13:14:17 14 C 20 %
2730 19-09-2019 13:24:17 14.3 C 20 %
2731 19-09-2019 13:34:17 14.7 C 20 %
2732 19-09-2019 13:44:17 15.2 C 20 %
2733 19-09-2019 13:54:17 15.3 C 20 %
2734 19-09-2019 14:04:18 17.5 C 20 %
2735 19-09-2019 14:14:18 19.2 C 20 %
2736 19-09-2019 14:24:17 17.8 C 20 %
2737 19-09-2019 14:34:17 18.6 C 20 %
2738 19-09-2019 14:44:17 17.9 C 20 %
2739 19-09-2019 14:54:18 17.7 C 20 %
2740 19-09-2019 15:04:17 19 C 20 %
2741 19-09-2019 15:14:17 21.3 C 20 %
2742 19-09-2019 15:24:17 21 C 20 %
2743 19-09-2019 15:34:18 21.8 C 20 %
2744 19-09-2019 15:44:18 22.5 C 20 %
2745 19-09-2019 15:54:17 22.4 C 20 %
2746 19-09-2019 16:04:17 21.3 C 20 %
2747 19-09-2019 16:14:17 21.6 C 20 %
2748 19-09-2019 16:24:17 23.8 C 20 %
2749 19-09-2019 16:34:17 21.1 C 20 %
2750 19-09-2019 16:44:17 20.9 C 20 %
Sensor: Nr:Datum:Temp:Feuchte:
Aussen-T/F 2751 19-09-2019 16:54:17 21.9 C 20 %
2752 19-09-2019 17:04:18 20.4 C 20 %
2753 19-09-2019 17:14:18 21.4 C 20 %
2754 19-09-2019 17:24:17 18.6 C 20 %
2755 19-09-2019 17:34:17 20 C 20 %
2756 19-09-2019 17:44:17 18.5 C 20 %
2757 19-09-2019 17:54:17 17.7 C 20 %
2758 19-09-2019 18:04:17 17.7 C 20 %
2759 19-09-2019 18:14:17 17.5 C 20 %
2760 19-09-2019 18:24:18 17.3 C 20 %
2761 19-09-2019 18:34:17 17.1 C 20 %
2762 19-09-2019 18:44:17 16.5 C 20 %
2763 19-09-2019 18:54:18 16 C 20 %
2764 19-09-2019 19:04:17 15.5 C 20 %
2765 19-09-2019 19:14:17 14.4 C 20 %
2766 19-09-2019 19:24:17 13.8 C 20 %
2767 19-09-2019 19:34:17 13.1 C 20 %
2768 19-09-2019 19:44:17 12.9 C 20 %
2769 19-09-2019 19:54:17 12.5 C 20 %
2770 19-09-2019 20:04:17 11.6 C 20 %
2771 19-09-2019 20:14:17 11.4 C 20 %
2772 19-09-2019 20:24:17 11.1 C 20 %
2773 19-09-2019 20:34:17 11 C 20 %
2774 19-09-2019 20:44:18 10.7 C 20 %
2775 19-09-2019 20:54:17 10 C 20 %
Sensor: Nr:Datum:Temp:Feuchte:
Aussen-T/F 2776 19-09-2019 21:04:17 9.9 C 20 %
2777 19-09-2019 21:14:17 9.6 C 20 %
2778 19-09-2019 21:24:17 9.6 C 20 %
2779 19-09-2019 21:34:18 9.7 C 20 %
2780 19-09-2019 21:44:18 9.3 C 20 %
2781 19-09-2019 21:54:17 9.1 C 20 %
2782 19-09-2019 22:04:18 9.1 C 20 %
2783 19-09-2019 22:14:18 9.1 C 20 %
2784 19-09-2019 22:24:17 9 C 20 %
2785 19-09-2019 22:34:18 8.5 C 20 %
2786 19-09-2019 22:44:18 8.2 C 20 %
2787 19-09-2019 22:54:17 8.3 C 20 %
2788 19-09-2019 23:04:18 8 C 20 %
2789 19-09-2019 23:14:18 7.9 C 20 %
2790 19-09-2019 23:24:17 8 C 20 %
2791 19-09-2019 23:34:17 7.7 C 20 %
2792 19-09-2019 23:44:17 7.3 C 20 %
2793 19-09-2019 23:54:17 7.2 C 20 %
2794 20-09-2019 00:04:17 7 C 20 %
2795 20-09-2019 00:14:17 6.9 C 20 %
2796 20-09-2019 00:24:17 6.8 C 20 %
2797 20-09-2019 00:34:17 6.7 C 20 %
2798 20-09-2019 00:44:17 6.9 C 20 %
2799 20-09-2019 00:54:18 6.8 C 20 %
2800 20-09-2019 01:04:17 6.7 C 20 %
Sensor: Nr:Datum:Temp:Feuchte:
Aussen-T/F 2801 20-09-2019 01:14:17 6.4 C 20 %
2802 20-09-2019 01:24:17 6.3 C 20 %
2803 20-09-2019 01:34:17 6.1 C 20 %
2804 20-09-2019 01:44:18 6 C 20 %
2805 20-09-2019 01:54:17 5.8 C 20 %
2806 20-09-2019 02:04:18 5.8 C 20 %
2807 20-09-2019 02:14:18 5.5 C 20 %
2808 20-09-2019 02:24:17 5.4 C 20 %
2809 20-09-2019 02:34:18 5.4 C 20 %
2810 20-09-2019 02:44:18 5.4 C 20 %
2811 20-09-2019 02:54:17 5.3 C 20 %
2812 20-09-2019 03:04:18 5.3 C 20 %
2813 20-09-2019 03:14:18 5.2 C 20 %
2814 20-09-2019 03:24:17 5 C 20 %
2815 20-09-2019 03:34:17 4.9 C 20 %
2816 20-09-2019 03:44:17 4.8 C 20 %
2817 20-09-2019 03:54:17 4.7 C 20 %
2818 20-09-2019 04:04:17 4.7 C 20 %
2819 20-09-2019 04:14:17 4.5 C 20 %
2820 20-09-2019 04:24:18 4.4 C 20 %
2821 20-09-2019 04:34:17 4.2 C 20 %
2822 20-09-2019 04:44:17 4.2 C 20 %
2823 20-09-2019 04:54:18 4.1 C 20 %
2824 20-09-2019 05:04:17 4 C 23 %
2825 20-09-2019 05:14:17 4 C 20 %
Sensor: Nr:Datum:Temp:Feuchte:
Aussen-T/F 2826 20-09-2019 05:24:17 4.1 C 20 %
2827 20-09-2019 05:34:18 4 C 20 %
2828 20-09-2019 05:44:18 3.8 C 21 %
2829 20-09-2019 05:54:17 4 C 21 %
2830 20-09-2019 06:04:18 3.7 C 21 %
2831 20-09-2019 06:14:18 3.8 C 25 %
2832 20-09-2019 06:24:17 4 C 23 %
2833 20-09-2019 06:34:17 3.6 C 25 %
2834 20-09-2019 06:44:18 3.6 C 25 %
2835 20-09-2019 06:54:17 3.5 C 25 %
2836 20-09-2019 07:04:18 3.4 C 25 %
2837 20-09-2019 07:14:18 3.3 C 25 %
2838 20-09-2019 07:24:17 3.3 C 25 %
2839 20-09-2019 07:34:18 3.4 C 25 %
2840 20-09-2019 07:44:18 3.5 C 26 %
2841 20-09-2019 07:54:17 3.6 C 26 %
2842 20-09-2019 08:04:18 3.8 C 26 %
2843 20-09-2019 08:14:18 4 C 26 %
2844 20-09-2019 08:24:18 4.2 C 26 %
2845 20-09-2019 08:34:17 4.2 C 25 %
2846 20-09-2019 08:44:17 4.3 C 25 %
2847 20-09-2019 08:54:18 4.5 C 25 %
2848 20-09-2019 09:04:17 4.5 C 26 %
2849 20-09-2019 09:14:17 4.8 C 26 %
2850 20-09-2019 09:24:17 5.2 C 25 %
Sensor: Nr:Datum:Temp:Feuchte:
Aussen-T/F 2851 20-09-2019 09:34:17 5.5 C 25 %
2852 20-09-2019 09:44:17 6 C 25 %
2853 20-09-2019 09:54:17 6.5 C 21 %
2854 20-09-2019 10:04:18 7 C 20 %
2855 20-09-2019 10:14:18 7.3 C 20 %
2856 20-09-2019 10:24:17 7.5 C 20 %
2857 20-09-2019 10:34:18 8 C 20 %
2858 20-09-2019 10:44:18 8.5 C 20 %
2859 20-09-2019 10:54:17 8.9 C 20 %
2860 20-09-2019 11:04:17 9.4 C 20 %
2861 20-09-2019 11:14:17 9.6 C 20 %
2862 20-09-2019 11:24:17 10.5 C 20 %
2863 20-09-2019 11:34:17 10.6 C 20 %
2864 20-09-2019 11:44:17 11.4 C 20 %
2865 20-09-2019 11:54:17 11.8 C 20 %
2866 20-09-2019 12:04:17 12.6 C 20 %
2867 20-09-2019 12:14:17 13.4 C 20 %
2868 20-09-2019 12:24:17 13.4 C 20 %
2869 20-09-2019 12:34:17 14.2 C 20 %
2870 20-09-2019 12:44:17 14.3 C 20 %
2871 20-09-2019 12:54:18 14.4 C 20 %
2872 20-09-2019 13:04:17 14.5 C 20 %
2873 20-09-2019 13:14:17 15 C 20 %
2874 20-09-2019 13:24:17 15.4 C 20 %
2875 20-09-2019 13:34:17 15.7 C 20 %
Sensor: Nr:Datum:Temp:Feuchte:
Aussen-T/F 2876 20-09-2019 13:44:17 16 C 20 %
2877 20-09-2019 13:54:18 16.4 C 20 %
2878 20-09-2019 14:04:17 18.9 C 20 %
2879 20-09-2019 14:14:17 23.1 C 20 %
2880 20-09-2019 14:24:17 22.3 C 20 %
2881 20-09-2019 14:34:18 19.5 C 20 %
2882 20-09-2019 14:44:18 19.5 C 20 %
2883 20-09-2019 14:54:17 19.7 C 20 %
2884 20-09-2019 15:04:17 21.4 C 20 %
2885 20-09-2019 15:14:18 20.7 C 20 %
2886 20-09-2019 15:24:17 22.8 C 20 %
2887 20-09-2019 15:34:18 23.7 C 20 %
2888 20-09-2019 15:44:18 23.8 C 20 %
2889 20-09-2019 15:54:17 22.9 C 20 %
2890 20-09-2019 16:04:18 23.2 C 20 %
2891 20-09-2019 16:14:18 24.1 C 20 %
2892 20-09-2019 16:24:17 25.4 C 20 %
2893 20-09-2019 16:34:17 24.7 C 20 %
2894 20-09-2019 16:44:17 24.3 C 20 %
2895 20-09-2019 16:54:17 25.6 C 20 %
2896 20-09-2019 17:04:17 22.8 C 20 %
2897 20-09-2019 17:14:17 23.8 C 20 %
2898 20-09-2019 17:24:17 23.8 C 20 %
2899 20-09-2019 17:34:17 24 C 20 %
2900 20-09-2019 17:44:17 22.3 C 20 %
Sensor: Nr:Datum:Temp:Feuchte:
Aussen-T/F 2901 20-09-2019 17:55:17 20 C 20 %
2902 20-09-2019 18:04:17 20 C 20 %
2903 20-09-2019 18:14:17 19.5 C 20 %
2904 20-09-2019 18:24:17 19.3 C 20 %
2905 20-09-2019 18:34:17 19.1 C 20 %
2906 20-09-2019 18:44:17 18.4 C 20 %
2907 20-09-2019 18:54:17 17.1 C 20 %
2908 20-09-2019 19:04:17 15.7 C 20 %
2909 20-09-2019 19:14:18 14.8 C 20 %
2910 20-09-2019 19:24:17 14.6 C 20 %
2911 20-09-2019 19:34:18 14 C 20 %
2912 20-09-2019 19:44:18 13.6 C 20 %
2913 20-09-2019 19:54:17 13.3 C 20 %
2914 20-09-2019 20:04:17 13.2 C 20 %
2915 20-09-2019 20:14:17 13.1 C 20 %
2916 20-09-2019 20:24:17 12.8 C 20 %
2917 20-09-2019 20:34:18 12.5 C 20 %
2918 20-09-2019 20:44:18 12.2 C 20 %
2919 20-09-2019 20:54:17 12.1 C 20 %
2920 20-09-2019 21:05:17 12 C 20 %
2921 20-09-2019 21:14:17 11.3 C 20 %
2922 20-09-2019 21:24:17 11.3 C 20 %
2923 20-09-2019 21:35:17 10.1 C 20 %
2924 20-09-2019 21:44:17 9.9 C 20 %
2925 20-09-2019 21:54:17 9.5 C 20 %
Sensor: Nr:Datum:Temp:Feuchte:
Aussen-T/F 2926 20-09-2019 22:04:18 9.2 C 20 %
2927 20-09-2019 22:14:18 9 C 20 %
2928 20-09-2019 22:24:17 8.7 C 20 %
2929 20-09-2019 22:34:18 8.5 C 20 %
2930 20-09-2019 22:44:18 8.4 C 20 %
2931 20-09-2019 22:54:17 8.2 C 20 %
2932 20-09-2019 23:04:17 7.9 C 20 %
2933 20-09-2019 23:14:18 7.8 C 20 %
2934 20-09-2019 23:25:17 7.6 C 20 %
2935 20-09-2019 23:34:18 7.3 C 20 %
2936 20-09-2019 23:44:18 7.4 C 20 %
2937 20-09-2019 23:54:17 7.1 C 20 %
2938 21-09-2019 00:05:17 6.9 C 20 %
2939 21-09-2019 00:14:18 6.8 C 20 %
2940 21-09-2019 00:24:18 7 C 20 %
2941 21-09-2019 00:44:17 6.8 C 20 %
2942 21-09-2019 00:44:17 6.5 C 20 %
2943 21-09-2019 00:54:17 6.4 C 20 %
2944 21-09-2019 01:05:17 6.3 C 20 %
2945 21-09-2019 01:14:17 6 C 20 %
2946 21-09-2019 01:24:17 6.1 C 20 %
2947 21-09-2019 01:35:17 6.2 C 20 %
2948 21-09-2019 01:44:17 6 C 20 %
2949 21-09-2019 01:54:17 5.8 C 20 %
2950 21-09-2019 02:05:17 5.8 C 20 %
Sensor: Nr:Datum:Temp:Feuchte:
Aussen-T/F 2951 21-09-2019 02:14:17 5.6 C 20 %
2952 21-09-2019 02:24:17 5.4 C 20 %
2953 21-09-2019 02:35:17 5.3 C 20 %
2954 21-09-2019 02:45:17 5.2 C 20 %
2955 21-09-2019 02:54:17 5.2 C 20 %
2956 21-09-2019 03:04:18 5.2 C 20 %
2957 21-09-2019 03:14:18 5.1 C 20 %
2958 21-09-2019 03:24:18 5.1 C 20 %
2959 21-09-2019 03:35:17 4.8 C 20 %
2960 21-09-2019 03:44:17 4.9 C 20 %
2961 21-09-2019 03:54:17 4.8 C 20 %
2962 21-09-2019 04:05:17 4.8 C 20 %
2963 21-09-2019 04:14:18 5 C 20 %
2964 21-09-2019 04:24:18 4.8 C 20 %
2965 21-09-2019 04:35:17 4.6 C 20 %
2966 21-09-2019 04:45:17 4.8 C 20 %
2967 21-09-2019 04:55:17 4.4 C 20 %
2968 21-09-2019 05:05:17 4.6 C 20 %
2969 21-09-2019 05:15:17 4.5 C 20 %
2970 21-09-2019 05:25:17 4.5 C 20 %
2971 21-09-2019 05:35:17 4.4 C 20 %
2972 21-09-2019 05:45:17 4.5 C 21 %
2973 21-09-2019 05:55:17 4.2 C 20 %
2974 21-09-2019 06:05:17 4.3 C 21 %
2975 21-09-2019 06:15:17 4.1 C 21 %
Sensor: Nr:Datum:Temp:Feuchte:
Aussen-T/F 2976 21-09-2019 06:25:17 4 C 21 %
2977 21-09-2019 06:35:17 3.9 C 23 %
2978 21-09-2019 06:45:17 3.7 C 23 %
2979 21-09-2019 06:55:17 3.7 C 25 %
2980 21-09-2019 07:05:17 4 C 25 %
2981 21-09-2019 07:15:17 3.9 C 25 %
2982 21-09-2019 07:25:17 3.9 C 25 %
2983 21-09-2019 07:35:17 3.9 C 25 %
2984 21-09-2019 07:45:17 3.7 C 25 %
2985 21-09-2019 07:55:17 3.9 C 25 %
2986 21-09-2019 08:05:17 3.9 C 25 %
2987 21-09-2019 08:15:17 4 C 25 %
2988 21-09-2019 08:25:17 4 C 25 %
2989 21-09-2019 08:35:17 4.2 C 25 %
2990 21-09-2019 08:45:17 4.3 C 25 %
2991 21-09-2019 08:55:17 4.4 C 25 %
2992 21-09-2019 09:05:17 4.7 C 25 %
2993 21-09-2019 09:15:17 4.8 C 25 %
2994 21-09-2019 09:25:17 4.9 C 25 %
2995 21-09-2019 09:35:17 5.6 C 25 %
2996 21-09-2019 09:45:17 6.8 C 20 %
2997 21-09-2019 09:55:17 7.2 C 20 %
2998 21-09-2019 10:05:17 7.8 C 20 %
2999 21-09-2019 10:15:17 8 C 20 %
3000 21-09-2019 10:25:17 8.4 C 20 %
Sensor: Nr:Datum:Temp:Feuchte:
Aussen-T/F 3001 21-09-2019 10:35:17 9 C 20 %
3002 21-09-2019 10:45:17 9.6 C 20 %
3003 21-09-2019 10:55:17 10.4 C 20 %
3004 21-09-2019 11:05:17 11.1 C 20 %
3005 21-09-2019 11:15:17 11.5 C 20 %
3006 21-09-2019 11:25:17 12.1 C 20 %
3007 21-09-2019 11:35:17 12 C 20 %
3008 21-09-2019 11:45:17 12.8 C 20 %
3009 21-09-2019 11:55:17 13.1 C 20 %
3010 21-09-2019 12:05:17 14 C 20 %
3011 21-09-2019 12:15:17 14.4 C 20 %
3012 21-09-2019 12:25:17 15.1 C 20 %
3013 21-09-2019 12:35:17 14.9 C 20 %
3014 21-09-2019 12:45:17 15.4 C 20 %
3015 21-09-2019 12:55:17 16.1 C 20 %
3016 21-09-2019 13:05:16 17.3 C 20 %
3017 21-09-2019 13:15:17 17.5 C 20 %
3018 21-09-2019 13:25:17 17.9 C 20 %
3019 21-09-2019 13:35:17 18.1 C 20 %
3020 21-09-2019 13:45:17 18.5 C 20 %
3021 21-09-2019 13:55:17 20.5 C 20 %
3022 21-09-2019 14:05:17 22.5 C 20 %
3023 21-09-2019 14:15:17 25.5 C 20 %
3024 21-09-2019 14:25:17 24.1 C 20 %
3025 21-09-2019 14:35:17 23.5 C 20 %
Sensor: Nr:Datum:Temp:Feuchte:
Aussen-T/F 3026 21-09-2019 14:45:17 23.1 C 20 %
3027 21-09-2019 14:55:17 23.9 C 20 %
3028 21-09-2019 15:05:17 26.7 C 20 %
3029 21-09-2019 15:15:16 24.3 C 20 %
3030 21-09-2019 15:25:16 25.2 C 20 %
3031 21-09-2019 15:35:17 27.7 C 20 %
3032 21-09-2019 15:45:16 29.2 C 20 %
3033 21-09-2019 15:55:16 30.9 C 20 %
3034 21-09-2019 16:05:17 30.6 C 20 %
3035 21-09-2019 16:15:16 29.4 C 20 %
3036 21-09-2019 16:25:16 29.6 C 20 %
3037 21-09-2019 16:35:17 31.1 C 20 %
3038 21-09-2019 16:45:16 29.6 C 20 %
3039 21-09-2019 16:55:16 29.9 C 20 %
3040 21-09-2019 17:05:17 28 C 20 %
3041 21-09-2019 17:15:17 28.5 C 20 %
3042 21-09-2019 17:25:17 29.3 C 20 %
3043 21-09-2019 17:35:16 28 C 20 %
3044 21-09-2019 17:45:17 25.2 C 20 %
3045 21-09-2019 17:55:17 23.9 C 20 %
3046 21-09-2019 18:05:16 23 C 20 %
3047 21-09-2019 18:15:17 22.4 C 20 %
3048 21-09-2019 18:25:17 21.4 C 20 %
3049 21-09-2019 18:35:16 20.6 C 20 %
3050 21-09-2019 18:45:16 19.9 C 20 %
Sensor: Nr:Datum:Temp:Feuchte:
Aussen-T/F 3051 21-09-2019 18:55:16 18.9 C 20 %
3052 21-09-2019 19:05:16 18.1 C 20 %
3053 21-09-2019 19:15:17 17.4 C 20 %
3054 21-09-2019 19:25:17 16.5 C 20 %
3055 21-09-2019 19:35:16 16.3 C 20 %
3056 21-09-2019 19:45:16 15.7 C 20 %
3057 21-09-2019 19:55:16 15.9 C 20 %
3058 21-09-2019 20:05:17 15.8 C 20 %
3059 21-09-2019 20:15:16 15.4 C 20 %
3060 21-09-2019 20:25:16 15.1 C 20 %
3061 21-09-2019 20:35:16 14.7 C 20 %
3062 21-09-2019 20:45:16 14.2 C 20 %
3063 21-09-2019 20:55:16 14.1 C 20 %
3064 21-09-2019 21:05:17 13.7 C 20 %
3065 21-09-2019 21:15:16 13.3 C 20 %
3066 21-09-2019 21:25:16 12.8 C 20 %
3067 21-09-2019 21:35:17 12.3 C 20 %
3068 21-09-2019 21:45:16 12.2 C 20 %
3069 21-09-2019 21:55:16 11.6 C 20 %
3070 21-09-2019 22:05:17 11.6 C 20 %
3071 21-09-2019 22:15:16 11.5 C 20 %
3072 21-09-2019 22:25:16 11.2 C 20 %
3073 21-09-2019 22:35:17 11.1 C 20 %
3074 21-09-2019 22:45:16 10.8 C 20 %
3075 21-09-2019 22:55:16 10.5 C 20 %
Sensor: Nr:Datum:Temp:Feuchte:
Aussen-T/F 3076 21-09-2019 23:05:16 10.5 C 20 %
3077 21-09-2019 23:15:16 10.3 C 20 %
3078 21-09-2019 23:25:16 10.2 C 20 %
3079 21-09-2019 23:35:16 9.8 C 20 %
3080 21-09-2019 23:45:16 9.5 C 20 %
3081 21-09-2019 23:55:16 9.6 C 20 %
3082 22-09-2019 00:05:16 9.6 C 20 %
3083 22-09-2019 00:15:16 9.2 C 20 %
3084 22-09-2019 00:25:17 9.1 C 20 %
3085 22-09-2019 00:35:16 9 C 20 %
3086 22-09-2019 00:45:16 8.8 C 20 %
3087 22-09-2019 00:55:16 8.7 C 20 %
3088 22-09-2019 01:05:16 8.7 C 20 %
3089 22-09-2019 01:15:16 8.7 C 20 %
3090 22-09-2019 01:25:16 8.4 C 20 %
3091 22-09-2019 01:35:16 8.2 C 20 %
3092 22-09-2019 01:45:16 8 C 20 %
3093 22-09-2019 01:55:16 8 C 20 %
3094 22-09-2019 02:05:17 7.8 C 20 %
3095 22-09-2019 02:15:16 7.7 C 20 %
3096 22-09-2019 02:25:16 7.6 C 20 %
3097 22-09-2019 02:35:16 7.5 C 20 %
3098 22-09-2019 02:45:17 7.3 C 20 %
3099 22-09-2019 02:55:17 7.2 C 20 %
3100 22-09-2019 03:05:18 7.2 C 20 %
Sensor: Nr:Datum:Temp:Feuchte:
Aussen-T/F 3101 22-09-2019 03:15:17 7.1 C 20 %
3102 22-09-2019 03:25:17 7.1 C 20 %
3103 22-09-2019 03:35:17 7 C 20 %
3104 22-09-2019 03:45:17 6.8 C 20 %
3105 22-09-2019 03:55:17 6.8 C 20 %
3106 22-09-2019 04:05:18 6.7 C 20 %
3107 22-09-2019 04:15:17 6.6 C 20 %
3108 22-09-2019 04:25:17 6.5 C 20 %
3109 22-09-2019 04:35:18 6.4 C 20 %
3110 22-09-2019 04:45:17 6.3 C 20 %
3111 22-09-2019 04:55:17 6.3 C 20 %
3112 22-09-2019 05:05:17 6.3 C 21 %
3113 22-09-2019 05:15:17 6.4 C 21 %
3114 22-09-2019 05:25:17 6.3 C 21 %
3115 22-09-2019 05:35:17 6.3 C 23 %
3116 22-09-2019 05:45:17 6.3 C 23 %
3117 22-09-2019 05:55:17 6.3 C 23 %
3118 22-09-2019 06:05:17 6.3 C 23 %
3119 22-09-2019 06:15:17 6.3 C 25 %
3120 22-09-2019 06:25:17 6.5 C 25 %
3121 22-09-2019 06:35:17 6.5 C 25 %
3122 22-09-2019 06:45:18 6.3 C 23 %
3123 22-09-2019 06:55:18 6.2 C 23 %
3124 22-09-2019 07:05:17 6.3 C 25 %
3125 22-09-2019 07:15:17 6.3 C 25 %
Sensor: Nr:Datum:Temp:Feuchte:
Aussen-T/F 3126 22-09-2019 07:25:17 6.3 C 25 %
3127 22-09-2019 07:35:17 6.4 C 25 %
3128 22-09-2019 07:45:18 6.8 C 25 %
3129 22-09-2019 07:55:18 6.8 C 25 %
3130 22-09-2019 08:05:17 6.9 C 25 %
3131 22-09-2019 08:15:17 7 C 25 %
3132 22-09-2019 08:25:17 7.2 C 25 %
3133 22-09-2019 08:35:17 7.4 C 25 %
3134 22-09-2019 08:45:18 7.5 C 25 %
3135 22-09-2019 08:55:18 7.8 C 23 %
3136 22-09-2019 09:05:17 8 C 25 %
3137 22-09-2019 09:15:17 8.2 C 25 %
3138 22-09-2019 09:25:17 8.6 C 23 %
3139 22-09-2019 09:35:17 9 C 20 %
3140 22-09-2019 09:45:18 9.2 C 21 %
3141 22-09-2019 09:55:18 9.7 C 20 %
3142 22-09-2019 10:05:17 10.2 C 20 %
3143 22-09-2019 10:15:18 10.5 C 20 %
3144 22-09-2019 10:25:18 11.7 C 20 %
3145 22-09-2019 10:35:17 12.5 C 20 %
3146 22-09-2019 10:45:18 13.7 C 20 %
3147 22-09-2019 10:55:18 14.4 C 20 %
3148 22-09-2019 11:05:17 14.8 C 20 %
3149 22-09-2019 11:15:17 15.6 C 20 %
3150 22-09-2019 11:25:17 15.8 C 20 %
Sensor: Nr:Datum:Temp:Feuchte:
Aussen-T/F 3151 22-09-2019 11:35:17 16.3 C 20 %
3152 22-09-2019 11:45:18 16.5 C 20 %
3153 22-09-2019 11:55:18 16.6 C 20 %
3154 22-09-2019 12:05:17 17 C 20 %
3155 22-09-2019 12:15:17 17.7 C 20 %
3156 22-09-2019 12:25:17 17.8 C 20 %
3157 22-09-2019 12:35:17 18.4 C 20 %
3158 22-09-2019 12:45:17 19 C 20 %
3159 22-09-2019 12:55:17 19.9 C 20 %
3160 22-09-2019 13:05:17 20.8 C 20 %
3161 22-09-2019 13:15:17 21.3 C 20 %
3162 22-09-2019 13:25:17 21.9 C 20 %
3163 22-09-2019 13:35:17 22.6 C 20 %
3164 22-09-2019 13:45:17 23.8 C 20 %
3165 22-09-2019 13:55:17 24.7 C 20 %
3166 22-09-2019 14:05:18 25.7 C 20 %
3167 22-09-2019 14:15:17 26.5 C 20 %
3168 22-09-2019 14:25:17 26.8 C 20 %
3169 22-09-2019 14:35:17 25.9 C 20 %
3170 22-09-2019 14:45:17 26.1 C 20 %
3171 22-09-2019 14:55:17 26.4 C 20 %
3172 22-09-2019 15:05:17 26.7 C 20 %
3173 22-09-2019 15:15:17 25.6 C 20 %
3174 22-09-2019 15:25:18 25.7 C 20 %
3175 22-09-2019 15:35:17 25.5 C 20 %
Sensor: Nr:Datum:Temp:Feuchte:
Aussen-T/F 3176 22-09-2019 15:45:17 25.5 C 20 %
3177 22-09-2019 15:55:17 25.4 C 20 %
3178 22-09-2019 16:05:17 25.2 C 20 %
3179 22-09-2019 16:15:17 25.1 C 20 %
3180 22-09-2019 16:25:17 24.9 C 20 %
3181 22-09-2019 16:35:17 24.7 C 20 %
3182 22-09-2019 16:45:18 24.5 C 20 %
3183 22-09-2019 16:55:18 24 C 20 %
3184 22-09-2019 17:05:17 23.9 C 20 %
3185 22-09-2019 17:15:17 22.9 C 20 %
3186 22-09-2019 17:25:17 22.9 C 20 %
3187 22-09-2019 17:35:17 22.5 C 20 %
3188 22-09-2019 17:45:18 22 C 20 %
3189 22-09-2019 17:55:18 21.8 C 20 %
3190 22-09-2019 18:05:17 21.6 C 20 %
3191 22-09-2019 18:15:17 21.6 C 20 %
3192 22-09-2019 18:25:17 21.6 C 20 %
3193 22-09-2019 18:35:17 21 C 20 %
3194 22-09-2019 18:45:18 20.8 C 20 %
3195 22-09-2019 18:55:18 20.4 C 20 %
3196 22-09-2019 19:05:17 20 C 20 %
3197 22-09-2019 19:15:17 19.7 C 20 %
3198 22-09-2019 19:25:17 19.5 C 20 %
3199 22-09-2019 19:35:17 19.2 C 20 %
3200 22-09-2019 19:45:18 19 C 20 %
Sensor: Nr:Datum:Temp:Feuchte:
Aussen-T/F 3201 22-09-2019 19:55:18 18.8 C 20 %
3202 22-09-2019 20:05:17 18.6 C 20 %
3203 22-09-2019 20:15:18 18.4 C 20 %
3204 22-09-2019 20:25:18 18.3 C 20 %
3205 22-09-2019 20:35:17 19 C 20 %
3206 22-09-2019 20:45:18 20 C 20 %
3207 22-09-2019 20:55:18 19.7 C 20 %
3208 22-09-2019 21:05:17 17.8 C 20 %
3209 22-09-2019 21:15:17 17.5 C 20 %
3210 22-09-2019 21:25:17 17.3 C 20 %
3211 22-09-2019 21:35:17 17.8 C 20 %
3212 22-09-2019 21:45:17 19.3 C 20 %
3213 22-09-2019 21:55:17 18.6 C 20 %
3214 22-09-2019 22:05:17 18.5 C 20 %
3215 22-09-2019 22:15:17 18.3 C 20 %
3216 22-09-2019 22:25:17 17.6 C 20 %
3217 22-09-2019 22:35:18 17.4 C 20 %
3218 22-09-2019 22:45:17 17.6 C 20 %
3219 22-09-2019 22:55:17 17.6 C 20 %
3220 22-09-2019 23:05:18 17.7 C 20 %
3221 22-09-2019 23:15:17 17.7 C 20 %
3222 22-09-2019 23:25:17 17.7 C 20 %
3223 22-09-2019 23:35:17 17.6 C 20 %
3224 22-09-2019 23:45:17 17.3 C 20 %
3225 22-09-2019 23:55:18 17.2 C 20 %
Sensor: Nr:Datum:Temp:Feuchte:
Aussen-T/F 3226 23-09-2019 00:05:17 16.8 C 20 %
3227 23-09-2019 00:15:17 17.5 C 20 %
3228 23-09-2019 00:25:17 17.8 C 20 %
3229 23-09-2019 00:35:17 18.2 C 20 %
3230 23-09-2019 00:45:18 18.2 C 20 %
3231 23-09-2019 00:55:18 18.9 C 20 %
3232 23-09-2019 01:05:17 18.7 C 20 %
3233 23-09-2019 01:15:17 18.5 C 20 %
3234 23-09-2019 01:25:17 18.5 C 20 %
3235 23-09-2019 01:35:17 18.2 C 20 %
3236 23-09-2019 01:45:18 18.1 C 20 %
3237 23-09-2019 01:55:18 18.4 C 20 %
3238 23-09-2019 02:05:17 18.5 C 20 %
3239 23-09-2019 02:15:18 18.4 C 20 %
3240 23-09-2019 02:25:18 18.2 C 20 %
3241 23-09-2019 02:35:17 17.9 C 20 %
3242 23-09-2019 02:45:17 17.7 C 20 %
3243 23-09-2019 02:55:17 17.5 C 20 %
3244 23-09-2019 03:05:17 17.4 C 20 %
3245 23-09-2019 03:15:18 17.2 C 20 %
3246 23-09-2019 03:25:18 17.1 C 20 %
3247 23-09-2019 03:35:17 16.7 C 20 %
3248 23-09-2019 03:45:18 16.3 C 20 %
3249 23-09-2019 03:55:18 16.2 C 20 %
3250 23-09-2019 04:05:17 16 C 20 %
Sensor: Nr:Datum:Temp:Feuchte:
Aussen-T/F 3251 23-09-2019 04:15:17 15.6 C 20 %
3252 23-09-2019 04:25:17 15.2 C 20 %
3253 23-09-2019 04:35:17 14.9 C 21 %
3254 23-09-2019 04:45:18 14.8 C 23 %
3255 23-09-2019 04:55:18 14.8 C 25 %
3256 23-09-2019 05:05:17 14.8 C 25 %
3257 23-09-2019 05:15:17 14.6 C 23 %
3258 23-09-2019 05:25:17 14.4 C 24 %
3259 23-09-2019 05:35:17 14.3 C 24 %
3260 23-09-2019 05:45:17 14.2 C 24 %
3261 23-09-2019 05:55:17 14.1 C 25 %
3262 23-09-2019 06:05:17 14 C 25 %
3263 23-09-2019 06:15:18 14 C 25 %
3264 23-09-2019 06:25:18 13.9 C 27 %
3265 23-09-2019 06:35:17 13.8 C 27 %
3266 23-09-2019 06:45:18 13.8 C 28 %
3267 23-09-2019 06:55:18 13.9 C 29 %
3268 23-09-2019 07:05:17 13.8 C 29 %
3269 23-09-2019 07:15:17 13.8 C 30 %
3270 23-09-2019 07:25:17 13.8 C 30 %
3271 23-09-2019 07:35:17 13.8 C 30 %
3272 23-09-2019 07:45:18 13.8 C 30 %
3273 23-09-2019 07:55:18 13.7 C 30 %
3274 23-09-2019 08:05:17 13.7 C 30 %
3275 23-09-2019 08:15:18 13.8 C 30 %
Sensor: Nr:Datum:Temp:Feuchte:
Aussen-T/F 3276 23-09-2019 08:25:18 13.9 C 30 %
3277 23-09-2019 08:35:17 13.9 C 30 %
3278 23-09-2019 08:45:17 14 C 30 %
3279 23-09-2019 08:55:17 14.1 C 30 %
3280 23-09-2019 09:05:17 14.2 C 30 %
3281 23-09-2019 09:15:17 14.5 C 30 %
3282 23-09-2019 09:25:17 14.7 C 30 %
3283 23-09-2019 09:35:18 14.8 C 27 %
3284 23-09-2019 09:45:17 15.1 C 27 %
3285 23-09-2019 09:55:17 15.3 C 23 %
3286 23-09-2019 10:05:18 15.5 C 23 %
3287 23-09-2019 10:15:17 15.8 C 24 %
3288 23-09-2019 10:25:17 16.2 C 22 %
3289 23-09-2019 10:35:18 16.8 C 22 %
3290 23-09-2019 10:45:17 16.8 C 21 %
3291 23-09-2019 10:55:17 16.9 C 21 %
3292 23-09-2019 11:05:18 16.6 C 21 %
3293 23-09-2019 11:15:17 16.5 C 21 %
3294 23-09-2019 11:25:17 16.5 C 21 %
3295 23-09-2019 11:35:17 16.3 C 23 %
3296 23-09-2019 11:45:17 16.5 C 22 %
3297 23-09-2019 11:55:17 16.8 C 21 %
3298 23-09-2019 12:05:17 17.1 C 21 %
3299 23-09-2019 12:15:18 17.2 C 20 %
3300 23-09-2019 12:25:18 17.8 C 20 %
Sensor: Nr:Datum:Temp:Feuchte:
Aussen-T/F 3301 23-09-2019 12:35:17 17.7 C 20 %
3302 23-09-2019 12:45:17 18 C 20 %
3303 23-09-2019 12:55:17 18 C 20 %
3304 23-09-2019 13:05:17 18.1 C 20 %
3305 23-09-2019 13:15:17 18.9 C 20 %
3306 23-09-2019 13:25:17 18.9 C 20 %
3307 23-09-2019 13:35:17 19.3 C 20 %
3308 23-09-2019 13:45:17 19.1 C 20 %
3309 23-09-2019 13:55:18 19.7 C 20 %
3310 23-09-2019 14:05:17 20.8 C 20 %
3311 23-09-2019 14:15:18 22.4 C 20 %
3312 23-09-2019 14:25:18 21.2 C 20 %
3313 23-09-2019 14:35:17 21 C 20 %
3314 23-09-2019 14:45:18 20.7 C 20 %
3315 23-09-2019 14:55:18 20.6 C 20 %
3316 23-09-2019 15:05:17 20.8 C 20 %
3317 23-09-2019 15:15:17 20.3 C 20 %
3318 23-09-2019 15:25:17 20.3 C 20 %
3319 23-09-2019 15:35:17 22.6 C 20 %
3320 23-09-2019 15:45:18 20.8 C 20 %
3321 23-09-2019 15:55:18 20.6 C 20 %
3322 23-09-2019 16:05:17 21.9 C 20 %
3323 23-09-2019 16:15:17 22.8 C 20 %
3324 23-09-2019 16:25:17 21.1 C 20 %
3325 23-09-2019 16:35:17 22.2 C 20 %
Sensor: Nr:Datum:Temp:Feuchte:
Aussen-T/F 3326 23-09-2019 16:45:17 22 C 20 %
3327 23-09-2019 16:55:17 21.1 C 20 %
3328 23-09-2019 17:05:17 21.8 C 20 %
3329 23-09-2019 17:15:17 22 C 20 %
3330 23-09-2019 17:25:17 20.4 C 20 %
3331 23-09-2019 17:35:17 21.4 C 20 %
3332 23-09-2019 17:45:18 21 C 20 %
3333 23-09-2019 17:55:18 19.6 C 20 %
3334 23-09-2019 18:05:17 19.2 C 20 %
3335 23-09-2019 18:15:18 18.7 C 20 %
3336 23-09-2019 18:25:18 17.7 C 20 %
3337 23-09-2019 18:35:17 17.2 C 20 %
3338 23-09-2019 18:45:18 16.7 C 20 %
3339 23-09-2019 18:55:18 16.4 C 20 %
3340 23-09-2019 19:05:17 16.4 C 20 %
3341 23-09-2019 19:15:18 16.2 C 20 %
3342 23-09-2019 19:25:18 16 C 20 %
3343 23-09-2019 19:35:17 15.8 C 20 %
3344 23-09-2019 19:45:18 15.1 C 20 %
3345 23-09-2019 19:55:18 14.6 C 20 %
3346 23-09-2019 20:05:17 14.1 C 20 %
3347 23-09-2019 20:15:17 13.8 C 20 %
3348 23-09-2019 20:25:17 13.7 C 20 %
3349 23-09-2019 20:35:17 13.9 C 20 %
3350 23-09-2019 20:45:17 14.2 C 20 %
Sensor: Nr:Datum:Temp:Feuchte:
Aussen-T/F 3351 23-09-2019 20:55:17 14.2 C 20 %
3352 23-09-2019 21:05:18 14.1 C 20 %
3353 23-09-2019 21:15:17 13.7 C 21 %
3354 23-09-2019 21:25:18 13.4 C 22 %
3355 23-09-2019 21:35:18 13.4 C 23 %
3356 23-09-2019 21:45:17 13.7 C 23 %
3357 23-09-2019 21:55:17 13.7 C 23 %
3358 23-09-2019 22:05:17 13.7 C 23 %
3359 23-09-2019 22:15:17 13.8 C 23 %
3360 23-09-2019 22:25:17 13.9 C 23 %
3361 23-09-2019 22:35:17 13.9 C 23 %
3362 23-09-2019 22:45:17 14 C 22 %
3363 23-09-2019 22:55:18 14.1 C 22 %
3364 23-09-2019 23:05:17 14 C 23 %
3365 23-09-2019 23:15:18 14 C 23 %
3366 23-09-2019 23:25:18 14 C 23 %
3367 23-09-2019 23:35:17 14.1 C 23 %
3368 23-09-2019 23:45:17 14.2 C 23 %
3369 23-09-2019 23:55:17 14.3 C 23 %
3370 24-09-2019 00:05:17 14.4 C 23 %
3371 24-09-2019 00:15:17 14.3 C 23 %
3372 24-09-2019 00:25:17 14.1 C 23 %
3373 24-09-2019 00:35:17 14 C 23 %
3374 24-09-2019 00:45:17 14 C 23 %
3375 24-09-2019 00:55:17 14 C 23 %
Sensor: Nr:Datum:Temp:Feuchte:
Aussen-T/F 3376 24-09-2019 01:05:18 13.9 C 24 %
3377 24-09-2019 01:15:17 13.8 C 25 %
3378 24-09-2019 01:25:17 13.6 C 24 %
3379 24-09-2019 01:35:18 13.3 C 24 %
3380 24-09-2019 01:45:17 12.5 C 25 %
3381 24-09-2019 01:55:17 11.9 C 26 %
3382 24-09-2019 02:05:18 11.8 C 27 %
3383 24-09-2019 02:15:17 11.8 C 28 %
3384 24-09-2019 02:25:17 11.8 C 29 %
3385 24-09-2019 02:35:17 11.9 C 29 %
3386 24-09-2019 02:45:18 11.9 C 29 %
3387 24-09-2019 02:55:18 11.7 C 29 %
3388 24-09-2019 03:05:17 11.5 C 29 %
3389 24-09-2019 03:15:17 11.2 C 28 %
3390 24-09-2019 03:25:17 11.2 C 30 %
3391 24-09-2019 03:35:17 11.2 C 30 %
3392 24-09-2019 03:45:17 11.3 C 30 %
3393 24-09-2019 03:55:17 11.3 C 30 %
3394 24-09-2019 04:05:17 10.8 C 30 %
3395 24-09-2019 04:15:17 11 C 30 %
3396 24-09-2019 04:25:17 11.1 C 30 %
3397 24-09-2019 04:35:17 10.8 C 30 %
3398 24-09-2019 04:45:18 10.7 C 30 %
3399 24-09-2019 04:55:18 10.3 C 30 %
3400 24-09-2019 05:05:17 10.1 C 30 %
Sensor: Nr:Datum:Temp:Feuchte:
Aussen-T/F 3401 24-09-2019 05:15:17 10.1 C 30 %
3402 24-09-2019 05:25:18 10.1 C 30 %
3403 24-09-2019 05:35:17 9.8 C 31 %
3404 24-09-2019 05:45:17 9.8 C 31 %
3405 24-09-2019 05:55:17 9.5 C 31 %
3406 24-09-2019 06:05:17 9.4 C 31 %
3407 24-09-2019 06:15:17 9.4 C 31 %
3408 24-09-2019 06:25:17 9.5 C 32 %
3409 24-09-2019 06:35:18 9.5 C 32 %
3410 24-09-2019 06:45:17 9.5 C 32 %
3411 24-09-2019 06:55:17 9.3 C 32 %
3412 24-09-2019 07:05:18 9.2 C 32 %
3413 24-09-2019 07:15:17 9.3 C 32 %
3414 24-09-2019 07:25:17 9.3 C 32 %
3415 24-09-2019 07:35:18 9.2 C 32 %
3416 24-09-2019 07:45:17 9.5 C 33 %
3417 24-09-2019 07:55:17 10 C 33 %
3418 24-09-2019 08:05:18 10.3 C 33 %
3419 24-09-2019 08:15:17 10.5 C 33 %
3420 24-09-2019 08:25:17 10.6 C 32 %
3421 24-09-2019 08:35:17 11 C 32 %
3422 24-09-2019 08:45:17 10.8 C 32 %
3423 24-09-2019 08:55:17 11.1 C 31 %
3424 24-09-2019 09:05:17 11 C 30 %
3425 24-09-2019 09:15:18 11.1 C 30 %
Sensor: Nr:Datum:Temp:Feuchte:
Aussen-T/F 3426 24-09-2019 09:25:18 11.4 C 30 %
3427 24-09-2019 09:35:17 11.7 C 29 %
3428 24-09-2019 09:45:17 11.9 C 29 %
3429 24-09-2019 09:55:17 12.2 C 27 %
3430 24-09-2019 10:05:17 12.4 C 26 %
3431 24-09-2019 10:15:17 12.8 C 26 %
3432 24-09-2019 10:25:17 13.4 C 25 %
3433 24-09-2019 10:35:17 13.5 C 25 %
3434 24-09-2019 10:45:17 14 C 23 %
3435 24-09-2019 10:55:17 14.5 C 25 %
3436 24-09-2019 11:05:17 15 C 22 %
3437 24-09-2019 11:15:17 15.5 C 21 %
3438 24-09-2019 11:25:17 16 C 20 %
3439 24-09-2019 11:35:18 16.3 C 20 %
3440 24-09-2019 11:45:17 17.3 C 20 %
3441 24-09-2019 11:55:17 18.1 C 20 %
3442 24-09-2019 12:05:17 18.1 C 20 %
3443 24-09-2019 12:15:17 18.5 C 20 %
3444 24-09-2019 12:25:17 19 C 20 %
3445 24-09-2019 12:35:18 19.3 C 20 %
3446 24-09-2019 12:45:17 19.4 C 20 %
3447 24-09-2019 12:55:17 18.9 C 20 %
3448 24-09-2019 13:05:18 19.1 C 20 %
3449 24-09-2019 13:15:17 18.9 C 20 %
3450 24-09-2019 13:25:17 19.6 C 20 %
Sensor: Nr:Datum:Temp:Feuchte:
Aussen-T/F 3451 24-09-2019 13:35:17 19.3 C 20 %
3452 24-09-2019 13:45:17 19.8 C 20 %
3453 24-09-2019 13:55:17 20.2 C 20 %
3454 24-09-2019 14:05:17 20.3 C 20 %
3455 24-09-2019 14:15:17 19.8 C 20 %
3456 24-09-2019 14:25:17 19.8 C 20 %
3457 24-09-2019 14:35:17 19.3 C 20 %
3458 24-09-2019 14:45:17 19.2 C 20 %
3459 24-09-2019 14:55:17 19.1 C 20 %
3460 24-09-2019 15:05:17 18.7 C 20 %
3461 24-09-2019 15:15:17 18.7 C 20 %
3462 24-09-2019 15:25:17 18.4 C 20 %
3463 24-09-2019 15:35:17 18.5 C 20 %
3464 24-09-2019 15:45:17 18.6 C 20 %
3465 24-09-2019 15:55:17 18.2 C 20 %
3466 24-09-2019 16:05:17 16.9 C 20 %
3467 24-09-2019 16:15:17 16.5 C 20 %
3468 24-09-2019 16:25:17 16.6 C 20 %
3469 24-09-2019 16:35:17 16.1 C 20 %
3470 24-09-2019 16:45:17 15.9 C 25 %
3471 24-09-2019 16:55:17 16 C 24 %
3472 24-09-2019 17:05:17 16.4 C 22 %
3473 24-09-2019 17:15:17 16.5 C 22 %
3474 24-09-2019 17:25:17 16.4 C 23 %
3475 24-09-2019 17:35:17 16.3 C 24 %
Sensor: Nr:Datum:Temp:Feuchte:
Aussen-T/F 3476 24-09-2019 17:45:17 16.1 C 25 %
3477 24-09-2019 17:55:17 16 C 25 %
3478 24-09-2019 18:05:17 15.7 C 26 %
3479 24-09-2019 18:15:17 15.5 C 26 %
3480 24-09-2019 18:25:17 15.4 C 27 %
3481 24-09-2019 18:35:17 15.2 C 27 %
3482 24-09-2019 18:45:18 15.1 C 28 %
3483 24-09-2019 18:55:18 15.1 C 28 %
3484 24-09-2019 19:05:17 14.9 C 29 %
3485 24-09-2019 19:15:17 14.7 C 29 %
3486 24-09-2019 19:25:17 14.4 C 29 %
3487 24-09-2019 19:35:18 14.3 C 29 %
3488 24-09-2019 19:45:17 14 C 29 %
3489 24-09-2019 19:55:17 13.8 C 29 %
3490 24-09-2019 20:05:18 13.7 C 30 %
3491 24-09-2019 20:15:17 13.7 C 30 %
3492 24-09-2019 20:25:17 13.6 C 30 %
3493 24-09-2019 20:35:17 13.5 C 30 %
3494 24-09-2019 20:45:17 13.5 C 30 %
3495 24-09-2019 20:55:17 13.5 C 30 %
3496 24-09-2019 21:05:17 13.4 C 30 %
3497 24-09-2019 21:15:17 13.4 C 30 %
3498 24-09-2019 21:25:17 13.4 C 30 %
3499 24-09-2019 21:35:17 13.3 C 30 %
3500 24-09-2019 21:45:18 13.4 C 30 %
Sensor: Nr:Datum:Temp:Feuchte:
Aussen-T/F 3501 24-09-2019 21:55:18 13.3 C 30 %
3502 24-09-2019 22:05:17 13.4 C 30 %
3503 24-09-2019 22:15:17 13.4 C 30 %
3504 24-09-2019 22:25:17 13.4 C 30 %
3505 24-09-2019 22:35:17 13.4 C 30 %
3506 24-09-2019 22:45:18 13.4 C 30 %
3507 24-09-2019 22:55:18 13.4 C 31 %
3508 24-09-2019 23:05:17 13.6 C 31 %
3509 24-09-2019 23:15:17 13.5 C 31 %
3510 24-09-2019 23:25:17 13.5 C 31 %
3511 24-09-2019 23:35:17 13.5 C 31 %
3512 24-09-2019 23:45:17 13.5 C 31 %
3513 24-09-2019 23:55:17 13.6 C 31 %
3514 25-09-2019 00:05:18 13.6 C 31 %
3515 25-09-2019 00:15:17 13.7 C 31 %
3516 25-09-2019 00:25:17 13.7 C 31 %
3517 25-09-2019 00:35:17 13.7 C 31 %
3518 25-09-2019 00:45:17 13.7 C 31 %
3519 25-09-2019 00:55:17 13.7 C 31 %
3520 25-09-2019 01:05:18 13.8 C 31 %
3521 25-09-2019 01:15:17 13.8 C 31 %
3522 25-09-2019 01:25:17 13.8 C 31 %
3523 25-09-2019 01:35:17 13.8 C 31 %
3524 25-09-2019 01:45:17 14 C 30 %
3525 25-09-2019 01:55:17 14.2 C 28 %
Sensor: Nr:Datum:Temp:Feuchte:
Aussen-T/F 3526 25-09-2019 02:05:17 14.5 C 26 %
3527 25-09-2019 02:15:18 14.3 C 27 %
3528 25-09-2019 02:25:18 14.7 C 26 %
3529 25-09-2019 02:35:17 14.6 C 26 %
3530 25-09-2019 02:45:17 14.6 C 26 %
3531 25-09-2019 02:55:18 14.4 C 27 %
3532 25-09-2019 03:05:17 14.4 C 28 %
3533 25-09-2019 03:15:18 14.4 C 28 %
3534 25-09-2019 03:25:18 14.6 C 27 %
3535 25-09-2019 03:35:17 14.5 C 27 %
3536 25-09-2019 03:45:17 14.3 C 28 %
3537 25-09-2019 03:55:17 14.3 C 30 %
3538 25-09-2019 04:05:17 14.2 C 30 %
3539 25-09-2019 04:15:17 14.2 C 31 %
3540 25-09-2019 04:25:17 14.2 C 31 %
3541 25-09-2019 04:35:17 14.1 C 31 %
3542 25-09-2019 04:45:17 14.2 C 29 %
3543 25-09-2019 04:55:17 14 C 28 %
3544 25-09-2019 05:05:17 13.9 C 29 %
3545 25-09-2019 05:15:17 13.8 C 29 %
3546 25-09-2019 05:25:17 13.6 C 29 %
3547 25-09-2019 05:35:17 13.5 C 28 %
3548 25-09-2019 05:45:17 13.4 C 28 %
3549 25-09-2019 05:55:17 13.4 C 28 %
3550 25-09-2019 06:05:17 13.4 C 28 %
Sensor: Nr:Datum:Temp:Feuchte:
Aussen-T/F 3551 25-09-2019 06:15:17 13.2 C 29 %
3552 25-09-2019 06:25:17 13.2 C 30 %
3553 25-09-2019 06:35:17 13.3 C 30 %
3554 25-09-2019 06:45:17 13.5 C 28 %
3555 25-09-2019 06:55:17 13.5 C 28 %
3556 25-09-2019 07:05:17 13.4 C 29 %
3557 25-09-2019 07:15:18 13.4 C 29 %
3558 25-09-2019 07:25:18 13.7 C 27 %
3559 25-09-2019 07:35:17 13.6 C 27 %
3560 25-09-2019 07:45:17 13.5 C 27 %
3561 25-09-2019 07:55:18 13.5 C 27 %
3562 25-09-2019 08:05:17 13.3 C 29 %
3563 25-09-2019 08:15:18 13.4 C 30 %
3564 25-09-2019 08:25:18 13.5 C 30 %
3565 25-09-2019 08:35:17 13.7 C 29 %
3566 25-09-2019 08:45:17 13.8 C 29 %
3567 25-09-2019 08:55:17 14 C 28 %
3568 25-09-2019 09:05:18 14 C 28 %
3569 25-09-2019 09:15:17 14 C 28 %
3570 25-09-2019 09:25:17 14.4 C 27 %
3571 25-09-2019 09:35:17 14.6 C 26 %
3572 25-09-2019 09:45:17 14.6 C 26 %
3573 25-09-2019 09:55:17 14.5 C 25 %
3574 25-09-2019 10:05:17 14.5 C 26 %
3575 25-09-2019 10:15:17 15.3 C 23 %
Sensor: Nr:Datum:Temp:Feuchte:
Aussen-T/F 3576 25-09-2019 10:25:17 15.7 C 22 %
3577 25-09-2019 10:35:17 15.8 C 21 %
3578 25-09-2019 10:45:17 15.7 C 22 %
3579 25-09-2019 10:55:17 16 C 20 %
3580 25-09-2019 11:05:18 16.2 C 20 %
3581 25-09-2019 11:15:17 16.5 C 20 %
3582 25-09-2019 11:25:17 16.8 C 20 %
3583 25-09-2019 11:35:17 17 C 20 %
3584 25-09-2019 11:45:17 17.1 C 20 %
3585 25-09-2019 11:55:17 16.8 C 20 %
3586 25-09-2019 12:05:18 17.2 C 20 %
3587 25-09-2019 12:15:17 17.6 C 20 %
3588 25-09-2019 12:25:17 18 C 20 %
3589 25-09-2019 12:35:17 17.1 C 20 %
3590 25-09-2019 12:45:17 17.4 C 20 %
3591 25-09-2019 12:55:17 17.9 C 20 %
3592 25-09-2019 13:05:17 17.6 C 20 %
3593 25-09-2019 13:15:18 17.7 C 20 %
3594 25-09-2019 13:25:18 17.9 C 20 %
3595 25-09-2019 13:35:17 18.4 C 20 %
3596 25-09-2019 13:45:18 18.1 C 20 %
3597 25-09-2019 13:55:18 19.1 C 20 %
3598 25-09-2019 14:05:17 18.8 C 20 %
3599 25-09-2019 14:15:18 18.1 C 20 %
3600 25-09-2019 14:25:18 17.6 C 20 %
Sensor: Nr:Datum:Temp:Feuchte:
Aussen-T/F 3601 25-09-2019 14:35:17 16.9 C 20 %
3602 25-09-2019 14:45:18 16.8 C 20 %
3603 25-09-2019 14:55:18 15.4 C 20 %
3604 25-09-2019 15:05:18 15.6 C 22 %
3605 25-09-2019 15:15:17 16.2 C 21 %
3606 25-09-2019 15:25:17 16.8 C 20 %
3607 25-09-2019 15:35:17 17.1 C 20 %
3608 25-09-2019 15:45:17 16.8 C 20 %
3609 25-09-2019 15:55:17 19.5 C 20 %
3610 25-09-2019 16:05:17 20 C 20 %
3611 25-09-2019 16:15:17 19.7 C 20 %
3612 25-09-2019 16:25:17 20.9 C 20 %
3613 25-09-2019 16:35:17 19.8 C 20 %
3614 25-09-2019 16:45:17 17.7 C 20 %
3615 25-09-2019 16:55:17 18.9 C 20 %
3616 25-09-2019 17:05:17 19.3 C 20 %
3617 25-09-2019 17:15:18 17.9 C 20 %
3618 25-09-2019 17:25:18 17.6 C 20 %
3619 25-09-2019 17:35:17 17.9 C 20 %
3620 25-09-2019 17:45:18 17.7 C 20 %
3621 25-09-2019 17:55:18 17.7 C 20 %
3622 25-09-2019 18:05:17 17.2 C 20 %
3623 25-09-2019 18:15:17 16.4 C 20 %
3624 25-09-2019 18:25:17 16.3 C 20 %
3625 25-09-2019 18:35:17 16 C 20 %
Sensor: Nr:Datum:Temp:Feuchte:
Aussen-T/F 3626 25-09-2019 18:45:17 15.8 C 20 %
3627 25-09-2019 18:55:18 15.8 C 20 %
3628 25-09-2019 19:05:17 15.8 C 20 %
3629 25-09-2019 19:15:18 15.6 C 20 %
3630 25-09-2019 19:25:18 15.4 C 20 %
3631 25-09-2019 19:35:17 15.2 C 21 %
3632 25-09-2019 19:45:18 15.1 C 21 %
3633 25-09-2019 19:55:18 14.8 C 25 %
3634 25-09-2019 20:05:17 14.6 C 25 %
3635 25-09-2019 20:15:17 14.6 C 26 %
3636 25-09-2019 20:25:17 14.5 C 26 %
3637 25-09-2019 20:35:18 14.5 C 26 %
3638 25-09-2019 20:45:17 14.4 C 26 %
3639 25-09-2019 20:55:17 14.4 C 26 %
3640 25-09-2019 21:05:17 14.4 C 26 %
3641 25-09-2019 21:15:17 14.4 C 26 %
3642 25-09-2019 21:25:17 14.4 C 26 %
3643 25-09-2019 21:35:17 14.3 C 26 %
3644 25-09-2019 21:45:18 14.5 C 26 %
3645 25-09-2019 21:55:18 14.4 C 26 %
3646 25-09-2019 22:05:17 14.2 C 27 %
3647 25-09-2019 22:15:18 14.2 C 27 %
3648 25-09-2019 22:25:18 14.2 C 28 %
3649 25-09-2019 22:35:17 14.2 C 30 %
3650 25-09-2019 22:45:17 14.2 C 30 %
Sensor: Nr:Datum:Temp:Feuchte:
Aussen-T/F 3651 25-09-2019 22:55:17 14.2 C 30 %
3652 25-09-2019 23:05:17 14.2 C 30 %
3653 25-09-2019 23:15:18 14.2 C 30 %
3654 25-09-2019 23:25:18 14.1 C 30 %
3655 25-09-2019 23:35:17 14.2 C 30 %
3656 25-09-2019 23:45:18 14.2 C 30 %
3657 25-09-2019 23:55:18 14.2 C 30 %
3658 26-09-2019 00:05:17 14.1 C 30 %
3659 26-09-2019 00:15:17 14.2 C 29 %
3660 26-09-2019 00:25:17 14.1 C 30 %
3661 26-09-2019 00:35:17 14.1 C 30 %
3662 26-09-2019 00:45:18 14.1 C 30 %
3663 26-09-2019 00:55:18 14.1 C 30 %
3664 26-09-2019 01:05:17 14 C 30 %
3665 26-09-2019 01:15:17 13.9 C 30 %
3666 26-09-2019 01:25:17 13.8 C 30 %
3667 26-09-2019 01:35:17 13.5 C 30 %
3668 26-09-2019 01:45:18 13.5 C 31 %
3669 26-09-2019 01:55:18 13.8 C 31 %
3670 26-09-2019 02:05:17 13.8 C 31 %
3671 26-09-2019 02:15:18 13.6 C 31 %
3672 26-09-2019 02:25:18 13.6 C 31 %
3673 26-09-2019 02:35:17 13.8 C 31 %
3674 26-09-2019 02:45:17 13.8 C 31 %
3675 26-09-2019 02:55:18 13.5 C 31 %
Sensor: Nr:Datum:Temp:Feuchte:
Aussen-T/F 3676 26-09-2019 03:05:17 13.1 C 30 %
3677 26-09-2019 03:15:17 13 C 31 %
3678 26-09-2019 03:25:17 13 C 31 %
3679 26-09-2019 03:35:17 12.9 C 32 %
3680 26-09-2019 03:45:17 12.8 C 32 %
3681 26-09-2019 03:55:17 12.8 C 32 %
3682 26-09-2019 04:05:18 12.6 C 32 %
3683 26-09-2019 04:15:17 12.4 C 32 %
3684 26-09-2019 04:25:17 12.7 C 33 %
3685 26-09-2019 04:35:18 12.6 C 33 %
3686 26-09-2019 04:45:17 12.9 C 33 %
3687 26-09-2019 04:55:17 13.2 C 32 %
3688 26-09-2019 05:05:18 13.4 C 32 %
3689 26-09-2019 05:15:17 13.5 C 32 %
3690 26-09-2019 05:25:17 13.6 C 32 %
3691 26-09-2019 05:35:17 13.6 C 31 %
3692 26-09-2019 05:45:17 13.4 C 31 %
3693 26-09-2019 05:55:17 13.5 C 31 %
3694 26-09-2019 06:05:17 13.6 C 31 %
3695 26-09-2019 06:15:17 14 C 30 %
3696 26-09-2019 06:25:17 14.1 C 28 %
3697 26-09-2019 06:35:17 14.1 C 29 %
3698 26-09-2019 06:45:17 14 C 30 %
3699 26-09-2019 06:55:17 14 C 29 %
3700 26-09-2019 07:05:17 14.1 C 29 %
Sensor: Nr:Datum:Temp:Feuchte:
Aussen-T/F 3701 26-09-2019 07:15:17 14.1 C 29 %
3702 26-09-2019 07:25:17 14.2 C 29 %
3703 26-09-2019 07:35:17 14.3 C 29 %
3704 26-09-2019 07:45:17 14.4 C 29 %
3705 26-09-2019 07:55:17 14.5 C 28 %
3706 26-09-2019 08:05:17 14.7 C 27 %
3707 26-09-2019 08:15:18 14.6 C 28 %
3708 26-09-2019 08:25:18 14.5 C 28 %
3709 26-09-2019 08:35:17 14.5 C 28 %
3710 26-09-2019 08:45:18 14.5 C 28 %
3711 26-09-2019 08:55:18 14.8 C 28 %
3712 26-09-2019 09:05:17 14.8 C 28 %
3713 26-09-2019 09:15:17 14.8 C 28 %
3714 26-09-2019 09:25:17 14.9 C 27 %
3715 26-09-2019 09:35:17 14.9 C 27 %
3716 26-09-2019 09:45:17 15 C 26 %
3717 26-09-2019 09:55:17 15.2 C 26 %
3718 26-09-2019 10:05:17 15.3 C 27 %
3719 26-09-2019 10:15:17 15.5 C 27 %
3720 26-09-2019 10:25:17 16.1 C 26 %
3721 26-09-2019 10:35:17 16.2 C 26 %
3722 26-09-2019 10:45:17 16.4 C 26 %
3723 26-09-2019 10:55:17 16.4 C 25 %
3724 26-09-2019 11:05:17 16.2 C 26 %
3725 26-09-2019 11:15:17 16.5 C 26 %
Sensor: Nr:Datum:Temp:Feuchte:
Aussen-T/F 3726 26-09-2019 11:25:17 16.5 C 26 %
3727 26-09-2019 11:35:17 16.6 C 25 %
3728 26-09-2019 11:45:17 16.6 C 25 %
3729 26-09-2019 11:55:17 17.4 C 25 %
3730 26-09-2019 12:05:17 17.7 C 23 %
3731 26-09-2019 12:15:17 17.8 C 23 %
3732 26-09-2019 12:25:17 17.8 C 23 %
3733 26-09-2019 12:35:17 17.8 C 23 %
3734 26-09-2019 12:45:17 17.7 C 24 %
3735 26-09-2019 12:55:17 17.4 C 25 %
3736 26-09-2019 13:05:18 17.3 C 25 %
3737 26-09-2019 13:15:17 17.2 C 25 %
3738 26-09-2019 13:25:17 17.5 C 25 %
3739 26-09-2019 13:35:17 17.4 C 25 %
3740 26-09-2019 13:45:17 17.2 C 25 %
3741 26-09-2019 13:55:17 17 C 25 %
3742 26-09-2019 14:05:17 16.9 C 26 %
3743 26-09-2019 14:15:17 17 C 25 %
3744 26-09-2019 14:25:17 17.3 C 25 %
3745 26-09-2019 14:35:17 17.9 C 25 %
3746 26-09-2019 14:45:17 18.6 C 22 %
3747 26-09-2019 14:55:17 18.6 C 23 %
3748 26-09-2019 15:05:17 18.1 C 23 %
3749 26-09-2019 15:15:17 17.9 C 25 %
3750 26-09-2019 15:25:17 17.7 C 25 %
Sensor: Nr:Datum:Temp:Feuchte:
Aussen-T/F 3751 26-09-2019 15:35:17 18.3 C 24 %
3752 26-09-2019 15:45:17 19.9 C 20 %
3753 26-09-2019 15:55:17 19.5 C 20 %
3754 26-09-2019 16:05:17 19.7 C 20 %
3755 26-09-2019 16:15:17 19.1 C 21 %
3756 26-09-2019 16:25:17 18.7 C 22 %
3757 26-09-2019 16:35:17 18.8 C 21 %
3758 26-09-2019 16:45:18 18.8 C 21 %
3759 26-09-2019 16:55:18 19.1 C 20 %
3760 26-09-2019 17:05:17 19.3 C 20 %
3761 26-09-2019 17:15:17 19.3 C 20 %
3762 26-09-2019 17:25:17 19.1 C 20 %
3763 26-09-2019 17:35:17 19 C 20 %
3764 26-09-2019 17:45:17 18.9 C 21 %
3765 26-09-2019 17:55:17 18.9 C 21 %
3766 26-09-2019 18:05:17 18.8 C 22 %
3767 26-09-2019 18:15:18 18.7 C 22 %
3768 26-09-2019 18:25:18 18.6 C 22 %
3769 26-09-2019 18:35:17 18.4 C 22 %
3770 26-09-2019 18:45:17 18.3 C 23 %
3771 26-09-2019 18:55:17 18.1 C 23 %
3772 26-09-2019 19:05:17 17.8 C 25 %
3773 26-09-2019 19:15:18 17.6 C 25 %
3774 26-09-2019 19:25:18 17.4 C 25 %
3775 26-09-2019 19:35:17 17.3 C 25 %
Sensor: Nr:Datum:Temp:Feuchte:
Aussen-T/F 3776 26-09-2019 19:45:17 17.1 C 26 %
3777 26-09-2019 19:55:17 17.3 C 26 %
3778 26-09-2019 20:05:17 17.2 C 25 %
3779 26-09-2019 20:15:17 17.5 C 23 %
3780 26-09-2019 20:25:17 17.4 C 23 %
3781 26-09-2019 20:35:17 17.3 C 23 %
3782 26-09-2019 20:45:17 17.2 C 23 %
3783 26-09-2019 20:55:17 17.2 C 23 %
3784 26-09-2019 21:05:18 17.1 C 23 %
3785 26-09-2019 21:15:17 17.1 C 23 %
3786 26-09-2019 21:25:17 17.2 C 23 %
3787 26-09-2019 21:35:17 17.3 C 23 %
3788 26-09-2019 21:45:17 17.6 C 22 %
3789 26-09-2019 21:55:17 17.7 C 22 %
3790 26-09-2019 22:05:17 17.7 C 22 %
3791 26-09-2019 22:15:17 17.7 C 22 %
3792 26-09-2019 22:25:17 17.7 C 21 %
3793 26-09-2019 22:35:17 17.8 C 21 %
3794 26-09-2019 22:45:17 17.8 C 21 %
3795 26-09-2019 22:55:17 18 C 21 %
3796 26-09-2019 23:05:18 17.9 C 21 %
3797 26-09-2019 23:15:17 17.9 C 21 %
3798 26-09-2019 23:25:17 17.7 C 21 %
3799 26-09-2019 23:35:17 17.5 C 21 %
3800 26-09-2019 23:45:17 17.8 C 21 %
Sensor: Nr:Datum:Temp:Feuchte:
Aussen-T/F 3801 26-09-2019 23:55:17 18.2 C 20 %
3802 27-09-2019 00:05:18 18.3 C 20 %
3803 27-09-2019 00:15:18 17.9 C 20 %
3804 27-09-2019 00:25:18 18 C 20 %
3805 27-09-2019 00:35:17 18 C 20 %
3806 27-09-2019 00:45:17 17.8 C 20 %
3807 27-09-2019 00:55:18 17.8 C 20 %
3808 27-09-2019 01:05:17 17.8 C 20 %
3809 27-09-2019 01:15:17 18.2 C 20 %
3810 27-09-2019 01:25:17 18.2 C 20 %
3811 27-09-2019 01:35:17 18.3 C 20 %
3812 27-09-2019 01:45:18 18.2 C 20 %
3813 27-09-2019 01:55:18 18.2 C 20 %
3814 27-09-2019 02:05:17 18.1 C 20 %
3815 27-09-2019 02:15:17 18.2 C 20 %
3816 27-09-2019 02:25:17 17.9 C 20 %
3817 27-09-2019 02:35:17 17.8 C 20 %
3818 27-09-2019 02:45:17 16.7 C 21 %
3819 27-09-2019 02:55:17 16.4 C 22 %
3820 27-09-2019 03:05:17 16.1 C 24 %
3821 27-09-2019 03:15:17 15.9 C 26 %
3822 27-09-2019 03:25:17 15.9 C 26 %
3823 27-09-2019 03:35:17 16 C 25 %
3824 27-09-2019 03:45:17 16.1 C 25 %
3825 27-09-2019 03:55:17 16.1 C 25 %
Sensor: Nr:Datum:Temp:Feuchte:
Aussen-T/F 3826 27-09-2019 04:05:17 16.1 C 25 %
3827 27-09-2019 04:15:18 16.1 C 25 %
3828 27-09-2019 04:25:18 15.8 C 26 %
3829 27-09-2019 04:35:17 15.6 C 27 %
3830 27-09-2019 04:45:18 15.9 C 26 %
3831 27-09-2019 04:55:18 15.7 C 27 %
3832 27-09-2019 05:05:17 15.7 C 26 %
3833 27-09-2019 05:15:18 15.7 C 26 %
3834 27-09-2019 05:25:18 15.5 C 27 %
3835 27-09-2019 05:35:17 15.6 C 27 %
3836 27-09-2019 05:45:18 15.4 C 28 %
3837 27-09-2019 05:55:18 15.3 C 30 %
3838 27-09-2019 06:05:17 15.3 C 31 %
3839 27-09-2019 06:15:17 15.2 C 31 %
3840 27-09-2019 06:25:17 15.2 C 32 %
3841 27-09-2019 06:35:17 15.2 C 32 %
3842 27-09-2019 06:45:17 15 C 31 %
3843 27-09-2019 06:55:17 14.1 C 28 %
3844 27-09-2019 07:05:17 14 C 28 %
3845 27-09-2019 07:15:17 13.8 C 30 %
3846 27-09-2019 07:25:17 13.9 C 31 %
3847 27-09-2019 07:35:17 13.8 C 30 %
3848 27-09-2019 07:45:17 13.8 C 29 %
3849 27-09-2019 07:55:17 13.7 C 28 %
3850 27-09-2019 08:05:18 13.6 C 29 %
Sensor: Nr:Datum:Temp:Feuchte:
Aussen-T/F 3851 27-09-2019 08:15:18 13.6 C 29 %
3852 27-09-2019 08:25:18 13.6 C 29 %
3853 27-09-2019 08:35:17 13.7 C 30 %
3854 27-09-2019 08:45:17 13.5 C 30 %
3855 27-09-2019 08:55:17 13.4 C 30 %
3856 27-09-2019 09:05:17 13.6 C 29 %
3857 27-09-2019 09:15:17 13.8 C 27 %
3858 27-09-2019 09:25:17 13.7 C 27 %
3859 27-09-2019 09:35:18 13.7 C 27 %
3860 27-09-2019 09:45:17 14 C 26 %
3861 27-09-2019 09:55:17 14.2 C 26 %
3862 27-09-2019 10:05:17 14.4 C 26 %
3863 27-09-2019 10:15:18 14.8 C 26 %
3864 27-09-2019 10:25:18 15 C 25 %
3865 27-09-2019 10:35:17 15 C 25 %
3866 27-09-2019 10:45:18 15.1 C 25 %
3867 27-09-2019 10:55:18 15.4 C 25 %
3868 27-09-2019 11:05:17 15.7 C 24 %
3869 27-09-2019 11:15:18 15.7 C 24 %
3870 27-09-2019 11:25:18 15.3 C 24 %
3871 27-09-2019 11:35:17 15.2 C 25 %
3872 27-09-2019 11:45:18 15.6 C 24 %
3873 27-09-2019 11:55:18 16.1 C 22 %
3874 27-09-2019 12:05:17 16.1 C 22 %
3875 27-09-2019 12:15:17 16 C 22 %
Sensor: Nr:Datum:Temp:Feuchte:
Aussen-T/F 3876 27-09-2019 12:25:17 16.4 C 22 %
3877 27-09-2019 12:35:18 16.6 C 21 %
3878 27-09-2019 12:45:17 16.8 C 21 %
3879 27-09-2019 12:55:17 17.2 C 20 %
3880 27-09-2019 13:05:17 17.2 C 20 %
3881 27-09-2019 13:15:17 17.2 C 20 %
3882 27-09-2019 13:25:17 17.4 C 20 %
3883 27-09-2019 13:35:17 17.7 C 20 %
3884 27-09-2019 13:45:17 18 C 20 %
3885 27-09-2019 13:55:17 18.9 C 20 %
3886 27-09-2019 14:05:17 19.1 C 20 %
3887 27-09-2019 14:15:17 19.9 C 20 %
3888 27-09-2019 14:25:17 19 C 20 %
3889 27-09-2019 14:35:17 19.3 C 20 %
3890 27-09-2019 14:45:17 19 C 20 %
3891 27-09-2019 14:55:17 19.3 C 20 %
3892 27-09-2019 15:05:17 19 C 20 %
3893 27-09-2019 15:15:17 18.8 C 20 %
3894 27-09-2019 15:25:17 18.6 C 20 %
3895 27-09-2019 15:35:18 18.6 C 20 %
3896 27-09-2019 15:45:17 18.1 C 20 %
3897 27-09-2019 15:55:17 17.6 C 20 %
3898 27-09-2019 16:05:17 18.9 C 20 %
3899 27-09-2019 16:15:17 19.9 C 20 %
3900 27-09-2019 16:25:17 22.4 C 20 %
Sensor: Nr:Datum:Temp:Feuchte:
Aussen-T/F 3901 27-09-2019 16:35:17 22 C 20 %
3902 27-09-2019 16:45:18 22.8 C 20 %
3903 27-09-2019 16:55:18 21.3 C 20 %
3904 27-09-2019 17:05:17 21.7 C 20 %
3905 27-09-2019 17:15:17 21.6 C 20 %
3906 27-09-2019 17:25:17 19.9 C 20 %
3907 27-09-2019 17:35:18 20.2 C 20 %
3908 27-09-2019 17:45:17 19.4 C 20 %
3909 27-09-2019 17:55:17 18.8 C 20 %
3910 27-09-2019 18:05:18 18.2 C 20 %
3911 27-09-2019 18:15:17 17.7 C 20 %
3912 27-09-2019 18:25:17 17.4 C 20 %
3913 27-09-2019 18:35:17 17.9 C 20 %
3914 27-09-2019 18:45:17 17.7 C 20 %
3915 27-09-2019 18:55:17 17.1 C 20 %
3916 27-09-2019 19:05:17 16.4 C 20 %
3917 27-09-2019 19:15:17 15.6 C 20 %
3918 27-09-2019 19:25:17 15.5 C 20 %
3919 27-09-2019 19:35:17 15.5 C 20 %
3920 27-09-2019 19:45:17 15.4 C 20 %
3921 27-09-2019 19:55:17 15.1 C 20 %
3922 27-09-2019 20:05:18 15.2 C 20 %
3923 27-09-2019 20:15:17 15.1 C 20 %
3924 27-09-2019 20:25:17 15.1 C 21 %
3925 27-09-2019 20:35:17 15 C 22 %
Sensor: Nr:Datum:Temp:Feuchte:
Aussen-T/F 3926 27-09-2019 20:45:17 14.7 C 25 %
3927 27-09-2019 20:55:17 14.3 C 25 %
3928 27-09-2019 21:05:17 14.1 C 25 %
3929 27-09-2019 21:15:17 13.9 C 25 %
3930 27-09-2019 21:25:17 13.8 C 25 %
3931 27-09-2019 21:35:17 13.9 C 25 %
3932 27-09-2019 21:45:17 13.8 C 26 %
3933 27-09-2019 21:55:17 13.7 C 26 %
3934 27-09-2019 22:05:17 13.7 C 27 %
3935 27-09-2019 22:15:18 13.6 C 27 %
3936 27-09-2019 22:25:18 13.3 C 26 %
3937 27-09-2019 22:35:17 13.1 C 27 %
3938 27-09-2019 22:45:18 13.1 C 28 %
3939 27-09-2019 22:55:18 13.4 C 30 %
3940 27-09-2019 23:05:17 13.6 C 29 %
3941 27-09-2019 23:15:17 13.1 C 28 %
3942 27-09-2019 23:25:17 12.9 C 29 %
3943 27-09-2019 23:35:17 12.8 C 30 %
3944 27-09-2019 23:45:17 12.7 C 30 %
3945 27-09-2019 23:55:17 12.5 C 30 %
3946 28-09-2019 00:05:18 12.4 C 30 %
3947 28-09-2019 00:15:17 12.3 C 30 %
3948 28-09-2019 00:25:17 12.1 C 30 %
3949 28-09-2019 00:35:17 12.2 C 31 %
3950 28-09-2019 00:45:17 12.3 C 31 %
Sensor: Nr:Datum:Temp:Feuchte:
Aussen-T/F 3951 28-09-2019 00:55:17 12.1 C 31 %
3952 28-09-2019 01:05:18 12.3 C 31 %
3953 28-09-2019 01:15:17 12.2 C 31 %
3954 28-09-2019 01:25:17 12.2 C 31 %
3955 28-09-2019 01:35:18 12.6 C 30 %
3956 28-09-2019 01:45:17 13 C 28 %
3957 28-09-2019 01:55:17 14.2 C 25 %
3958 28-09-2019 02:05:18 14.2 C 25 %
3959 28-09-2019 02:15:17 14.7 C 24 %
3960 28-09-2019 02:25:17 14.7 C 23 %
3961 28-09-2019 02:35:17 14.6 C 23 %
3962 28-09-2019 02:45:17 14.8 C 23 %
3963 28-09-2019 02:55:17 14.9 C 23 %
3964 28-09-2019 03:05:18 14.9 C 23 %
3965 28-09-2019 03:15:17 15.2 C 22 %
3966 28-09-2019 03:25:17 14.8 C 23 %
3967 28-09-2019 03:35:17 14.4 C 25 %
3968 28-09-2019 03:45:17 14.1 C 26 %
3969 28-09-2019 03:55:17 13.7 C 26 %
3970 28-09-2019 04:05:17 13.8 C 27 %
3971 28-09-2019 04:15:18 13.5 C 27 %
3972 28-09-2019 04:25:18 14 C 26 %
3973 28-09-2019 04:35:17 13.7 C 26 %
3974 28-09-2019 04:45:17 14.1 C 25 %
3975 28-09-2019 04:55:17 14.1 C 25 %
Sensor: Nr:Datum:Temp:Feuchte:
Aussen-T/F 3976 28-09-2019 05:05:17 14.1 C 25 %
3977 28-09-2019 05:15:17 14 C 25 %
3978 28-09-2019 05:25:17 14.1 C 25 %
3979 28-09-2019 05:35:17 14 C 25 %
3980 28-09-2019 05:45:18 14.2 C 25 %
3981 28-09-2019 05:55:18 14.2 C 25 %
3982 28-09-2019 06:05:17 14.4 C 25 %
3983 28-09-2019 06:15:17 14.1 C 25 %
3984 28-09-2019 06:25:17 14 C 25 %
3985 28-09-2019 06:35:18 14.4 C 25 %
3986 28-09-2019 06:45:17 13.8 C 26 %
3987 28-09-2019 06:55:17 13.8 C 26 %
3988 28-09-2019 07:05:17 13.5 C 26 %
3989 28-09-2019 07:15:17 13.6 C 27 %
3990 28-09-2019 07:25:17 13.3 C 29 %
3991 28-09-2019 07:35:17 13.5 C 28 %
3992 28-09-2019 07:45:18 13.5 C 29 %
3993 28-09-2019 07:55:18 13.4 C 30 %
3994 28-09-2019 08:05:17 13.2 C 30 %
3995 28-09-2019 08:15:18 13.8 C 26 %
3996 28-09-2019 08:25:18 13.8 C 25 %
3997 28-09-2019 08:35:17 13.7 C 26 %
3998 28-09-2019 08:45:18 13.5 C 26 %
3999 28-09-2019 08:55:18 13.8 C 25 %
4000 28-09-2019 09:05:17 14.1 C 25 %
Sensor: Nr:Datum:Temp:Feuchte:
Aussen-T/F 4001 28-09-2019 09:15:17 14.5 C 24 %
4002 28-09-2019 09:25:17 14.3 C 24 %
4003 28-09-2019 09:35:18 14.5 C 23 %
4004 28-09-2019 09:45:17 14.4 C 23 %
4005 28-09-2019 09:55:17 14.8 C 22 %
4006 28-09-2019 10:05:18 15 C 21 %
4007 28-09-2019 10:15:17 15.5 C 20 %
4008 28-09-2019 10:25:17 15.6 C 20 %
4009 28-09-2019 10:35:17 16 C 20 %
4010 28-09-2019 10:45:17 16.2 C 20 %
4011 28-09-2019 10:55:17 16.1 C 20 %
4012 28-09-2019 11:05:18 16 C 20 %
4013 28-09-2019 11:15:17 16.6 C 20 %
4014 28-09-2019 11:25:17 16.7 C 20 %
4015 28-09-2019 11:35:18 17 C 20 %
4016 28-09-2019 11:45:17 16.6 C 20 %
4017 28-09-2019 11:55:17 16.9 C 20 %
4018 28-09-2019 12:05:17 17.1 C 20 %
4019 28-09-2019 12:15:17 17.4 C 20 %
4020 28-09-2019 12:25:17 17.3 C 20 %
4021 28-09-2019 12:35:17 17.2 C 20 %
4022 28-09-2019 12:45:17 17.4 C 20 %
4023 28-09-2019 12:55:17 17.8 C 20 %
4024 28-09-2019 13:05:18 17.5 C 20 %
4025 28-09-2019 13:15:17 17.6 C 20 %
Sensor: Nr:Datum:Temp:Feuchte:
Aussen-T/F 4026 28-09-2019 13:25:17 17.4 C 20 %
4027 28-09-2019 13:35:17 17.7 C 20 %
4028 28-09-2019 13:45:17 17.8 C 20 %
4029 28-09-2019 13:55:17 17.9 C 20 %
4030 28-09-2019 14:05:17 18.3 C 20 %
4031 28-09-2019 14:15:17 18.3 C 20 %
4032 28-09-2019 14:25:18 17.8 C 20 %
4033 28-09-2019 14:35:17 18.1 C 20 %
4034 28-09-2019 14:45:18 17.8 C 20 %
4035 28-09-2019 14:55:18 18.4 C 20 %
4036 28-09-2019 15:05:17 18.1 C 20 %
4037 28-09-2019 15:15:17 17.7 C 20 %
4038 28-09-2019 15:25:17 17.3 C 20 %
4039 28-09-2019 15:35:17 17.5 C 20 %
4040 28-09-2019 15:45:18 17.3 C 20 %
4041 28-09-2019 15:55:18 16.8 C 20 %
4042 28-09-2019 16:05:17 17.1 C 20 %
4043 28-09-2019 16:15:17 19.7 C 20 %
4044 28-09-2019 16:25:17 20.3 C 20 %
4045 28-09-2019 16:35:17 19.6 C 20 %
4046 28-09-2019 16:45:17 19 C 20 %
4047 28-09-2019 16:55:17 18.7 C 20 %
4048 28-09-2019 17:05:17 18.6 C 20 %
4049 28-09-2019 17:15:18 17.3 C 20 %
4050 28-09-2019 17:25:18 19 C 20 %
Sensor: Nr:Datum:Temp:Feuchte:
Aussen-T/F 4051 28-09-2019 17:35:17 19.2 C 20 %
4052 28-09-2019 17:45:18 18.3 C 20 %
4053 28-09-2019 17:55:18 17.7 C 20 %
4054 28-09-2019 18:05:17 17.7 C 20 %
4055 28-09-2019 18:15:17 17.3 C 20 %
4056 28-09-2019 18:25:17 17 C 20 %
4057 28-09-2019 18:35:17 16.4 C 20 %
4058 28-09-2019 18:45:18 16.2 C 20 %
4059 28-09-2019 18:55:18 15.9 C 20 %
4060 28-09-2019 19:05:17 15.8 C 20 %
4061 28-09-2019 19:15:17 15.4 C 20 %
4062 28-09-2019 19:25:17 15.6 C 20 %
4063 28-09-2019 19:35:17 15.6 C 20 %
4064 28-09-2019 19:45:17 15.9 C 20 %
4065 28-09-2019 19:55:17 15.9 C 20 %
4066 28-09-2019 20:05:18 15.6 C 20 %
4067 28-09-2019 20:15:17 15.3 C 20 %
4068 28-09-2019 20:25:17 15 C 20 %
4069 28-09-2019 20:35:17 14.8 C 20 %
4070 28-09-2019 20:45:17 15.3 C 20 %
4071 28-09-2019 20:55:17 15.4 C 20 %
4072 28-09-2019 21:05:17 14.8 C 20 %
4073 28-09-2019 21:15:18 14.7 C 20 %
4074 28-09-2019 21:25:18 15.1 C 20 %
4075 28-09-2019 21:35:17 15.1 C 20 %
Sensor: Nr:Datum:Temp:Feuchte:
Aussen-T/F 4076 28-09-2019 21:45:18 15.3 C 20 %
4077 28-09-2019 21:55:18 15.4 C 20 %
4078 28-09-2019 22:05:17 15.4 C 20 %
4079 28-09-2019 22:15:17 15.4 C 20 %
4080 28-09-2019 22:25:17 15.1 C 20 %
4081 28-09-2019 22:35:17 14.8 C 20 %
4082 28-09-2019 22:45:17 14.2 C 20 %
4083 28-09-2019 22:55:17 14.1 C 20 %
4084 28-09-2019 23:05:17 13.4 C 20 %
4085 28-09-2019 23:15:17 13.8 C 20 %
4086 28-09-2019 23:25:17 13.9 C 20 %
4087 28-09-2019 23:35:17 14.7 C 20 %
4088 28-09-2019 23:45:17 14 C 20 %
4089 28-09-2019 23:55:17 14 C 20 %
Sensor: Nr:Datum:Temp:Feuchte:
G-T/H 1 30-08-2019 00:09:17 21.2 C 67 %
2 30-08-2019 00:21:17 21.2 C 67 %
3 30-08-2019 00:33:17 21.2 C 67 %
4 30-08-2019 00:45:17 21.1 C 67 %
5 30-08-2019 00:57:17 21.1 C 67 %
6 30-08-2019 01:09:17 21.1 C 67 %
7 30-08-2019 01:21:18 21.1 C 67 %
8 30-08-2019 01:33:17 21 C 67 %
9 30-08-2019 01:45:17 21 C 67 %
10 30-08-2019 01:57:17 21 C 67 %
11 30-08-2019 02:09:18 21 C 67 %
12 30-08-2019 02:21:17 21 C 67 %
13 30-08-2019 02:33:17 21 C 67 %
14 30-08-2019 02:45:17 20.9 C 68 %
15 30-08-2019 02:57:17 20.9 C 68 %
16 30-08-2019 03:09:18 20.9 C 68 %
17 30-08-2019 03:21:17 20.9 C 68 %
18 30-08-2019 03:33:18 20.9 C 68 %
19 30-08-2019 03:45:17 20.8 C 68 %
20 30-08-2019 03:57:17 20.8 C 68 %
21 30-08-2019 04:09:18 20.8 C 68 %
22 30-08-2019 04:21:17 20.8 C 68 %
23 30-08-2019 04:33:17 20.8 C 68 %
24 30-08-2019 04:45:17 20.8 C 68 %
25 30-08-2019 04:57:17 20.8 C 68 %
Sensor: Nr:Datum:Temp:Feuchte:
G-T/H 26 30-08-2019 05:09:18 20.7 C 68 %
27 30-08-2019 05:21:17 20.8 C 68 %
28 30-08-2019 05:33:17 20.7 C 68 %
29 30-08-2019 05:45:17 20.7 C 68 %
30 30-08-2019 05:57:17 20.8 C 68 %
31 30-08-2019 06:09:17 20.7 C 68 %
32 30-08-2019 06:21:18 20.7 C 68 %
33 30-08-2019 06:33:17 20.6 C 68 %
34 30-08-2019 06:45:17 20.6 C 68 %
35 30-08-2019 06:57:17 20.6 C 68 %
36 30-08-2019 07:09:17 20.6 C 68 %
37 30-08-2019 07:21:18 20.6 C 68 %
38 30-08-2019 07:33:17 20.5 C 68 %
39 30-08-2019 07:45:17 20.5 C 68 %
40 30-08-2019 07:57:17 20.5 C 68 %
41 30-08-2019 08:09:17 20.5 C 68 %
42 30-08-2019 08:21:18 20.4 C 68 %
43 30-08-2019 08:33:17 20.4 C 68 %
44 30-08-2019 08:45:17 20.4 C 68 %
45 30-08-2019 08:57:17 20.4 C 68 %
46 30-08-2019 09:09:17 20.4 C 68 %
47 30-08-2019 09:21:17 20.4 C 68 %
48 30-08-2019 09:33:17 20.4 C 68 %
49 30-08-2019 09:45:17 20.4 C 68 %
50 30-08-2019 09:57:17 20.4 C 68 %
Sensor: Nr:Datum:Temp:Feuchte:
G-T/H 51 30-08-2019 10:09:18 20.4 C 68 %
52 30-08-2019 10:21:17 20.4 C 68 %
53 30-08-2019 10:33:18 20.4 C 68 %
54 30-08-2019 10:45:17 20.4 C 68 %
55 30-08-2019 10:57:17 20.3 C 67 %
56 30-08-2019 11:09:18 20.3 C 67 %
57 30-08-2019 11:21:17 20.3 C 67 %
58 30-08-2019 11:33:18 20.3 C 67 %
59 30-08-2019 11:45:17 20.3 C 67 %
60 30-08-2019 11:57:17 20.3 C 67 %
61 30-08-2019 12:09:18 20.4 C 67 %
62 30-08-2019 12:21:17 20.4 C 67 %
63 30-08-2019 12:33:17 20.4 C 67 %
64 30-08-2019 12:45:18 20.4 C 67 %
65 30-08-2019 12:57:18 20.4 C 67 %
66 30-08-2019 13:09:17 20.4 C 67 %
67 30-08-2019 13:21:17 20.4 C 67 %
68 30-08-2019 13:33:17 20.4 C 67 %
69 30-08-2019 13:45:17 20.5 C 67 %
70 30-08-2019 13:57:18 20.4 C 67 %
71 30-08-2019 14:09:17 20.4 C 67 %
72 30-08-2019 14:21:17 20.4 C 67 %
73 30-08-2019 14:33:17 20.5 C 67 %
74 30-08-2019 14:45:18 20.5 C 67 %
75 30-08-2019 14:57:18 20.5 C 67 %
Sensor: Nr:Datum:Temp:Feuchte:
G-T/H 76 30-08-2019 15:09:17 20.5 C 67 %
77 30-08-2019 15:21:17 20.6 C 67 %
78 30-08-2019 15:33:17 20.6 C 67 %
79 30-08-2019 15:45:18 20.6 C 67 %
80 30-08-2019 15:57:18 20.6 C 66 %
81 30-08-2019 16:09:17 20.6 C 66 %
82 30-08-2019 16:21:17 20.6 C 66 %
83 30-08-2019 16:33:17 20.7 C 66 %
84 30-08-2019 16:45:18 20.7 C 66 %
85 30-08-2019 16:57:18 20.7 C 66 %
86 30-08-2019 17:09:17 20.7 C 66 %
87 30-08-2019 17:21:17 20.7 C 66 %
88 30-08-2019 17:33:17 20.8 C 66 %
89 30-08-2019 17:45:18 20.7 C 66 %
90 30-08-2019 17:57:18 20.8 C 66 %
91 30-08-2019 18:09:17 20.8 C 66 %
92 30-08-2019 18:21:17 20.8 C 66 %
93 30-08-2019 18:33:17 20.8 C 66 %
94 30-08-2019 18:45:17 20.8 C 65 %
95 30-08-2019 18:57:18 20.8 C 65 %
96 30-08-2019 19:09:17 20.8 C 65 %
97 30-08-2019 19:21:17 20.9 C 65 %
98 30-08-2019 19:33:17 20.9 C 65 %
99 30-08-2019 19:45:18 20.9 C 65 %
100 30-08-2019 19:57:18 20.9 C 65 %
Sensor: Nr:Datum:Temp:Feuchte:
G-T/H 101 30-08-2019 20:09:17 20.8 C 65 %
102 30-08-2019 20:21:18 20.9 C 65 %
103 30-08-2019 20:33:17 20.8 C 65 %
104 30-08-2019 20:45:18 20.8 C 65 %
105 30-08-2019 20:57:18 20.8 C 65 %
106 30-08-2019 21:09:17 20.8 C 65 %
107 30-08-2019 21:21:17 20.8 C 66 %
108 30-08-2019 21:33:17 20.8 C 66 %
109 30-08-2019 21:45:18 20.8 C 66 %
110 30-08-2019 21:57:18 20.8 C 66 %
111 30-08-2019 22:09:17 20.7 C 66 %
112 30-08-2019 22:21:17 20.7 C 66 %
113 30-08-2019 22:33:17 20.8 C 66 %
114 30-08-2019 22:45:17 20.8 C 66 %
115 30-08-2019 22:57:18 20.8 C 66 %
116 30-08-2019 23:09:17 20.7 C 66 %
117 30-08-2019 23:21:17 20.7 C 66 %
118 30-08-2019 23:33:17 20.7 C 66 %
119 30-08-2019 23:45:17 20.7 C 66 %
120 30-08-2019 23:57:17 20.7 C 66 %
121 31-08-2019 00:09:17 20.7 C 66 %
122 31-08-2019 00:21:17 20.6 C 66 %
123 31-08-2019 00:33:17 20.6 C 66 %
124 31-08-2019 00:45:17 20.6 C 66 %
125 31-08-2019 00:57:17 20.6 C 66 %
Sensor: Nr:Datum:Temp:Feuchte:
G-T/H 126 31-08-2019 01:09:17 20.6 C 66 %
127 31-08-2019 01:21:18 20.5 C 66 %
128 31-08-2019 01:33:17 20.5 C 67 %
129 31-08-2019 01:45:17 20.5 C 67 %
130 31-08-2019 01:57:17 20.5 C 67 %
131 31-08-2019 02:09:17 20.4 C 67 %
132 31-08-2019 02:21:17 20.4 C 67 %
133 31-08-2019 02:33:17 20.4 C 67 %
134 31-08-2019 02:45:17 20.4 C 67 %
135 31-08-2019 02:57:17 20.4 C 67 %
136 31-08-2019 03:09:17 20.3 C 67 %
137 31-08-2019 03:21:17 20.4 C 67 %
138 31-08-2019 03:33:18 20.3 C 67 %
139 31-08-2019 03:45:17 20.3 C 67 %
140 31-08-2019 03:57:17 20.3 C 67 %
141 31-08-2019 04:09:18 20.3 C 67 %
142 31-08-2019 04:21:17 20.3 C 67 %
143 31-08-2019 04:33:18 20.2 C 67 %
144 31-08-2019 04:45:17 20.2 C 67 %
145 31-08-2019 04:57:17 20.2 C 67 %
146 31-08-2019 05:09:18 20.1 C 66 %
147 31-08-2019 05:21:17 20.1 C 66 %
148 31-08-2019 05:33:17 20.1 C 66 %
149 31-08-2019 05:45:17 20.1 C 66 %
150 31-08-2019 05:57:17 20.1 C 66 %
Sensor: Nr:Datum:Temp:Feuchte:
G-T/H 151 31-08-2019 06:09:18 20.1 C 66 %
152 31-08-2019 06:21:17 20 C 66 %
153 31-08-2019 06:33:17 20.1 C 66 %
154 31-08-2019 06:45:18 20 C 66 %
155 31-08-2019 06:57:18 20 C 66 %
156 31-08-2019 07:09:17 20 C 66 %
157 31-08-2019 07:21:17 19.9 C 67 %
158 31-08-2019 07:33:17 20 C 66 %
159 31-08-2019 07:45:17 19.9 C 67 %
160 31-08-2019 07:57:17 19.9 C 67 %
161 31-08-2019 08:09:17 19.9 C 67 %
162 31-08-2019 08:21:18 19.9 C 67 %
163 31-08-2019 08:33:17 19.9 C 67 %
164 31-08-2019 08:45:17 19.8 C 67 %
165 31-08-2019 08:57:17 19.8 C 67 %
166 31-08-2019 09:09:17 19.8 C 67 %
167 31-08-2019 09:21:17 19.8 C 67 %
168 31-08-2019 09:33:18 19.8 C 67 %
169 31-08-2019 09:45:17 19.8 C 67 %
170 31-08-2019 09:57:17 19.7 C 67 %
171 31-08-2019 10:09:18 19.7 C 67 %
172 31-08-2019 10:21:17 19.7 C 67 %
173 31-08-2019 10:33:18 19.7 C 67 %
174 31-08-2019 10:45:17 19.7 C 67 %
175 31-08-2019 10:57:17 19.8 C 67 %
Sensor: Nr:Datum:Temp:Feuchte:
G-T/H 176 31-08-2019 11:09:18 19.7 C 67 %
177 31-08-2019 11:21:17 19.8 C 67 %
178 31-08-2019 11:33:18 19.7 C 67 %
179 31-08-2019 11:45:17 19.8 C 67 %
180 31-08-2019 11:57:17 19.7 C 67 %
181 31-08-2019 12:09:18 19.7 C 67 %
182 31-08-2019 12:21:17 19.8 C 67 %
183 31-08-2019 12:33:17 19.8 C 67 %
184 31-08-2019 12:45:17 19.8 C 67 %
185 31-08-2019 12:57:17 19.9 C 67 %
186 31-08-2019 13:09:18 19.8 C 67 %
187 31-08-2019 13:21:17 19.9 C 67 %
188 31-08-2019 13:33:17 19.9 C 67 %
189 31-08-2019 13:45:17 19.9 C 67 %
190 31-08-2019 13:57:17 20 C 66 %
191 31-08-2019 14:09:17 20 C 66 %
192 31-08-2019 14:21:17 20 C 66 %
193 31-08-2019 14:33:18 20 C 66 %
194 31-08-2019 14:45:17 20.1 C 66 %
195 31-08-2019 14:57:17 20.1 C 66 %
196 31-08-2019 15:09:18 20.1 C 66 %
197 31-08-2019 15:21:17 20.1 C 66 %
198 31-08-2019 15:33:18 20.1 C 66 %
199 31-08-2019 15:45:17 20.2 C 66 %
200 31-08-2019 15:57:17 20.2 C 66 %
Sensor: Nr:Datum:Temp:Feuchte:
G-T/H 201 31-08-2019 16:09:18 20.3 C 66 %
202 31-08-2019 16:21:17 20.3 C 66 %
203 31-08-2019 16:33:17 20.3 C 66 %
204 31-08-2019 16:45:17 20.3 C 66 %
205 31-08-2019 16:57:17 20.4 C 66 %
206 31-08-2019 17:09:17 20.4 C 66 %
207 31-08-2019 17:21:17 20.4 C 66 %
208 31-08-2019 17:33:17 20.4 C 66 %
209 31-08-2019 17:45:17 20.5 C 66 %
210 31-08-2019 17:57:17 20.5 C 66 %
211 31-08-2019 18:09:17 20.5 C 66 %
212 31-08-2019 18:21:18 20.6 C 66 %
213 31-08-2019 18:33:17 20.6 C 66 %
214 31-08-2019 18:45:18 20.6 C 66 %
215 31-08-2019 18:57:18 20.7 C 66 %
216 31-08-2019 19:09:17 20.7 C 66 %
217 31-08-2019 19:21:17 20.7 C 66 %
218 31-08-2019 19:33:17 20.8 C 66 %
219 31-08-2019 19:45:17 20.8 C 66 %
220 31-08-2019 19:57:17 20.8 C 67 %
221 31-08-2019 20:09:17 20.8 C 67 %
222 31-08-2019 20:21:17 20.8 C 67 %
223 31-08-2019 20:33:17 20.8 C 67 %
224 31-08-2019 20:45:17 20.8 C 67 %
225 31-08-2019 20:57:17 20.8 C 67 %
Sensor: Nr:Datum:Temp:Feuchte:
G-T/H 226 31-08-2019 21:09:17 20.8 C 67 %
227 31-08-2019 21:21:17 20.8 C 67 %
228 31-08-2019 21:33:18 20.8 C 67 %
229 31-08-2019 21:45:17 20.8 C 67 %
230 31-08-2019 21:57:17 20.9 C 67 %
231 31-08-2019 22:09:17 20.9 C 67 %
232 31-08-2019 22:21:17 20.9 C 67 %
233 31-08-2019 22:33:18 20.9 C 67 %
234 31-08-2019 22:45:17 20.9 C 67 %
235 31-08-2019 22:57:17 20.9 C 67 %
236 31-08-2019 23:09:18 20.9 C 67 %
237 31-08-2019 23:21:17 20.8 C 67 %
238 31-08-2019 23:33:18 20.8 C 67 %
239 31-08-2019 23:45:17 20.9 C 67 %
240 31-08-2019 23:57:17 20.9 C 67 %
241 01-09-2019 00:09:18 20.9 C 67 %
242 01-09-2019 00:21:17 20.9 C 67 %
243 01-09-2019 00:33:18 20.9 C 68 %
244 01-09-2019 00:45:17 20.8 C 68 %
245 01-09-2019 00:57:17 20.9 C 68 %
246 01-09-2019 01:09:17 20.8 C 68 %
247 01-09-2019 01:21:17 20.9 C 68 %
248 01-09-2019 01:33:17 20.8 C 68 %
249 01-09-2019 01:45:17 20.8 C 68 %
250 01-09-2019 01:57:17 20.8 C 68 %
Sensor: Nr:Datum:Temp:Feuchte:
G-T/H 251 01-09-2019 02:09:17 20.8 C 68 %
252 01-09-2019 02:21:17 20.8 C 68 %
253 01-09-2019 02:33:18 20.8 C 68 %
254 01-09-2019 02:45:17 20.8 C 68 %
255 01-09-2019 02:57:17 20.8 C 68 %
256 01-09-2019 03:09:18 20.8 C 68 %
257 01-09-2019 03:21:17 20.8 C 68 %
258 01-09-2019 03:33:17 20.8 C 68 %
259 01-09-2019 03:45:17 20.8 C 68 %
260 01-09-2019 03:57:17 20.8 C 68 %
261 01-09-2019 04:09:18 20.8 C 68 %
262 01-09-2019 04:21:17 20.8 C 68 %
263 01-09-2019 04:33:17 20.7 C 68 %
264 01-09-2019 04:45:18 20.7 C 68 %
265 01-09-2019 04:57:18 20.7 C 68 %
266 01-09-2019 05:09:17 20.7 C 68 %
267 01-09-2019 05:21:18 20.7 C 68 %
268 01-09-2019 05:33:17 20.6 C 68 %
269 01-09-2019 05:45:18 20.6 C 68 %
270 01-09-2019 05:57:18 20.6 C 68 %
271 01-09-2019 06:09:17 20.5 C 68 %
272 01-09-2019 06:21:17 20.5 C 68 %
273 01-09-2019 06:33:18 20.5 C 68 %
274 01-09-2019 06:45:17 20.5 C 68 %
275 01-09-2019 06:57:17 20.4 C 68 %
Sensor: Nr:Datum:Temp:Feuchte:
G-T/H 276 01-09-2019 07:09:17 20.4 C 68 %
277 01-09-2019 07:21:17 20.4 C 68 %
278 01-09-2019 07:33:17 20.4 C 68 %
279 01-09-2019 07:45:17 20.4 C 68 %
280 01-09-2019 07:57:17 20.4 C 68 %
281 01-09-2019 08:09:17 20.4 C 68 %
282 01-09-2019 08:21:17 20.4 C 68 %
283 01-09-2019 08:33:17 20.4 C 67 %
284 01-09-2019 08:45:17 20.4 C 67 %
285 01-09-2019 08:57:17 20.4 C 67 %
286 01-09-2019 09:09:17 20.3 C 67 %
287 01-09-2019 09:21:17 20.3 C 67 %
288 01-09-2019 09:33:17 20.3 C 67 %
289 01-09-2019 09:45:17 20.3 C 67 %
290 01-09-2019 09:57:18 20.3 C 67 %
291 01-09-2019 10:09:17 20.3 C 67 %
292 01-09-2019 10:21:17 20.3 C 67 %
293 01-09-2019 10:33:18 20.3 C 67 %
294 01-09-2019 10:45:17 20.3 C 67 %
295 01-09-2019 10:57:17 20.4 C 67 %
296 01-09-2019 11:09:17 20.3 C 67 %
297 01-09-2019 11:21:17 20.3 C 67 %
298 01-09-2019 11:33:17 20.3 C 67 %
299 01-09-2019 11:45:17 20.3 C 67 %
300 01-09-2019 11:57:17 20.3 C 67 %
Sensor: Nr:Datum:Temp:Feuchte:
G-T/H 301 01-09-2019 12:09:18 20.3 C 67 %
302 01-09-2019 12:21:17 20.3 C 67 %
303 01-09-2019 12:33:17 20.3 C 67 %
304 01-09-2019 12:45:17 20.3 C 67 %
305 01-09-2019 12:57:17 20.3 C 67 %
306 01-09-2019 13:09:17 20.3 C 66 %
307 01-09-2019 13:21:17 20.3 C 66 %
308 01-09-2019 13:33:17 20.3 C 66 %
309 01-09-2019 13:45:18 20.3 C 66 %
310 01-09-2019 13:57:18 20.2 C 66 %
311 01-09-2019 14:09:17 20.2 C 66 %
312 01-09-2019 14:21:17 20.3 C 65 %
313 01-09-2019 14:33:17 20.3 C 65 %
314 01-09-2019 14:45:18 20.3 C 66 %
315 01-09-2019 14:57:18 20.3 C 66 %
316 01-09-2019 15:09:17 20.3 C 66 %
317 01-09-2019 15:21:17 20.4 C 64 %
318 01-09-2019 15:33:17 20.4 C 63 %
319 01-09-2019 15:45:17 20.4 C 63 %
320 01-09-2019 15:57:17 20.5 C 62 %
321 01-09-2019 16:09:17 20.5 C 62 %
322 01-09-2019 16:21:17 21.1 C 61 %
323 01-09-2019 16:33:17 21.3 C 61 %
324 01-09-2019 16:45:17 21.3 C 61 %
325 01-09-2019 16:57:17 21.3 C 61 %
Sensor: Nr:Datum:Temp:Feuchte:
G-T/H 326 01-09-2019 17:09:17 21.3 C 61 %
327 01-09-2019 17:21:17 21.2 C 61 %
328 01-09-2019 17:33:17 21.2 C 61 %
329 01-09-2019 17:45:17 21.1 C 62 %
330 01-09-2019 17:57:17 21.1 C 62 %
331 01-09-2019 18:09:17 21.1 C 62 %
332 01-09-2019 18:21:18 21.1 C 62 %
333 01-09-2019 18:33:17 21.1 C 62 %
334 01-09-2019 18:45:18 21.1 C 62 %
335 01-09-2019 18:57:18 21 C 62 %
336 01-09-2019 19:09:17 21 C 62 %
337 01-09-2019 19:21:17 21 C 62 %
338 01-09-2019 19:33:17 20.9 C 63 %
339 01-09-2019 19:45:17 20.9 C 62 %
340 01-09-2019 19:57:17 20.8 C 62 %
341 01-09-2019 20:09:17 20.8 C 62 %
342 01-09-2019 20:21:17 20.8 C 62 %
343 01-09-2019 20:33:17 20.8 C 62 %
344 01-09-2019 20:45:18 20.8 C 62 %
345 01-09-2019 20:57:18 20.7 C 62 %
346 01-09-2019 21:09:17 20.6 C 62 %
347 01-09-2019 21:21:17 20.6 C 63 %
348 01-09-2019 21:33:17 20.5 C 63 %
349 01-09-2019 21:45:17 20.4 C 63 %
350 01-09-2019 21:57:17 20.4 C 63 %
Sensor: Nr:Datum:Temp:Feuchte:
G-T/H 351 01-09-2019 22:09:17 20.4 C 63 %
352 01-09-2019 22:21:18 20.4 C 63 %
353 01-09-2019 22:33:17 20.3 C 63 %
354 01-09-2019 22:45:17 20.3 C 63 %
355 01-09-2019 22:57:17 20.2 C 63 %
356 01-09-2019 23:09:17 20.2 C 62 %
357 01-09-2019 23:21:17 20.3 C 62 %
358 01-09-2019 23:33:17 20.2 C 61 %
359 01-09-2019 23:45:17 20.1 C 61 %
360 01-09-2019 23:57:18 20.1 C 60 %
361 02-09-2019 00:09:17 20.1 C 60 %
362 02-09-2019 00:21:18 20 C 60 %
363 02-09-2019 00:33:17 19.9 C 60 %
364 02-09-2019 00:45:18 20 C 59 %
365 02-09-2019 00:57:18 19.9 C 59 %
366 02-09-2019 01:09:17 19.9 C 59 %
367 02-09-2019 01:21:18 19.8 C 58 %
368 02-09-2019 01:33:17 19.8 C 58 %
369 02-09-2019 01:45:18 19.8 C 58 %
370 02-09-2019 01:57:18 19.7 C 57 %
371 02-09-2019 02:09:17 19.7 C 57 %
372 02-09-2019 02:21:17 19.7 C 57 %
373 02-09-2019 02:33:18 19.6 C 57 %
374 02-09-2019 02:45:17 19.6 C 57 %
375 02-09-2019 02:57:17 19.6 C 57 %
Sensor: Nr:Datum:Temp:Feuchte:
G-T/H 376 02-09-2019 03:09:17 19.5 C 57 %
377 02-09-2019 03:21:17 19.5 C 57 %
378 02-09-2019 03:33:17 19.5 C 57 %
379 02-09-2019 03:45:18 19.5 C 57 %
380 02-09-2019 03:57:18 19.5 C 57 %
381 02-09-2019 04:09:17 19.5 C 57 %
382 02-09-2019 04:21:17 19.5 C 56 %
383 02-09-2019 04:33:17 19.5 C 57 %
384 02-09-2019 04:45:17 19.4 C 57 %
385 02-09-2019 04:57:17 19.4 C 58 %
386 02-09-2019 05:09:17 19.4 C 58 %
387 02-09-2019 05:21:17 19.4 C 58 %
388 02-09-2019 05:33:17 19.4 C 58 %
389 02-09-2019 05:45:17 19.3 C 58 %
390 02-09-2019 05:57:17 19.3 C 59 %
391 02-09-2019 06:09:17 19.3 C 59 %
392 02-09-2019 06:21:17 19.3 C 59 %
393 02-09-2019 06:33:18 19.3 C 59 %
394 02-09-2019 06:45:17 19.3 C 59 %
395 02-09-2019 06:57:17 19.3 C 59 %
396 02-09-2019 07:09:17 19.2 C 59 %
397 02-09-2019 07:21:17 19.2 C 59 %
398 02-09-2019 07:33:17 19.1 C 59 %
399 02-09-2019 07:45:17 19.1 C 59 %
400 02-09-2019 07:57:17 19.1 C 59 %
Sensor: Nr:Datum:Temp:Feuchte:
G-T/H 401 02-09-2019 08:09:18 19.1 C 59 %
402 02-09-2019 08:21:17 19.1 C 59 %
403 02-09-2019 08:33:18 19 C 59 %
404 02-09-2019 08:45:17 19 C 59 %
405 02-09-2019 08:57:17 18.6 C 58 %
406 02-09-2019 09:09:18 16.7 C 57 %
407 02-09-2019 09:21:17 16.3 C 58 %
408 02-09-2019 09:33:18 16 C 58 %
409 02-09-2019 09:45:17 15.9 C 59 %
410 02-09-2019 09:57:17 15.9 C 60 %
411 02-09-2019 10:09:17 15.8 C 61 %
412 02-09-2019 10:21:17 16.1 C 60 %
413 02-09-2019 10:33:17 16.4 C 61 %
414 02-09-2019 10:45:17 16.4 C 60 %
415 02-09-2019 10:57:17 16.8 C 60 %
416 02-09-2019 11:09:17 17 C 58 %
417 02-09-2019 11:21:17 17.5 C 55 %
418 02-09-2019 11:33:17 17.7 C 54 %
419 02-09-2019 11:45:18 17.8 C 54 %
420 02-09-2019 11:57:18 17.9 C 53 %
421 02-09-2019 12:09:17 17.9 C 53 %
422 02-09-2019 12:21:17 18.1 C 51 %
423 02-09-2019 12:33:17 18.2 C 51 %
424 02-09-2019 12:45:17 18.3 C 49 %
425 02-09-2019 12:57:17 18.3 C 49 %
Sensor: Nr:Datum:Temp:Feuchte:
G-T/H 426 02-09-2019 13:09:17 18.5 C 48 %
427 02-09-2019 13:21:17 18.5 C 48 %
428 02-09-2019 13:33:17 18.5 C 47 %
429 02-09-2019 13:45:17 18.7 C 47 %
430 02-09-2019 13:57:17 18.7 C 46 %
431 02-09-2019 14:09:17 18.7 C 46 %
432 02-09-2019 14:21:18 18.8 C 45 %
433 02-09-2019 14:33:17 18.9 C 45 %
434 02-09-2019 14:45:18 18.9 C 45 %
435 02-09-2019 14:57:18 18.9 C 45 %
436 02-09-2019 15:09:17 19 C 45 %
437 02-09-2019 15:21:17 19 C 43 %
438 02-09-2019 15:33:17 19 C 44 %
439 02-09-2019 15:45:18 19 C 44 %
440 02-09-2019 15:57:18 19.1 C 44 %
441 02-09-2019 16:09:17 19.2 C 43 %
442 02-09-2019 16:21:17 19.3 C 42 %
443 02-09-2019 16:33:17 19.3 C 42 %
444 02-09-2019 16:45:17 19.3 C 42 %
445 02-09-2019 16:57:17 19.3 C 41 %
446 02-09-2019 17:09:18 19.4 C 41 %
447 02-09-2019 17:21:17 19.4 C 41 %
448 02-09-2019 17:33:17 19.5 C 41 %
449 02-09-2019 17:45:17 19.5 C 41 %
450 02-09-2019 17:57:17 19.6 C 40 %
Sensor: Nr:Datum:Temp:Feuchte:
G-T/H 451 02-09-2019 18:09:18 19.6 C 40 %
452 02-09-2019 18:21:17 19.6 C 39 %
453 02-09-2019 18:33:18 19.6 C 40 %
454 02-09-2019 18:45:17 19.7 C 40 %
455 02-09-2019 18:57:17 19.7 C 40 %
456 02-09-2019 19:09:18 19.7 C 39 %
457 02-09-2019 19:21:17 19.6 C 40 %
458 02-09-2019 19:33:17 19.4 C 41 %
459 02-09-2019 19:45:17 19.1 C 42 %
460 02-09-2019 19:57:17 18.9 C 44 %
461 02-09-2019 20:09:17 18.7 C 44 %
462 02-09-2019 20:21:18 18.6 C 45 %
463 02-09-2019 20:33:17 18.5 C 44 %
464 02-09-2019 20:45:18 18.1 C 44 %
465 02-09-2019 20:57:18 18.1 C 44 %
466 02-09-2019 21:09:17 17.6 C 45 %
467 02-09-2019 21:21:17 17.3 C 45 %
468 02-09-2019 21:33:17 17.3 C 45 %
469 02-09-2019 21:45:17 17.2 C 45 %
470 02-09-2019 21:57:17 17.1 C 46 %
471 02-09-2019 22:09:18 17 C 46 %
472 02-09-2019 22:21:17 16.8 C 46 %
473 02-09-2019 22:33:18 16.8 C 47 %
474 02-09-2019 22:45:17 16.6 C 47 %
475 02-09-2019 22:57:17 16.6 C 47 %
Sensor: Nr:Datum:Temp:Feuchte:
G-T/H 476 02-09-2019 23:09:18 16.5 C 48 %
477 02-09-2019 23:21:17 16.4 C 48 %
478 02-09-2019 23:33:18 16.3 C 48 %
479 02-09-2019 23:45:17 16.2 C 48 %
480 02-09-2019 23:57:17 16.2 C 49 %
481 03-09-2019 00:09:18 16 C 49 %
482 03-09-2019 00:21:17 15.9 C 50 %
483 03-09-2019 00:33:18 15.8 C 50 %
484 03-09-2019 00:45:17 15.7 C 50 %
485 03-09-2019 00:57:17 15.7 C 50 %
486 03-09-2019 01:09:17 15.7 C 50 %
487 03-09-2019 01:21:17 15.7 C 51 %
488 03-09-2019 01:33:18 15.6 C 51 %
489 03-09-2019 01:45:17 15.4 C 51 %
490 03-09-2019 01:57:17 15.1 C 51 %
491 03-09-2019 02:09:18 14.9 C 52 %
492 03-09-2019 02:21:17 14.9 C 52 %
493 03-09-2019 02:33:18 14.7 C 52 %
494 03-09-2019 02:45:17 14.4 C 53 %
495 03-09-2019 02:57:17 14.4 C 53 %
496 03-09-2019 03:09:17 14.3 C 53 %
497 03-09-2019 03:21:17 14.1 C 53 %
498 03-09-2019 03:33:18 14.1 C 53 %
499 03-09-2019 03:45:17 14 C 53 %
500 03-09-2019 03:57:17 14 C 54 %
Sensor: Nr:Datum:Temp:Feuchte:
G-T/H 501 03-09-2019 04:09:17 14 C 54 %
502 03-09-2019 04:21:17 13.9 C 56 %
503 03-09-2019 04:33:17 13.8 C 56 %
504 03-09-2019 04:45:18 13.9 C 56 %
505 03-09-2019 04:57:18 13.7 C 56 %
506 03-09-2019 05:09:17 13.5 C 56 %
507 03-09-2019 05:21:17 13.4 C 56 %
508 03-09-2019 05:33:17 13.4 C 56 %
509 03-09-2019 05:45:17 13.2 C 57 %
510 03-09-2019 05:57:18 13.2 C 57 %
511 03-09-2019 06:09:17 13.2 C 58 %
512 03-09-2019 06:21:17 13 C 57 %
513 03-09-2019 06:33:17 12.9 C 58 %
514 03-09-2019 06:45:17 12.8 C 58 %
515 03-09-2019 06:57:17 12.6 C 59 %
516 03-09-2019 07:09:17 12.5 C 59 %
517 03-09-2019 07:21:17 12.6 C 60 %
518 03-09-2019 07:33:17 12.6 C 60 %
519 03-09-2019 07:45:17 12.6 C 60 %
520 03-09-2019 07:57:17 12.7 C 60 %
521 03-09-2019 08:09:17 12.7 C 60 %
522 03-09-2019 08:21:18 12.7 C 61 %
523 03-09-2019 08:33:17 12.5 C 61 %
524 03-09-2019 08:45:18 12.7 C 62 %
525 03-09-2019 08:57:18 12.8 C 62 %
Sensor: Nr:Datum:Temp:Feuchte:
G-T/H 526 03-09-2019 09:09:17 12.9 C 62 %
527 03-09-2019 09:21:17 13 C 62 %
528 03-09-2019 09:33:17 13.1 C 62 %
529 03-09-2019 09:45:18 13.5 C 62 %
530 03-09-2019 09:57:18 13.6 C 62 %
531 03-09-2019 10:09:17 13.7 C 62 %
532 03-09-2019 10:21:18 14.3 C 62 %
533 03-09-2019 10:33:17 14.6 C 62 %
534 03-09-2019 10:45:17 15 C 61 %
535 03-09-2019 10:57:17 15.3 C 60 %
536 03-09-2019 11:09:17 15.6 C 59 %
537 03-09-2019 11:21:18 15.9 C 58 %
538 03-09-2019 11:33:17 16.3 C 55 %
539 03-09-2019 11:45:17 16.8 C 53 %
540 03-09-2019 11:57:17 17 C 51 %
541 03-09-2019 12:09:17 17.2 C 50 %
542 03-09-2019 12:21:18 17.5 C 50 %
543 03-09-2019 12:33:17 17.6 C 50 %
544 03-09-2019 12:45:17 17.8 C 49 %
545 03-09-2019 12:57:17 17.9 C 49 %
546 03-09-2019 13:09:17 18.1 C 48 %
547 03-09-2019 13:21:17 18.2 C 48 %
548 03-09-2019 13:33:17 18.3 C 47 %
549 03-09-2019 13:45:17 18.4 C 47 %
550 03-09-2019 13:57:17 18.5 C 47 %
Sensor: Nr:Datum:Temp:Feuchte:
G-T/H 551 03-09-2019 14:09:17 18.7 C 46 %
552 03-09-2019 14:21:18 19 C 45 %